[[{"header":{"parameterUnit":"m.s-1","parameterCategory":1,"la1":30.6,"la2":29.2853,"lo1":-89.7004,"lo2":-87.6739,"dy":0.0162,"dx":0.0183,"nx":112,"ny":82,"refTime":"2024-07-29T06:00:00:Z","depth":0,"parameterNumber":2,"parameterNumberName":"U-component_of_WINDS"},"data":[0.0,0.0,0.0,0.0,0.0,0.0,0.0,0.0,0.0,0.0,0.0,0.0,0.0,0.0,0.0,0.0,0.0,0.0,0.0,0.0,0.0,0.0,0.0,0.0,0.0,0.0,0.0,0.0,0.0,0.0,0.0,0.0,0.0,0.0,0.0,0.0,0.0,0.0,0.0,0.0,0.0,0.0,0.0,0.0,0.0,0.0,0.0,0.0,0.0,0.0,0.0,0.0,0.0,0.0,0.0,0.0,0.0,0.0,0.0,0.0,0.0,0.0,0.0,0.0,0.0,0.0,0.0,0.0,0.0,0.0,0.0,0.0,0.0,0.0,0.0,0.0,0.0,0.0,0.0,0.0,0.0,0.0,0.0,0.0,0.0,0.0,0.0,0.0,0.0,0.0,0.0,-1.8731,-2.0006,-2.0983,-2.1407,-2.0893,-1.9749,-1.7904,0.0,0.0,0.0,0.0,0.0,0.0,0.0,0.0,0.0,0.0,0.0,0.0,0.0,0.0,0.0,0.0,0.0,0.0,0.0,0.0,0.0,0.0,0.0,0.0,0.0,0.0,0.0,0.0,0.0,0.0,0.0,0.0,0.0,0.0,0.0,0.0,0.0,0.0,0.0,0.0,0.0,0.0,0.0,0.0,0.0,0.0,0.0,0.0,0.0,0.0,0.0,0.0,0.0,0.0,0.0,0.0,0.0,0.0,0.0,0.0,0.0,0.0,0.0,0.0,0.0,0.0,0.0,0.0,0.0,0.0,0.0,0.0,0.0,0.0,0.0,0.0,0.0,0.0,0.0,0.0,0.0,0.0,0.0,0.0,0.0,0.0,0.0,0.0,0.0,0.0,0.0,0.0,0.0,0.0,0.0,0.0,0.0,0.0,0.0,0.0,0.0,0.0,0.0,0.0,-1.7961,-2.0772,-2.093,-2.0794,-2.0815,-1.9872,-1.8839,-1.7866,0.0,0.0,0.0,0.0,0.0,0.0,0.0,0.0,0.0,0.0,0.0,0.0,0.0,0.0,0.0,0.0,0.0,0.0,0.0,0.0,0.0,0.0,0.0,0.0,0.0,0.0,0.0,0.0,0.0,0.0,0.0,0.0,0.0,0.0,0.0,0.0,0.0,0.0,0.0,0.0,0.0,0.0,0.0,0.0,0.0,0.0,0.0,0.0,0.0,0.0,0.0,0.0,0.0,0.0,0.0,0.0,0.0,0.0,0.0,0.0,0.0,0.0,0.0,0.0,0.0,0.0,0.0,0.0,0.0,0.0,0.0,0.0,0.0,0.0,0.0,0.0,0.0,0.0,0.0,0.0,0.0,0.0,0.0,0.0,0.0,0.0,0.0,0.0,0.0,0.0,0.0,0.0,0.0,0.0,0.0,0.0,0.0,0.0,0.0,0.0,0.0,0.0,0.0,-1.6741,-1.8066,-2.1332,-2.0818,-2.0259,-2.0227,-1.9481,-1.8434,-1.705,-1.5282,0.0,0.0,0.0,0.0,0.0,0.0,0.0,0.0,0.0,0.0,0.0,0.0,0.0,0.0,0.0,0.0,0.0,0.0,0.0,0.0,0.0,0.0,0.0,0.0,0.0,0.0,0.0,0.0,0.0,0.0,0.0,0.0,0.0,0.0,0.0,0.0,0.0,0.0,0.0,0.0,0.0,0.0,0.0,0.0,0.0,0.0,0.0,0.0,0.0,0.0,0.0,0.0,0.0,0.0,0.0,0.0,0.0,0.0,0.0,0.0,0.0,0.0,0.0,0.0,0.0,0.0,0.0,0.0,0.0,0.0,0.0,0.0,0.0,0.0,0.0,0.0,0.0,0.0,0.0,0.0,0.0,0.0,0.0,0.0,0.0,0.0,0.0,0.0,0.0,0.0,0.0,0.0,0.0,0.0,0.0,0.0,0.0,0.0,0.0,0.0,0.0,0.0,-1.8293,-1.8719,-2.1429,-2.0557,-1.9798,-1.9798,-1.8939,-1.7822,-1.6388,-1.3852,0.0,0.0,0.0,0.0,0.0,0.0,0.0,0.0,0.0,0.0,0.0,0.0,0.0,0.0,0.0,0.0,0.0,0.0,0.0,0.0,0.0,0.0,0.0,0.0,0.0,0.0,0.0,0.0,0.0,0.0,0.0,0.0,0.0,0.0,0.0,0.0,0.0,0.0,0.0,0.0,0.0,0.0,0.0,0.0,0.0,0.0,0.0,0.0,0.0,0.0,0.0,0.0,0.0,0.0,0.0,0.0,0.0,0.0,0.0,0.0,0.0,0.0,0.0,0.0,0.0,0.0,0.0,0.0,0.0,0.0,0.0,0.0,0.0,0.0,0.0,0.0,0.0,0.0,0.0,0.0,0.0,0.0,0.0,0.0,0.0,0.0,0.0,0.0,0.0,0.0,0.0,0.0,0.0,0.0,0.0,0.0,0.0,0.0,0.0,0.0,0.0,0.0,-1.8846,-2.0124,-2.1558,-2.0557,-1.9798,-1.9798,-1.7899,-1.6557,-1.6297,-1.2824,0.0,0.0,0.0,0.0,0.0,0.0,0.0,0.0,0.0,0.0,0.0,0.0,0.0,0.0,0.0,0.0,0.0,0.0,0.0,0.0,0.0,0.0,0.0,0.0,0.0,0.0,0.0,0.0,0.0,0.0,0.0,0.0,0.0,0.0,0.0,0.0,0.0,0.0,0.0,0.0,0.0,0.0,0.0,0.0,0.0,0.0,0.0,0.0,0.0,0.0,0.0,0.0,0.0,0.0,0.0,0.0,0.0,0.0,0.0,0.0,0.0,0.0,0.0,0.0,0.0,0.0,0.0,0.0,0.0,0.0,0.0,0.0,0.0,0.0,0.0,0.0,0.0,0.0,0.0,0.0,0.0,0.0,0.0,0.0,0.0,0.0,0.0,0.0,0.0,0.0,0.0,0.0,0.0,0.0,0.0,0.0,0.0,0.0,0.0,0.0,0.0,0.0,-1.7953,-1.9212,0.0,-2.0333,-1.9673,-1.9346,-1.8242,-1.6822,-1.5044,0.0,0.0,0.0,0.0,0.0,0.0,0.0,0.0,0.0,0.0,0.0,0.0,0.0,0.0,0.0,0.0,0.0,0.0,0.0,0.0,0.0,0.0,0.0,0.0,0.0,0.0,0.0,0.0,0.0,0.0,0.0,0.0,0.0,0.0,0.0,0.0,0.0,0.0,0.0,0.0,0.0,0.0,0.0,0.0,0.0,0.0,0.0,0.0,0.0,0.0,0.0,0.0,0.0,0.0,0.0,0.0,0.0,0.0,0.0,0.0,0.0,0.0,0.0,0.0,0.0,0.0,0.0,0.0,0.0,0.0,0.0,0.0,0.0,0.0,0.0,0.0,0.0,0.0,0.0,0.0,0.0,0.0,0.0,0.0,0.0,0.0,0.0,0.0,0.0,0.0,0.0,0.0,0.0,0.0,0.0,0.0,0.0,0.0,0.0,0.0,0.0,0.0,-1.6203,-1.7657,-1.8976,0.0,-2.0092,-1.9597,-1.907,-1.8191,-1.6635,-1.4236,0.0,0.0,0.0,0.0,0.0,0.0,0.0,0.0,0.0,0.0,0.0,0.0,0.0,0.0,0.0,0.0,0.0,0.0,0.0,0.0,0.0,0.0,0.0,0.0,0.0,0.0,0.0,0.0,0.0,0.0,0.0,0.0,0.0,0.0,0.0,0.0,0.0,0.0,0.0,0.0,0.0,0.0,0.0,0.0,0.0,0.0,0.0,0.0,0.0,0.0,0.0,0.0,0.0,0.0,0.0,0.0,0.0,0.0,0.0,0.0,0.0,0.0,0.0,0.0,0.0,0.0,0.0,0.0,0.0,0.0,0.0,0.0,0.0,0.0,0.0,0.0,0.0,0.0,0.0,0.0,0.0,0.0,0.0,0.0,0.0,0.0,0.0,0.0,0.0,0.0,0.0,0.0,0.0,0.0,0.0,0.0,0.0,0.0,0.0,0.0,0.0,0.0,-1.5794,-1.8221,-1.9822,-1.9966,-1.9861,-1.9585,-1.907,-1.7488,-1.5819,0.0,0.0,0.0,0.0,0.0,0.0,0.0,0.0,0.0,0.0,0.0,0.0,0.0,0.0,0.0,0.0,0.0,0.0,0.0,0.0,0.0,0.0,0.0,0.0,0.0,0.0,0.0,0.0,0.0,0.0,0.0,0.0,0.0,0.0,0.0,0.0,0.0,0.0,0.0,0.0,0.0,0.0,0.0,0.0,0.0,0.0,0.0,0.0,0.0,0.0,0.0,0.0,0.0,0.0,0.0,0.0,0.0,0.0,0.0,0.0,0.0,0.0,0.0,0.0,0.0,0.0,0.0,0.0,0.0,0.0,0.0,0.0,0.0,0.0,0.0,0.0,0.0,0.0,0.0,0.0,0.0,0.0,0.0,0.0,0.0,0.0,0.0,0.0,0.0,0.0,0.0,0.0,0.0,0.0,0.0,0.0,0.0,0.0,0.0,0.0,0.0,0.0,0.0,0.0,-1.7477,-1.9258,-1.9287,-1.9257,-1.9032,-1.8493,-1.7639,-1.6082,-1.3634,0.0,0.0,0.0,0.0,0.0,0.0,0.0,0.0,0.0,0.0,0.0,0.0,0.0,0.0,0.0,0.0,0.0,0.0,0.0,0.0,0.0,0.0,0.0,0.0,0.0,0.0,0.0,0.0,0.0,0.0,0.0,0.0,0.0,0.0,0.0,0.0,0.0,0.0,0.0,0.0,0.0,0.0,0.0,0.0,0.0,0.0,0.0,0.0,0.0,0.0,0.0,0.0,0.0,0.0,0.0,0.0,0.0,0.0,0.0,0.0,0.0,0.0,0.0,0.0,0.0,0.0,0.0,0.0,0.0,0.0,0.0,0.0,0.0,0.0,0.0,0.0,0.0,0.0,0.0,0.0,0.0,0.0,0.0,0.0,0.0,0.0,0.0,0.0,0.0,0.0,0.0,0.0,0.0,0.0,0.0,0.0,0.0,0.0,0.0,0.0,0.0,0.0,-1.4376,-1.7107,-1.8993,-1.9019,-1.8983,-1.8807,-1.8254,-1.7702,-1.6283,-1.3722,0.0,0.0,0.0,0.0,0.0,0.0,0.0,0.0,0.0,0.0,0.0,0.0,0.0,0.0,0.0,0.0,0.0,0.0,0.0,0.0,0.0,0.0,0.0,0.0,0.0,0.0,0.0,0.0,0.0,0.0,0.0,0.0,0.0,0.0,0.0,0.0,0.0,0.0,0.0,0.0,0.0,0.0,0.0,0.0,0.0,0.0,0.0,0.0,0.0,0.0,0.0,0.0,0.0,0.0,0.0,0.0,0.0,0.0,0.0,0.0,0.0,0.0,0.0,0.0,0.0,0.0,0.0,0.0,0.0,0.0,0.0,0.0,0.0,0.0,0.0,0.0,0.0,0.0,0.0,0.0,0.0,0.0,0.0,0.0,0.0,0.0,0.0,0.0,0.0,0.0,0.0,0.0,0.0,0.0,0.0,0.0,0.0,0.0,0.0,0.0,0.0,0.0,-1.4384,-1.7118,-1.8947,-1.9019,-1.8982,-1.8744,-1.8242,-1.7652,-1.6439,-1.4299,0.0,0.0,0.0,0.0,0.0,0.0,0.0,0.0,0.0,0.0,0.0,0.0,0.0,0.0,0.0,0.0,0.0,0.0,0.0,0.0,0.0,0.0,0.0,0.0,0.0,0.0,0.0,0.0,0.0,0.0,0.0,0.0,0.0,0.0,0.0,0.0,0.0,0.0,0.0,0.0,0.0,0.0,0.0,0.0,0.0,0.0,0.0,0.0,0.0,0.0,0.0,0.0,0.0,0.0,0.0,0.0,0.0,0.0,0.0,0.0,-2.1265,0.0,0.0,0.0,0.0,0.0,0.0,0.0,0.0,0.0,0.0,0.0,0.0,0.0,0.0,0.0,0.0,0.0,0.0,0.0,0.0,0.0,0.0,0.0,0.0,0.0,0.0,0.0,0.0,0.0,0.0,0.0,0.0,0.0,0.0,0.0,0.0,0.0,0.0,0.0,0.0,0.0,-1.4625,-1.6921,-1.8548,-1.897,-1.8643,-1.8329,-1.8216,-1.7275,-1.6132,-1.4815,0.0,0.0,0.0,0.0,0.0,0.0,0.0,0.0,0.0,0.0,0.0,0.0,0.0,0.0,0.0,0.0,0.0,0.0,0.0,0.0,0.0,0.0,0.0,0.0,0.0,0.0,0.0,0.0,0.0,0.0,0.0,0.0,0.0,0.0,0.0,0.0,0.0,0.0,0.0,0.0,0.0,0.0,0.0,0.0,0.0,0.0,0.0,0.0,0.0,0.0,0.0,0.0,0.0,0.0,0.0,0.0,0.0,0.0,0.0,0.0,0.0,-2.2562,0.0,0.0,0.0,0.0,0.0,0.0,0.0,0.0,0.0,0.0,0.0,0.0,0.0,0.0,0.0,0.0,0.0,0.0,0.0,0.0,0.0,0.0,0.0,0.0,0.0,0.0,0.0,0.0,0.0,0.0,0.0,0.0,0.0,0.0,0.0,0.0,0.0,0.0,0.0,0.0,-1.5419,-1.7149,-1.8505,-1.9309,-1.8681,-1.8204,-1.8204,-1.7174,-1.6158,-1.5356,-1.4488,0.0,0.0,0.0,0.0,0.0,0.0,0.0,0.0,0.0,0.0,0.0,0.0,0.0,0.0,0.0,0.0,0.0,0.0,0.0,0.0,0.0,0.0,0.0,0.0,0.0,0.0,0.0,0.0,0.0,0.0,0.0,0.0,0.0,0.0,0.0,0.0,0.0,0.0,0.0,0.0,0.0,0.0,0.0,0.0,0.0,0.0,0.0,0.0,0.0,0.0,0.0,0.0,0.0,-3.0072,-2.9925,-2.8882,-2.9961,-3.0418,-3.0118,-2.7365,-2.6153,-2.5959,0.0,0.0,0.0,0.0,0.0,0.0,0.0,0.0,0.0,0.0,0.0,0.0,0.0,0.0,0.0,0.0,0.0,0.0,0.0,0.0,0.0,0.0,0.0,0.0,0.0,-2.3101,-2.2877,0.0,0.0,0.0,0.0,0.0,0.0,0.0,0.0,0.0,0.0,0.0,0.0,-1.6346,-1.7652,-1.8719,-1.9698,-1.8844,-1.8204,-1.8204,-1.7174,-1.6321,-1.5869,-1.5329,-1.4613,0.0,0.0,0.0,0.0,0.0,0.0,0.0,0.0,0.0,0.0,0.0,0.0,0.0,0.0,0.0,0.0,0.0,0.0,0.0,0.0,0.0,0.0,0.0,0.0,0.0,0.0,0.0,0.0,0.0,0.0,0.0,0.0,-1.9527,-2.0518,0.0,0.0,0.0,0.0,0.0,0.0,0.0,0.0,0.0,0.0,0.0,0.0,0.0,0.0,-3.117,-3.3529,-3.4152,-3.3107,-3.4904,-3.511,-3.3785,-3.397,-3.3658,-3.2946,-3.2512,0.0,-2.8128,-2.7186,0.0,0.0,0.0,0.0,0.0,0.0,0.0,0.0,0.0,0.0,0.0,0.0,0.0,0.0,0.0,0.0,0.0,0.0,0.0,0.0,0.0,0.0,-2.4732,-2.4283,-2.4807,-2.5016,0.0,-2.1336,-1.874,-1.6857,-1.5082,0.0,0.0,0.0,0.0,0.0,0.0,0.0,-1.7099,-1.8242,-1.9145,-1.9748,-1.8844,-1.8204,-1.8204,-1.7174,-1.6484,-1.6409,-1.5894,-1.5517,-1.5379,-1.3923,0.0,0.0,0.0,0.0,0.0,0.0,0.0,0.0,0.0,0.0,0.0,0.0,0.0,0.0,0.0,0.0,0.0,0.0,0.0,0.0,0.0,0.0,0.0,0.0,0.0,0.0,0.0,0.0,0.0,-1.8538,-2.1404,-2.1786,-2.2835,-2.3105,0.0,0.0,0.0,0.0,0.0,0.0,0.0,0.0,0.0,-3.2527,-3.3573,-3.4449,-3.5053,-3.6202,-3.6599,-3.6059,-3.695,-3.7011,-3.6453,-3.597,-3.5567,-3.5217,-3.4781,-3.3589,-3.1764,-2.9968,-2.8113,-2.6273,0.0,0.0,0.0,0.0,-2.4193,-2.4552,-2.5315,-2.5764,0.0,0.0,0.0,0.0,0.0,0.0,0.0,0.0,0.0,0.0,0.0,0.0,0.0,-2.5704,-2.6243,-2.6527,-2.5869,-2.4317,-2.2203,0.0,-1.8464,-1.7213,-1.4792,0.0,0.0,0.0,0.0,0.0,-1.8116,-1.8731,-1.9233,-1.9748,-1.8844,-1.8204,-1.8204,-1.7174,-1.6522,-1.6522,-1.6283,-1.6158,-1.6158,-1.5166,-1.3948,0.0,0.0,0.0,0.0,0.0,0.0,0.0,0.0,0.0,0.0,0.0,0.0,0.0,0.0,0.0,0.0,0.0,0.0,0.0,0.0,0.0,0.0,0.0,0.0,0.0,0.0,0.0,0.0,-2.094,-2.3359,-2.3173,-2.4949,-2.5761,0.0,0.0,0.0,0.0,0.0,0.0,-3.1444,-3.2916,-3.4303,-3.5605,-3.64,-3.7268,-3.8396,-3.839,-3.8374,-3.8374,-3.8374,-3.8262,-3.8019,-3.7263,-3.6783,-3.6554,-3.5846,-3.522,-3.4562,-3.2228,-3.0612,-2.946,-2.8113,-2.729,-2.6916,-2.741,-2.759,-2.7739,-2.8742,-2.9086,-2.8846,-2.735,0.0,-2.5974,-2.3849,0.0,0.0,0.0,0.0,-2.4238,-2.5555,-2.6138,-2.6497,-2.6991,-2.7335,-2.749,-2.6946,-2.6465,-2.5125,0.0,-2.1265,-2.0225,-1.6977,0.0,0.0,0.0,0.0,-1.7568,-1.882,-1.9145,-1.9371,-1.9761,-1.897,-1.8355,-1.8216,-1.73,-1.6672,-1.6522,-1.6522,-1.6522,-1.6522,-1.612,-1.5191,-1.3649,0.0,0.0,0.0,0.0,0.0,0.0,0.0,0.0,0.0,0.0,0.0,0.0,0.0,0.0,0.0,0.0,0.0,0.0,0.0,0.0,0.0,0.0,0.0,0.0,0.0,0.0,0.0,0.0,0.0,-2.5524,-2.8653,0.0,0.0,0.0,0.0,-3.0852,-3.229,-3.3778,-3.5267,-3.6789,-3.7973,-3.8751,-3.9512,-3.9885,-3.9952,-3.9986,-3.9952,-3.9952,-3.9952,-3.961,-3.8799,-3.8092,-3.7338,-3.6554,-3.5846,-3.5489,-3.534,-3.3933,-3.2946,-3.2183,-3.0836,-3.0283,-3.0268,-3.0298,-3.0298,-3.0313,-3.0387,-3.0402,-3.0387,-3.0298,-2.9445,-2.8308,-2.7515,-2.6393,0.0,0.0,-2.737,-2.7634,-2.8981,-2.8891,-2.8457,-2.8487,-2.8023,-2.761,-2.758,-2.7515,-2.6539,0.0,-2.2142,-2.1128,-1.9155,0.0,-1.8681,-1.8154,-1.8543,-1.8883,-1.897,-1.9459,-1.9773,-1.9798,-1.9309,-1.8769,-1.8242,-1.7664,-1.7099,-1.6559,-1.6522,-1.6522,-1.6522,-1.6497,-1.5944,-1.4853,-1.3709,0.0,0.0,0.0,0.0,0.0,0.0,0.0,0.0,0.0,0.0,0.0,0.0,0.0,0.0,0.0,0.0,0.0,0.0,0.0,0.0,0.0,0.0,0.0,0.0,0.0,0.0,0.0,0.0,-2.9127,-3.163,0.0,0.0,-3.2324,-3.3237,-3.3981,-3.5453,-3.6738,-3.7736,-3.8751,-3.9648,-4.0392,-4.0663,-4.1035,-4.1491,-4.1508,-4.1271,-4.0798,-4.0798,-4.0425,-3.961,-3.8374,-3.7632,-3.7279,-3.6022,-3.5504,-3.5474,-3.4981,-3.4382,-3.3724,-3.3245,-3.2796,-3.2422,-3.2422,-3.2422,-3.2422,-3.2422,-3.2153,-3.1644,-3.0791,-2.9924,-2.919,-2.8936,-2.8532,-2.8263,-2.8727,-2.8861,-2.8981,-2.946,-2.94,-2.9131,-2.8697,-2.8412,-2.8113,-2.7715,-2.7625,-2.6982,-2.4861,-2.3928,-2.2815,-2.046,-2.0075,-1.9886,-1.9321,-1.9397,-1.9522,-1.9522,-1.9685,-1.9798,-1.9798,-1.9334,-1.8807,-1.8254,-1.7702,-1.7137,-1.6559,-1.6522,-1.6522,-1.6522,-1.6522,-1.6007,-1.4928,-1.4173,-1.2655,0.0,0.0,0.0,0.0,0.0,0.0,0.0,0.0,0.0,0.0,0.0,0.0,0.0,0.0,0.0,0.0,0.0,0.0,0.0,0.0,0.0,0.0,0.0,0.0,0.0,0.0,-3.0835,-3.1833,-3.4134,-3.525,-3.4252,-3.5284,-3.6214,-3.6721,-3.7922,-3.8853,-3.9343,-4.0054,-4.0696,-4.1187,-4.1441,-4.1813,-4.2286,-4.2286,-4.2049,-4.1576,-4.1576,-4.117,-4.046,-3.9139,-3.8261,-3.7764,-3.6415,-3.5718,-3.5504,-3.5504,-3.5235,-3.4816,-3.4816,-3.4562,-3.4173,-3.4173,-3.4173,-3.4143,-3.3903,-3.3395,-3.2662,-3.1554,-3.0896,-3.0537,-3.0313,-3.0238,-3.0238,-3.0238,-3.0238,-3.0238,-3.0238,-3.0058,-2.9729,-2.9086,-2.8757,-2.8412,-2.7724,-2.7625,-2.724,-2.6,-2.523,-2.4015,-2.1631,-2.1217,-2.0966,-2.0213,-2.0087,-2.0024,-1.9823,-1.9798,-1.9798,-1.9798,-1.9497,-1.8995,-1.8267,-1.7865,-1.7338,-1.6572,-1.6522,-1.6522,-1.6522,-1.6333,-1.5894,-1.5205,-1.4286,-1.293,-1.1235,0.0,0.0,0.0,0.0,0.0,0.0,0.0,0.0,0.0,0.0,0.0,0.0,0.0,0.0,0.0,0.0,0.0,0.0,0.0,0.0,0.0,0.0,0.0,-2.9163,-3.1664,-3.3525,-3.3575,-3.618,-3.7398,-3.591,-3.7736,-3.9022,-3.9022,-3.9698,-4.0104,-4.0104,-4.0832,-4.1255,-4.1271,-4.1965,-4.2337,-4.2354,-4.2354,-4.2354,-4.232,-4.232,-4.1931,-4.1152,-4.0446,-3.9282,-3.7764,-3.6964,-3.6165,-3.5504,-3.5504,-3.5504,-3.5504,-3.5504,-3.5504,-3.5504,-3.5504,-3.5504,-3.54,-3.4711,-3.4053,-3.341,-3.2736,-3.2512,-3.2392,-3.1676,-3.1482,-3.1482,-3.1482,-3.1482,-3.1482,-3.1482,-3.1046,-3.0372,-2.9759,-2.9116,-2.8442,-2.7754,-2.7625,-2.7357,-2.6669,-2.5906,-2.4761,-2.27,-2.2322,-2.1945,-2.0932,-2.0743,0.0,-1.9899,-1.9811,-1.9798,-1.9798,-1.9798,-1.9371,-1.8317,-1.8216,-1.7727,-1.6609,-1.6522,-1.6522,-1.6522,-1.6007,-1.5718,-1.5693,-1.4049,-1.292,-1.2306,0.0,0.0,0.0,0.0,0.0,0.0,0.0,0.0,0.0,0.0,0.0,0.0,0.0,0.0,0.0,0.0,0.0,0.0,0.0,0.0,0.0,0.0,-3.1867,-3.2148,-3.4303,-3.6248,-3.733,-3.865,-3.9326,-3.8886,-3.9411,-3.9783,-3.9783,-4.0476,-4.0899,-4.0899,-4.1593,-4.2236,-4.2794,-4.2997,-4.3386,-4.3944,-4.3944,-4.3656,-4.3115,-4.3115,-4.2439,-4.1152,-4.0446,-3.9282,-3.7764,-3.6964,-3.6165,-3.5504,-3.5504,-3.5504,-3.5504,-3.5504,-3.5504,-3.5504,-3.5504,-3.5504,-3.54,-3.4711,-3.4352,-3.4023,-3.2886,-3.2512,-3.2392,-3.1676,-3.1482,-3.1482,-3.1482,-3.1482,-3.1482,-3.1482,-3.1332,-3.1091,-3.0417,-2.9774,-2.9131,-2.8457,-2.7919,-2.7357,-2.6669,-2.5906,-2.5065,-2.3966,-2.291,-2.2209,-2.1907,-2.1179,0.0,-2.0451,-2.0062,-1.9798,-1.9798,-1.9798,-1.9522,-1.8857,-1.843,-1.7903,-1.7187,-1.6748,-1.6522,-1.6522,-1.6371,-1.6107,-1.5706,-1.4463,-1.3324,0.0,0.0,0.0,0.0,0.0,0.0,0.0,0.0,0.0,0.0,0.0,0.0,0.0,0.0,0.0,0.0,0.0,0.0,0.0,0.0,0.0,0.0,-3.3152,-3.5115,-3.5661,-3.6874,-3.8142,-3.9309,-3.9817,-4.007,-4.007,-4.007,-4.0206,-4.0527,-4.0967,-4.1339,-4.1644,-4.2354,-4.2963,-4.3403,-4.3741,-4.413,-4.4587,-4.4587,-4.435,-4.391,-4.391,-4.3284,-4.2064,-4.1045,-3.974,0.0,-3.7089,-3.6165,-3.5504,-3.5504,-3.5504,0.0,0.0,0.0,0.0,0.0,-3.5504,-3.5444,-3.504,-3.4906,-3.4726,-3.3679,-3.3335,-3.3155,-3.2228,-3.1943,-3.1884,-3.1556,-3.1482,-3.1482,-3.1482,-3.1482,-3.1302,-3.0672,-3.0028,-2.94,-2.8742,-2.8053,-2.7357,-2.6669,-2.5906,0.0,-2.4452,-2.3379,-2.2573,-2.2347,-2.1568,-2.0928,-2.0756,-2.0162,-1.9798,-1.9798,-1.9798,-1.9597,-1.907,-1.8731,0.0,0.0,0.0,-1.6672,-1.6183,-1.617,0.0,0.0,0.0,0.0,0.0,0.0,0.0,0.0,-1.1986,-1.1902,0.0,0.0,0.0,0.0,0.0,0.0,0.0,0.0,0.0,0.0,0.0,0.0,0.0,0.0,0.0,0.0,-3.618,-3.8278,-3.9005,-3.9106,-3.936,-4.0003,-4.007,-4.007,-4.007,-4.0155,-4.0493,-4.1153,-4.1356,-4.1728,-4.2388,0.0,0.0,0.0,0.0,-4.4587,-4.4587,-4.4587,-4.4587,-4.4587,-4.4587,-4.4181,-4.3348,-4.2016,-4.0557,-3.8975,-3.7521,-3.6414,-3.5619,-3.5619,-3.5619,-3.5619,-3.5504,-3.5504,-3.5504,-3.5504,-3.5504,-3.5504,-3.5504,0.0,0.0,-3.4696,-3.4427,-3.4128,-3.2886,-3.2467,-3.2273,-3.1704,-3.1482,-3.1482,-3.1482,-3.1482,-3.1317,-3.0761,-3.0148,-2.9505,-2.8861,-2.8173,-2.7446,-2.6683,-2.5906,-2.5175,-2.4452,-2.3649,-2.2915,-2.2472,-2.1933,-2.138,-2.0882,-2.0263,-1.9874,-1.9811,0.0,0.0,-1.9108,-1.9008,-1.8606,-1.7626,-1.7501,-1.7024,-1.6019,-1.5982,-1.5719,-1.521,-1.5463,-1.5255,-1.4623,-1.4924,-1.4797,-1.4116,-1.2588,-1.2471,0.0,0.0,0.0,0.0,0.0,0.0,0.0,0.0,0.0,0.0,0.0,0.0,0.0,0.0,0.0,-3.574,-3.7618,-3.9039,-3.9766,-3.9868,-3.9918,-4.0054,-4.007,-4.007,-4.007,-4.0629,-4.1052,-4.1187,-4.232,-4.3047,-4.32,-4.3944,0.0,-4.435,-4.4502,-4.4587,-4.4587,-4.4587,-4.4587,-4.4587,0.0,0.0,-4.3403,-4.3086,-4.1861,-3.9844,-3.8862,-3.7663,-3.6384,-3.6384,-3.6384,-3.6337,-3.5718,-3.5504,-3.5504,-3.5504,-3.5504,-3.5504,-3.5504,-3.5504,-3.5385,-3.4696,-3.4113,-3.3544,-3.2751,-3.2138,0.0,-3.1511,-3.1482,-3.1482,-3.1482,-3.1482,-3.1437,-3.136,-3.0806,-3.0163,-2.952,-2.8861,-2.8025,-2.677,-2.5906,-2.5175,-2.4452,-2.3649,-2.304,-2.2927,-2.251,-2.1945,-2.1393,-2.084,-2.0326,-1.9849,-1.9798,-1.9761,-1.966,-1.9271,-1.8883,-1.8719,-1.8292,-1.7953,-1.7727,-1.7727,-1.7668,-1.7529,-1.7015,-1.6471,-1.5831,-1.5339,-1.4961,-1.4648,-1.3955,-1.3769,0.0,0.0,0.0,0.0,0.0,0.0,0.0,0.0,0.0,0.0,0.0,-3.0857,0.0,0.0,-3.5707,-3.7584,-3.8819,-3.9665,-4.002,-4.007,-4.007,-4.007,-4.007,-4.007,-4.007,-4.0764,-4.1356,-4.1728,-4.2794,-4.3589,-4.3978,-4.4367,-4.4587,-4.4587,-4.4587,-4.4587,-4.4587,-4.4587,-4.4587,-4.4587,-4.4587,-4.4367,-4.3978,-4.3222,-4.2226,-4.1123,-3.9564,-3.846,-3.7736,-3.7345,-3.7203,-3.71,-3.6352,-3.5831,-3.5504,-3.5504,-3.5504,-3.5504,-3.5504,-3.5504,-3.5444,-3.51,-3.4771,-3.4307,-3.3305,-3.2781,-3.2377,-3.1719,-3.1482,-3.1482,-3.1482,-3.1482,-3.1482,-3.1482,-3.1001,-3.0328,-2.9714,-2.9071,-2.8068,-2.629,-2.5673,-2.5063,-2.3884,-2.3365,-2.3078,-2.3078,-2.2661,-2.2121,-2.1556,-2.1004,-2.0492,-1.9861,-1.9798,-1.9798,-1.9798,-1.9334,-1.8983,-1.8983,-1.8505,-1.8204,-1.8204,-1.8204,-1.8049,-1.775,-1.722,-1.6627,-1.6068,-1.5525,-1.5219,-1.5088,-1.4873,-1.4775,0.0,0.0,0.0,0.0,0.0,0.0,0.0,0.0,-3.1441,-3.2766,-3.3794,-3.4683,-3.5386,-3.6531,-3.7759,-3.902,-3.9698,-4.007,-4.007,-4.007,-4.007,-4.007,-4.007,-4.007,-4.007,-4.0899,-4.166,-4.2252,-4.3132,-4.3927,-4.4553,-4.4587,-4.4587,-4.4587,-4.4587,-4.4587,-4.4587,-4.4587,-4.4587,-4.4587,-4.4587,-4.4587,-4.4553,-4.3297,-4.2601,-4.2195,-3.9894,-3.8914,-3.8824,-3.8088,-3.7822,-3.769,-3.6904,-3.6165,-3.5504,-3.5504,-3.5504,-3.5504,-3.5504,-3.5504,-3.5504,-3.5504,-3.5415,-3.507,-3.3858,-3.341,-3.3051,-3.1869,-3.1482,-3.1482,-3.1482,-3.1482,-3.1482,-3.1482,-3.1106,-3.0492,-2.9744,-2.916,-2.8148,-2.6046,-2.5508,-2.4951,-2.359,-2.3198,-2.3078,-2.3078,-2.2761,-2.2272,-2.1719,-2.1167,-2.0602,-2.0037,-1.9874,-1.9798,-1.9798,-1.9409,-1.9183,-1.9183,-1.8756,-1.8518,-1.8518,-1.8518,-1.83,-1.7787,-1.7255,-1.6719,-1.6234,-1.5682,-1.541,-1.541,-1.541,-1.541,-2.2223,-2.3999,-2.6186,-2.8585,-2.9479,-3.1329,0.0,0.0,-3.6543,-3.8833,-3.906,-3.8942,-3.918,-3.934,-3.9571,-3.99,-4.002,-4.007,-4.007,-4.007,-4.007,-4.007,-4.007,-4.007,-4.007,-4.1339,-4.2202,-4.2286,-4.3639,-4.4485,-4.4587,-4.4587,-4.4587,-4.4587,-4.4587,-4.4587,-4.4587,-4.4587,-4.4587,-4.4587,-4.4587,-4.4587,-4.457,-4.4429,-4.358,-4.2142,-3.9901,-3.8914,-3.886,-3.8124,-3.7822,-3.769,-3.6904,-3.6165,-3.5504,-3.5504,-3.5504,-3.5504,-3.5504,-3.5504,-3.5504,-3.5504,-3.51,-3.4457,-3.3724,-3.308,-3.2482,-3.1676,-3.1482,-3.1482,-3.1482,-3.1482,-3.1482,-3.1482,-3.1422,-3.1091,-2.9849,-2.952,-2.8872,-2.6794,-2.5837,-2.5119,-2.4279,-2.3603,-2.3078,-2.3078,-2.3027,-2.2849,-2.2284,-2.1732,-2.1179,-2.068,-2.0112,-1.9798,-1.9798,-1.9748,-1.971,-1.971,-1.966,-1.9623,-1.9623,-1.9623,-1.9571,-1.9508,-1.8223,-1.7489,-1.739,-1.6053,-1.541,-1.541,-1.541,-1.541,-2.6738,0.0,0.0,0.0,-3.3982,-3.5862,-3.8579,-3.9241,-3.9577,-4.0727,-4.0921,-4.08,-4.0502,-4.0208,-4.001,0.0,-4.007,-4.007,-4.007,-4.007,-4.007,-4.007,-4.007,-4.007,-4.007,-4.1035,-4.183,-4.2252,-4.3284,-4.4096,-4.4553,-4.4587,-4.4587,-4.4587,-4.4587,-4.4587,-4.4587,-4.4587,-4.4587,-4.4587,-4.4587,-4.4587,-4.4587,-4.4587,-4.3741,-4.2252,-4.1275,-4.0397,-3.9558,-3.9279,-3.9119,-3.8995,-3.779,-3.7115,-3.6723,-3.5861,-3.5504,-3.5504,-3.5504,-3.5504,-3.5504,-3.5504,-3.531,-3.4876,-3.3814,-3.3305,-3.2871,-3.1824,-3.1482,-3.1482,-3.1482,-3.1482,-3.1482,-3.1482,-3.1482,-3.118,-2.9864,-2.9579,-2.9015,-2.6915,-2.5906,-2.5175,-2.4452,-2.3649,-2.3078,-2.3078,-2.3078,-2.2937,-2.2385,-2.2108,-2.1631,-2.0806,-2.015,-1.9798,-1.9798,-1.9798,-1.9798,-1.9798,-1.9798,-1.9798,-1.9798,-1.9798,-1.9798,-1.9798,-1.8768,-1.8015,-1.7578,-1.6528,-1.5806,-1.541,-1.541,-1.541,-2.951,0.0,0.0,-3.4962,-3.7386,-3.9423,-3.9643,-4.0665,-4.1575,-4.174,-4.1614,-4.1304,-4.0728,-4.0268,0.0,-3.9816,-3.9952,-4.007,-4.007,-4.007,-4.007,-4.007,-4.007,-4.007,-4.007,-4.0764,-4.1508,-4.2236,-4.298,-4.3758,-4.4536,-4.4587,-4.4587,-4.4587,-4.4587,-4.4587,-4.4587,-4.4587,-4.4587,-4.4587,-4.4587,-4.4587,-4.457,-4.435,-4.3656,-4.2574,-4.2168,-4.139,-4.0375,-4.0155,-3.9969,-3.961,-3.8318,-3.7632,-3.7279,-3.5958,-3.5504,-3.5504,-3.5504,-3.5504,-3.5504,-3.5504,-3.5504,-3.525,-3.3903,-3.3499,-3.3215,-3.1898,-3.1482,-3.1482,-3.1482,-3.1482,-3.1482,-3.1482,-3.1482,-3.118,-2.9864,-2.9579,-2.9068,-2.7193,-2.6054,-2.5231,-2.4681,-2.3767,-2.3078,-2.3078,-2.3078,-2.2987,-2.2585,-2.2272,-2.1719,-2.0819,-2.015,-1.9798,-1.9798,-1.9798,-1.9798,-1.9798,-1.9798,-1.9798,-1.9798,-1.9798,-1.9798,-1.9798,-1.9097,-1.8328,-1.7578,-1.6866,-1.6151,-1.541,-1.541,-1.5478,0.0,0.0,-3.5119,-3.6046,-3.867,-4.124,-4.2011,-4.2432,-4.2639,-4.2657,-4.1618,-4.0535,-3.9946,-3.9829,-3.9635,-3.9103,-3.9614,-4.007,-4.007,-4.007,-4.007,-4.007,-4.007,-4.007,0.0,-4.0764,-4.1508,-4.2236,-4.298,-4.3758,-4.4536,-4.4587,-4.4587,-4.4587,-4.4587,-4.4587,-4.4587,-4.4587,-4.4587,-4.4587,-4.4587,-4.4587,-4.4553,-4.3792,-4.342,-4.3301,-4.1863,-4.1221,-4.1119,-4.0375,-3.9662,-3.8854,-3.8092,-3.7338,-3.6554,-3.5782,-3.5504,-3.5504,-3.5504,-3.5504,-3.5504,-3.5504,-3.5504,-3.525,-3.3903,-3.3499,-3.3215,-3.1898,-3.1482,-3.1482,-3.1482,-3.1482,-3.1482,-3.1482,-3.1482,-3.118,-2.9864,-2.9579,-2.919,-2.7829,-2.6375,-2.5398,-2.5342,-2.4105,-2.3078,-2.3078,-2.3078,-2.3065,-2.3053,-2.2171,-2.1292,-2.0781,-2.015,-1.9798,-1.9798,-1.9798,-1.9798,-1.9798,-1.9798,-1.9798,-1.9798,-1.9798,-1.9798,-1.9798,-1.9097,-1.8328,-1.7578,-1.6866,-1.6151,-1.541,-1.541,-1.5635,0.0,0.0,-3.711,-3.9019,-4.0708,-4.2001,-4.2468,-4.2905,-4.2887,-4.1644,-4.0615,-3.964,-3.8546,-3.8074,-3.7933,-3.8241,-3.8886,-3.9529,-4.0003,-4.007,-4.007,-4.007,-4.007,0.0,0.0,0.0,0.0,-4.1508,-4.2252,-4.2997,-4.3775,-4.4299,-4.4587,-4.4587,-4.4587,-4.4587,-4.4587,-4.4587,-4.4587,-4.4587,-4.4587,-4.4587,-4.457,-4.4316,-4.3639,-4.2642,-4.2151,-4.1356,-4.0443,-4.0189,-3.9952,-3.961,-3.8816,-3.8076,-3.7279,-3.6523,-3.5958,-3.5504,-3.5504,-3.5504,-3.5504,-3.5504,-3.5504,-3.525,-3.3903,-3.3499,-3.3215,-3.1898,-3.1482,-3.1482,-3.1482,-3.1482,-3.1482,-3.1482,-3.1482,-3.1228,-3.0387,-3.0193,-2.9804,-2.8502,-2.7075,-2.5924,-2.5467,-2.4092,-2.3078,-2.3078,-2.3078,-2.3078,-2.3078,-2.2485,-2.1832,-2.128,-2.0702,-2.0225,-1.9836,-1.9798,-1.9798,-1.9798,-1.9798,-1.9798,-1.9798,-1.9798,-1.9798,-1.9798,-1.9579,-1.8821,-1.7578,-1.7357,-1.6585,-1.541,-1.541,-1.5644,0.0,-3.7092,-3.8854,-4.1001,-4.2139,-4.2713,-4.2578,-4.2541,-4.1993,-4.0242,-3.8778,-3.7492,-3.6646,-3.6017,-3.5994,-3.7297,-3.8125,-3.9039,-4.0307,-4.0257,-4.0273,-4.0798,-4.0646,0.0,0.0,0.0,0.0,-4.1559,-4.2286,-4.3031,-4.3792,-4.4316,-4.4587,-4.4587,-4.4587,-4.4587,-4.4587,-4.4587,-4.4587,-4.4587,-4.4587,-4.4587,-4.457,-4.4282,-4.3623,-4.2658,-4.2134,-4.1356,-4.046,-4.0189,-4.007,-4.002,-3.9193,-3.8469,-3.769,-3.6904,-3.6102,-3.5504,-3.5504,-3.5504,-3.5504,-3.5504,-3.5504,-3.525,-3.3903,-3.3499,-3.3215,-3.1898,-3.1482,-3.1482,-3.1482,-3.1482,-3.1482,-3.1482,-3.1482,-3.1345,-3.0657,-3.0507,-3.0118,-2.8846,-2.7391,-2.6173,-2.5508,-2.4092,-2.3078,-2.3078,-2.3078,-2.3078,-2.3078,-2.2648,-2.2171,-2.182,-2.1292,-2.0727,-2.0162,-2.0112,-2.0112,-2.0112,-2.0112,-2.0112,-2.0112,-2.0112,-2.0012,-1.9798,-1.9798,-1.9202,-1.8004,-1.7743,-1.7135,-1.6197,-1.5791,-1.6049,-3.6897,-3.875,-4.0345,-4.1941,-4.2928,-4.3277,-4.2402,-4.1394,-4.0157,-3.85,-3.6121,-3.4278,0.0,0.0,-3.4015,-3.6248,-3.733,-3.8684,-4.0899,-4.0595,-4.0679,0.0,0.0,0.0,0.0,0.0,0.0,-4.2354,0.0,-4.3741,-4.4485,-4.4553,-4.4587,-4.4587,-4.4587,-4.4587,-4.4587,-4.4587,-4.4587,-4.4587,-4.4587,-4.4587,-4.4553,-4.3775,-4.3403,-4.3284,-4.183,-4.1187,-4.1085,-4.0375,-4.007,-4.002,-3.9262,-3.8525,-3.7748,-3.6964,-3.6165,-3.5554,-3.5504,-3.5504,-3.5504,-3.5504,-3.5504,-3.5265,-3.3948,-3.3529,-3.323,-3.1943,-3.1497,-3.1482,-3.1482,-3.1482,-3.1482,-3.1482,-3.1482,-3.136,-3.0702,-3.0552,-3.0178,-2.8906,-2.7446,-2.6188,-2.5439,-2.4163,-2.3138,-2.3138,-2.3078,-2.3078,-2.3078,-2.2673,-2.2347,-2.2309,-2.1845,-2.1305,-2.0806,-2.0756,-2.0756,-2.0756,-2.0756,-2.0756,-2.0756,-2.0731,-2.0401,-1.9861,-1.9823,-1.9423,-1.8715,-1.8015,-1.7633,-1.7589,-1.6601,-1.6769,-3.7855,-3.9786,-4.1289,-4.234,-4.3068,-4.3066,-4.1477,-4.038,-3.8723,-3.5348,-3.3141,-3.1315,-2.9776,0.0,0.0,-3.3998,-3.6315,0.0,-4.0899,-4.1035,0.0,0.0,0.0,-4.2083,-4.2269,-4.2811,0.0,0.0,-4.3301,-4.3504,-4.3707,-4.4265,-4.4587,-4.4587,-4.4587,-4.4587,-4.4587,-4.4587,-4.4587,-4.4587,-4.4587,-4.4587,-4.4553,-4.3775,-4.3115,-4.2523,-4.161,-4.0882,-4.0358,-4.0155,-4.007,-4.007,-3.9885,-3.9315,-3.8525,-3.779,-3.698,-3.6212,-3.5668,-3.5504,-3.5504,-3.5504,-3.5504,-3.534,-3.4487,-3.3888,-3.332,-3.2497,-3.1913,-3.1482,-3.1482,-3.1482,-3.1482,-3.1482,-3.1482,-3.1422,-3.13,-3.127,-3.0881,-2.9579,-2.7798,-2.6089,-2.4821,-2.4221,-2.3767,-2.3198,-2.3078,-2.3078,-2.3078,-2.2952,-2.2761,-2.2347,-2.2184,-2.1882,-2.133,-2.128,-2.128,-2.128,-2.128,-2.128,-2.128,-2.0891,-2.0655,-2.0451,-2.0024,-1.9423,-1.8715,-1.8501,-1.8124,-1.7589,-1.7127,-1.7603,-3.9641,-4.1395,-4.245,-4.2941,-4.303,-4.2315,-3.9842,-3.8312,-3.6273,-3.2332,-3.0196,0.0,0.0,0.0,0.0,0.0,0.0,0.0,-4.0358,-4.1001,-4.1593,0.0,-4.2777,0.0,-4.3267,-4.3673,-4.3927,0.0,-4.3927,-4.3927,-4.3927,-4.4333,-4.4587,-4.4587,-4.4587,-4.4587,-4.4587,-4.4587,-4.4587,-4.4587,-4.4587,-4.4401,-4.4045,-4.3267,-4.2506,-4.1779,0.0,-4.046,-4.007,-4.007,-4.007,-4.007,-4.007,-3.961,-3.8799,-3.8092,-3.7279,-3.6492,-3.5782,-3.5504,-3.5504,-3.5504,-3.5504,-3.537,-3.4681,-3.4023,-3.3365,-3.2706,-3.2048,-3.1482,-3.1482,-3.1482,-3.1482,-3.1482,-3.1482,-3.1482,-3.1482,-3.1482,-3.1021,-2.9389,-2.7414,-2.5673,-2.4509,-2.4002,-2.359,-2.3198,-2.3078,-2.3078,-2.3078,-2.3078,-2.2952,-2.2711,-2.2673,-2.2447,-2.1895,-2.1845,-2.1845,-2.1845,-2.1845,-2.1845,-2.1845,-2.133,-2.097,-2.0718,-2.01,-1.9592,-1.9202,-1.8886,-1.8619,-1.8359,-1.7776,-1.813,-4.15,-4.279,-4.341,-4.341,-4.2766,-4.1332,-3.8114,-3.5937,-3.3446,-2.9508,0.0,0.0,-2.6133,0.0,-2.8653,-3.1647,0.0,-3.6705,-3.98,-4.0882,-4.1863,-4.325,-4.3504,-4.3842,-4.4519,-4.4587,-4.4587,-4.4587,-4.4587,-4.4587,-4.4587,-4.4587,-4.4587,-4.4587,-4.4587,-4.4587,-4.4587,-4.4587,-4.4587,-4.4587,-4.4468,-4.4079,-4.3386,-4.254,-4.1813,-4.117,0.0,0.0,-4.007,-4.007,-4.007,-4.007,-4.007,-3.9662,-3.8978,-3.8189,-3.744,-3.6676,-3.5894,-3.5554,-3.5504,-3.5504,-3.5504,-3.5385,-3.4801,-3.4083,-3.338,-3.2811,-3.2108,-3.1482,-3.1482,-3.1482,-3.1482,-3.1482,-3.1482,-3.1482,-3.1482,-3.1405,-3.0741,-2.8924,-2.7001,-2.5453,-2.4567,-2.3884,-2.3365,-2.3138,-2.3078,-2.3078,-2.3078,-2.3078,-2.3078,-2.3078,-2.3078,-2.2937,-2.246,-2.2422,-2.2422,-2.2422,-2.2422,-2.2422,-2.2422,-2.1895,-2.138,-2.0891,-2.025,-1.9911,-1.9911,-1.9081,-1.8898,-1.9306,-1.837,-1.8606,-4.1385,-4.2354,-4.2826,-4.2826,-4.2049,-4.0518,-3.7533,-3.4433,0.0,0.0,0.0,-2.3782,-2.319,-2.5169,0.0,-3.0886,0.0,0.0,0.0,0.0,-4.2439,0.0,0.0,0.0,0.0,0.0,0.0,0.0,0.0,0.0,-4.4587,-4.4587,-4.4587,-4.4587,-4.4587,-4.4587,-4.4587,-4.4587,-4.4587,-4.457,-4.3927,-4.3555,-4.3369,-4.2016,-4.1322,-4.117,0.0,0.0,-4.007,-4.007,-4.007,-4.007,-4.007,-4.002,-3.9782,-3.8978,-3.8246,-3.7456,-3.6676,-3.6006,-3.5504,-3.5504,-3.5504,-3.5489,-3.537,-3.4472,-3.3469,-3.3365,-3.2452,-3.1482,-3.1482,-3.1482,-3.1482,-3.1482,-3.1482,-3.1482,-3.1482,-3.0687,-2.9849,-2.9431,-2.821,-2.6811,-2.5453,-2.5063,-2.4553,-2.3305,-2.3078,-2.3078,-2.3078,-2.3078,-2.3078,-2.3078,-2.3078,-2.3027,-2.294,-2.2927,-2.2927,-2.2927,-2.2927,-2.2927,-2.2927,-2.246,-2.2121,-2.2033,-2.1029,-2.0514,-2.0514,-1.9315,-1.8762,-1.8815,-1.886,-1.9395,-4.1573,-4.2557,-4.3142,-4.3142,-4.1787,-3.9511,-3.5828,0.0,0.0,0.0,0.0,-2.2733,-2.2378,0.0,0.0,0.0,0.0,0.0,0.0,0.0,0.0,0.0,0.0,0.0,0.0,0.0,0.0,0.0,0.0,0.0,-4.4587,-4.4587,-4.4587,-4.4587,-4.4587,-4.4587,-4.4587,-4.4587,-4.4587,-4.457,-4.3792,-4.3217,-4.2794,-4.1711,-4.0984,-4.0595,-4.024,0.0,-4.007,-4.007,-4.007,-4.007,-4.007,-4.007,-3.9969,-3.8761,-3.8092,-3.7648,-3.6415,-3.5782,-3.5504,-3.5504,-3.5504,-3.5504,-3.5504,-3.4562,-3.3499,-3.3499,-3.2542,-3.1482,-3.1482,-3.1482,-3.1482,-3.1482,-3.1482,-3.1482,-3.1482,-3.0507,-2.9579,-2.9579,-2.8225,-2.6654,-2.5563,-2.5063,-2.4439,-2.3245,-2.3078,-2.3078,-2.3078,-2.3078,-2.3078,-2.3078,-2.3078,-2.3078,-2.3078,-2.3078,-2.3078,-2.3078,-2.3078,-2.3078,-2.3078,-2.2611,-2.2309,-2.2309,-2.1087,-2.0312,-2.0153,-1.9042,-1.8293,-1.7924,-1.8054,-1.8463,-4.1414,-4.2717,-4.3442,-4.3137,-4.1339,-3.8499,-3.4157,-3.1006,0.0,0.0,0.0,-2.231,-2.231,0.0,0.0,0.0,0.0,0.0,0.0,0.0,0.0,0.0,0.0,0.0,0.0,0.0,0.0,0.0,0.0,0.0,-4.4587,-4.4587,-4.4587,-4.4587,-4.4587,-4.4587,-4.4587,-4.4418,-4.4333,-4.4316,-4.3386,-4.2642,-4.2033,-4.1305,-4.0646,-4.007,-4.007,0.0,0.0,-4.007,-4.007,-4.007,-4.007,-4.007,-3.9952,-3.8723,-3.8092,-3.7648,-3.643,-3.5797,-3.5504,-3.5504,-3.5504,-3.5504,-3.5504,-3.4562,-3.3499,-3.3499,-3.2542,-3.1482,-3.1482,-3.1482,-3.1482,-3.1482,-3.1482,-3.1482,-3.1482,-3.0612,-2.9744,-2.9609,-2.8169,-2.6615,-2.5591,-2.4894,-2.4221,-2.3245,-2.3078,-2.3078,-2.3078,-2.3078,-2.3078,-2.3078,-2.3078,-2.3078,-2.3078,-2.3078,-2.3078,-2.3078,-2.3078,-2.3078,-2.3078,-2.2723,-2.2485,-2.2485,-2.1088,-2.0318,-2.0149,-1.8816,-1.8017,-1.7626,-1.7543,-1.7725,-4.0477,-4.21,-4.3173,-4.1923,-4.0175,-3.7674,-3.331,0.0,0.0,0.0,-2.2535,-2.231,-2.231,-2.297,0.0,0.0,0.0,0.0,0.0,0.0,0.0,0.0,0.0,0.0,0.0,0.0,0.0,0.0,0.0,0.0,0.0,-4.4587,-4.4587,-4.4587,-4.4587,-4.4587,-4.4587,-4.3876,-4.3521,-4.3504,-4.2083,-4.1373,-4.1288,-4.0527,-4.0138,-4.007,0.0,0.0,0.0,-4.007,-4.007,-4.007,-4.007,-4.007,-4.007,-3.9952,-3.8995,-3.7764,-3.7648,-3.6662,-3.5504,-3.5504,-3.5504,-3.5504,-3.5504,-3.4562,-3.3499,-3.3499,-3.2542,-3.1482,-3.1482,-3.1482,-3.1482,-3.1482,-3.1482,-3.1482,-3.1482,-3.0941,-3.0253,-2.9684,-2.8943,-2.7753,-2.5771,-2.5342,-2.4781,-2.3305,-2.3078,-2.3078,-2.3078,-2.3078,-2.3078,-2.3078,-2.3078,-2.3078,-2.3078,-2.3078,-2.3078,-2.3078,-2.3078,-2.3078,-2.3078,-2.3027,-2.3002,-2.3002,-2.1632,-2.1283,-2.2043,-1.9197,-1.8216,-1.8937,-1.8582,-1.8501,-3.8974,-4.0717,-4.1674,-4.1117,-3.903,-3.6103,-3.2289,0.0,0.0,-2.312,-2.2377,-2.231,-2.231,-2.2547,-2.3274,0.0,-2.6031,-2.7977,0.0,0.0,0.0,0.0,0.0,0.0,0.0,0.0,0.0,0.0,0.0,0.0,0.0,-4.4333,-4.4367,-4.3893,-4.3876,-4.3656,-4.32,-4.2895,-4.2743,-4.2726,-4.1694,-4.1204,-4.117,-4.0426,-4.007,-4.007,0.0,0.0,0.0,-4.007,-4.007,-4.007,-4.007,-4.007,-4.002,-3.9558,-3.8978,-3.8358,-3.7381,-3.6692,-3.6041,-3.5187,-3.4891,-3.4966,-3.5385,-3.4562,-3.3499,-3.3499,-3.2542,-3.1482,-3.1482,-3.1482,-3.1482,-3.1482,-3.1482,-3.1482,-3.1482,-3.0702,-2.9879,-2.9624,-2.8712,-2.7447,-2.5715,-2.5398,-2.4894,-2.3305,-2.3078,-2.3078,-2.3078,-2.3078,-2.3078,-2.3078,-2.3078,-2.3078,-2.3078,-2.3078,-2.3078,-2.3078,-2.3078,-2.3078,-2.3078,-2.3078,-2.3078,-2.3078,-2.2104,-2.1329,-2.0828,-1.9095,-1.8072,-1.7626,-1.7509,-1.7473,-3.704,-3.8943,-3.9939,-3.9547,-3.7521,-3.4712,0.0,0.0,-2.5536,-2.2836,-2.231,-2.231,-2.231,-2.231,-2.2547,-2.3274,-2.4188,-2.5947,-2.9178,0.0,0.0,0.0,0.0,0.0,0.0,0.0,0.0,0.0,0.0,0.0,0.0,-4.3606,-4.3656,-4.3098,-4.3081,-4.2828,-4.2303,-4.2066,-4.1965,-4.1965,-4.1221,-4.0865,-4.0849,-4.0324,-4.007,-4.007,0.0,0.0,0.0,-4.007,-4.007,-4.007,-4.007,-4.007,-4.002,-3.9489,-3.9086,-3.8728,-3.7424,-3.6783,-3.6415,-3.5208,-3.4637,-3.4562,-3.5055,-3.4262,-3.32,-3.32,-3.2392,-3.1482,-3.1482,-3.1482,-3.1482,-3.1482,-3.1482,-3.1482,-3.1482,-3.0657,-2.9804,-2.9609,-2.8652,-2.7373,-2.5701,-2.5398,-2.4894,-2.3305,-2.3078,-2.3078,-2.3078,-2.3078,-2.3078,-2.3078,-2.3078,-2.3078,-2.3078,-2.3078,-2.3078,-2.3078,-2.3078,-2.3078,-2.3078,-2.3078,-2.3078,-2.3078,-2.2322,-2.1564,-2.0807,-1.9497,-1.8466,-1.7849,-1.7293,-1.7109,-3.4727,-3.6882,-3.8199,-3.6806,-3.5668,-3.3792,0.0,-2.7439,-2.5536,-2.2836,-2.231,-2.231,-2.231,-2.231,-2.2547,-2.3274,-2.4628,-2.6911,0.0,0.0,0.0,0.0,0.0,0.0,0.0,0.0,0.0,0.0,0.0,0.0,0.0,-4.2303,-4.2303,-4.2303,-4.2303,-4.2303,-4.2286,-4.1576,-4.1221,-4.1204,-4.0443,-4.0087,-4.0087,-4.007,-4.007,0.0,0.0,0.0,0.0,-4.007,-4.007,-4.007,-4.007,-4.007,-4.007,-4.007,-3.9594,-3.8799,-3.8035,-3.7279,-3.6508,-3.5718,-3.504,-3.4472,-3.4487,-3.3559,-3.2527,-3.2527,-3.2048,-3.1482,-3.1482,-3.1482,-3.1482,-3.1482,-3.1482,-3.1482,-3.1482,-3.0986,-3.0313,-2.9699,-2.9041,-2.7918,-2.5785,-2.5398,-2.4894,-2.3305,-2.3078,-2.3078,-2.3078,-2.3078,-2.3078,-2.3078,-2.3078,-2.3078,-2.3078,-2.3078,-2.3078,-2.3078,-2.3078,-2.3078,-2.3078,-2.3078,-2.3078,-2.3078,-2.2322,-2.2322,-2.3065,-2.0504,-1.9748,-2.0515,-1.8767,-1.7998,-3.0716,-3.2063,-3.2638,-3.22,-3.1065,-2.9438,-2.7074,-2.5384,-2.3938,-2.2575,-2.231,-2.231,-2.231,-2.231,-2.2723,-2.4001,-2.504,0.0,0.0,0.0,0.0,0.0,0.0,0.0,0.0,0.0,0.0,0.0,0.0,0.0,0.0,-4.1542,-4.1542,-4.1542,-4.1542,-4.1305,-4.0781,-4.0544,-4.0443,-4.0443,-4.0189,-4.007,-4.007,-4.007,0.0,0.0,0.0,0.0,0.0,-4.007,-4.007,-4.007,-4.007,-4.007,-4.007,-4.007,-3.9952,-3.961,-3.8799,-3.8076,-3.7121,-3.5473,-3.4455,-3.3649,-3.2736,-3.2482,-3.2422,-3.1973,-3.1631,-3.1482,-3.1482,-3.1482,-3.1482,-3.1482,-3.1482,-3.1482,-3.1482,-3.0657,-2.9819,-2.9624,-2.8667,-2.7388,-2.5701,-2.5398,-2.4894,-2.3305,-2.3078,-2.3078,-2.3078,-2.3078,-2.3078,-2.3078,-2.3078,-2.3078,-2.3078,-2.3078,-2.3078,-2.3078,-2.3078,-2.3078,-2.3078,-2.3078,-2.3078,-2.3078,-2.2823,-2.2567,-2.2261,-2.0846,-1.9694,-1.8787,-1.8269,-1.8008,0.0,-2.8868,-2.9245,-2.9245,-2.8315,-2.7012,-2.5524,-2.4255,-2.319,-2.2462,-2.231,-2.231,-2.231,-2.231,-2.2576,-2.3342,0.0,0.0,0.0,0.0,0.0,0.0,0.0,0.0,0.0,0.0,0.0,0.0,0.0,0.0,0.0,0.0,-4.0781,-4.0781,-4.0781,-4.0544,-4.007,-4.007,-4.007,-4.007,-4.007,-4.007,-4.007,-4.007,0.0,0.0,0.0,0.0,0.0,-4.007,-4.007,-4.007,-4.007,-4.007,-4.007,-4.007,-4.007,-3.9952,-3.9193,-3.8235,-3.7148,-3.556,-3.4149,-3.2931,-3.1854,-3.1824,-3.2063,-3.1644,-3.1482,-3.1482,-3.1482,-3.1482,-3.1482,-3.1482,-3.1482,-3.1407,-3.121,-3.0313,-2.9505,-2.9265,-2.8099,-2.6811,-2.5618,-2.5175,-2.4553,-2.3305,-2.3078,-2.3078,-2.3078,-2.3078,-2.3078,-2.3078,-2.3078,-2.3078,-2.3078,-2.3078,-2.3078,-2.3078,-2.3078,-2.3078,-2.3078,-2.3078,-2.3078,-2.3078,-2.3078,-2.2884,-2.2384,-2.1164,-1.9683,-1.8008,-1.8008,-1.8008,0.0,-2.681,-2.7333,-2.7384,-2.6894,-2.6015,-2.4675,-2.3799,0.0,-2.2446,-2.231,-2.2344,-2.2446,-2.2412,-2.2303,-2.2057,0.0,0.0,0.0,0.0,0.0,0.0,0.0,0.0,0.0,0.0,0.0,0.0,0.0,0.0,0.0,0.0,-4.007,-4.007,-4.007,-4.007,-4.007,-4.007,-4.007,-4.007,-4.007,-4.007,-4.007,-4.007,0.0,0.0,0.0,0.0,0.0,-4.007,-4.007,-4.007,-4.007,-4.007,-4.007,-4.007,-4.007,-4.0003,-3.9196,-3.8003,-3.6646,-3.5705,-3.4013,-3.2332,-3.1719,-3.1482,-3.1482,-3.1482,-3.1482,-3.1482,-3.1482,-3.1482,-3.1482,-3.1482,-3.1437,-3.1285,-3.0642,-2.9983,-2.9325,-2.8727,-2.7451,-2.6283,-2.5508,-2.4794,-2.4002,-2.3185,-2.3078,-2.3078,-2.3078,-2.3078,-2.3078,-2.3078,-2.3078,-2.3078,-2.3078,-2.3078,-2.3078,-2.3078,-2.3078,-2.3078,-2.3078,-2.3078,-2.3078,-2.3078,-2.3078,-2.3065,-2.2944,-2.1353,-1.9683,-1.8008,-1.7978,-1.7978,-2.204,0.0,-2.2885,-2.346,-2.3477,-2.3241,0.0,-2.2682,-2.2513,0.0,0.0,-2.2649,-2.3765,-2.3511,-2.3727,0.0,0.0,0.0,0.0,0.0,0.0,0.0,0.0,0.0,0.0,0.0,0.0,0.0,0.0,0.0,0.0,0.0,-4.007,-4.007,-4.007,-4.007,-4.007,-4.007,-4.007,-4.007,-4.007,-4.007,-4.007,-4.007,0.0,0.0,0.0,0.0,-4.007,-4.007,-4.007,-4.007,-4.007,-4.007,-4.007,-4.007,-4.007,-3.9986,-3.9261,-3.8038,-3.643,-3.4007,-3.2526,-3.1734,-3.1526,-3.1482,-3.1482,-3.1482,-3.1482,-3.1482,-3.1482,-3.1482,-3.1482,-3.1482,-3.1135,-3.0702,-3.0537,-2.9624,-2.8786,-2.8622,-2.7451,-2.6283,-2.5508,-2.4794,-2.4002,-2.3185,-2.3078,-2.3078,-2.3078,-2.3078,-2.3078,-2.3078,-2.3078,-2.3078,-2.3078,-2.3078,-2.3078,-2.3078,-2.3078,-2.3078,-2.3078,-2.3078,-2.3078,-2.3078,-2.3078,-2.2494,-2.1164,-2.0782,-1.9683,-1.8008,-1.7676,-1.7705,-1.9925,-2.1143,-2.2378,-2.3122,-2.3308,-2.3308,-2.3308,0.0,0.0,0.0,0.0,0.0,-2.3782,0.0,0.0,0.0,0.0,0.0,0.0,0.0,0.0,0.0,0.0,0.0,0.0,0.0,0.0,0.0,0.0,0.0,0.0,0.0,-4.007,-4.007,-4.007,-4.007,-4.007,-4.007,-4.007,-4.007,-4.007,-4.007,-4.007,-4.007,-4.007,0.0,0.0,0.0,-4.007,-4.007,-4.007,-4.007,-4.007,-4.007,-4.007,-4.007,-3.9868,-3.9462,-3.8807,-3.7147,-3.4989,-3.2758,-3.1824,-3.1482,-3.1482,-3.1482,-3.1482,-3.1482,-3.1482,-3.1482,-3.1482,-3.1482,-3.1482,-3.1482,-3.1001,-3.0417,-3.0148,-2.9295,-2.8502,-2.8188,-2.6953,-2.5837,-2.5453,-2.4496,-2.359,-2.3198,-2.3078,-2.3078,-2.3078,-2.3078,-2.3078,-2.3078,-2.3078,-2.3078,-2.3078,-2.3078,-2.3078,-2.3078,-2.3078,-2.3078,-2.3078,-2.3078,-2.3078,-2.3078,-2.3078,-2.231,-2.059,-2.0355,-1.9469,-1.7998,-1.7373,-1.7412,-1.8978,-2.1363,-2.363,-2.393,-2.4184,-2.432,-2.4201,0.0,0.0,0.0,0.0,0.0,0.0,0.0,0.0,0.0,0.0,0.0,0.0,0.0,0.0,0.0,0.0,0.0,0.0,0.0,0.0,0.0,0.0,0.0,0.0,0.0,0.0,-3.9901,-3.9799,-3.9731,-3.9731,-3.9952,-4.007,-4.007,-4.007,-4.007,-4.007,-4.007,-4.007,0.0,0.0,0.0,-4.007,-4.007,-4.007,-4.007,-4.007,-4.0003,-3.9918,-3.9918,-3.9462,-3.8704,-3.7814,-3.576,-3.329,-3.192,-3.1482,-3.1482,-3.1482,-3.1482,-3.1482,-3.1482,-3.1482,-3.1482,-3.1482,-3.1482,-3.1482,-3.1482,-3.0941,-3.0223,-2.9699,-2.8981,-2.8263,-2.7679,-2.6428,-2.5398,-2.5398,-2.4092,-2.3078,-2.3078,-2.3078,-2.3078,-2.3078,-2.3078,-2.3078,-2.3078,-2.3078,-2.3078,-2.3078,-2.3078,-2.3078,-2.3078,-2.3078,-2.3078,-2.3078,-2.3078,-2.3078,-2.3078,-2.3078,-2.231,-2.059,-2.0228,-1.9297,-1.7988,-1.7197,-1.7217,-2.0281,-2.2558,-2.3913,-2.2169,-2.2632,-2.341,-2.2784,0.0,0.0,0.0,0.0,0.0,0.0,0.0,0.0,0.0,0.0,0.0,0.0,0.0,0.0,0.0,0.0,0.0,0.0,0.0,0.0,0.0,0.0,0.0,0.0,0.0,0.0,-3.9086,-3.8486,-3.8149,-3.8149,-3.9454,-4.007,-4.007,-4.007,-4.007,-4.007,-4.007,-4.007,0.0,0.0,-4.007,-4.007,-4.007,-4.007,-4.007,-4.007,-3.9698,-3.9157,-3.9157,-3.87,-3.7812,-3.5883,-3.4143,-3.2616,-3.1769,-3.1482,-3.1482,-3.1482,-3.1482,-3.1482,-3.1482,-3.1482,-3.1482,-3.1482,-3.1482,-3.1482,-3.1482,-3.0612,-2.9699,-2.9609,-2.8607,-2.7694,-2.764,-2.6428,-2.5398,-2.5398,-2.4092,-2.3078,-2.3078,-2.3078,-2.3078,-2.3078,-2.3078,-2.3078,-2.3078,-2.3078,-2.3078,-2.3078,-2.3078,-2.3078,-2.3078,-2.3078,-2.3078,-2.3078,-2.3078,-2.3078,-2.3078,-2.3078,-2.231,-2.059,-2.0512,-1.9619,-1.7998,-1.751,-1.7353,-1.908,-2.0991,-2.2575,-2.1938,-2.412,-2.6218,-2.5456,0.0,0.0,0.0,0.0,0.0,0.0,0.0,0.0,0.0,0.0,0.0,0.0,0.0,0.0,0.0,0.0,0.0,0.0,0.0,0.0,0.0,0.0,0.0,0.0,0.0,0.0,0.0,-3.7978,-3.7822,-3.7822,-3.8486,-3.9049,-3.9437,-3.9437,-3.9662,-4.007,-4.007,-4.007,-4.007,0.0,-4.007,-4.007,-4.007,-4.007,-4.0037,-3.9648,-3.9292,-3.8886,-3.8091,-3.7101,-3.5956,-3.4594,-3.3199,-3.1951,-3.1582,-3.1482,-3.1482,-3.1482,-3.1482,-3.1482,-3.1482,-3.1482,-3.1482,-3.1482,-3.1482,-3.1377,-3.1061,-3.0253,-2.949,-2.9131,-2.8278,-2.7625,-2.7625,-2.6707,-2.5837,-2.5453,-2.4496,-2.359,-2.3198,-2.3078,-2.3078,-2.3078,-2.3078,-2.3078,-2.3078,-2.3078,-2.3078,-2.3078,-2.3078,-2.3078,-2.3078,-2.3078,-2.3078,-2.3078,-2.3078,-2.3078,-2.3078,-2.3078,-2.236,-2.0811,-2.0438,-1.9423,-1.787,-1.7303,-1.7031,-1.8211,-1.9858,-2.1617,-2.2378,0.0,-2.7706,-2.7755,0.0,0.0,0.0,0.0,0.0,0.0,0.0,0.0,0.0,0.0,0.0,0.0,0.0,0.0,0.0,0.0,0.0,0.0,0.0,0.0,0.0,0.0,0.0,0.0,0.0,0.0,0.0,-3.7354,-3.7235,-3.7235,-3.7235,-3.7748,-3.8635,-3.8635,-3.8978,-3.9575,-3.9731,-3.9833,-3.9833,-4.002,-4.007,-4.007,-3.9884,-3.9817,-3.9749,-3.9022,-3.8633,-3.8311,-3.6992,-3.5661,-3.437,-3.3774,-3.2664,-3.1482,-3.1482,-3.1482,-3.1482,-3.1482,-3.1482,-3.1482,-3.1482,-3.1482,-3.1482,-3.1482,-3.1482,-3.1405,-3.0866,-3.0148,-2.9445,-2.8951,-2.8158,-2.7625,-2.7625,-2.6878,-2.6068,-2.5508,-2.461,-2.3826,-2.3185,-2.3078,-2.3078,-2.3078,-2.3078,-2.3078,-2.3078,-2.3078,-2.3078,-2.3078,-2.3078,-2.3078,-2.3078,-2.3078,-2.3078,-2.3078,-2.2952,-2.2877,-2.2877,-2.2811,-2.2098,-2.0819,-2.0099,-1.9054,-1.7791,-1.7024,-1.668,-1.9461,-2.1025,-2.2412,-2.3139,0.0,0.0,-2.7181,-2.7232,0.0,0.0,0.0,0.0,0.0,0.0,0.0,0.0,0.0,0.0,0.0,0.0,0.0,0.0,0.0,0.0,0.0,0.0,0.0,0.0,0.0,0.0,0.0,0.0,0.0,0.0,0.0,-3.5683,-3.5683,-3.5683,-3.643,-3.7863,-3.7863,-3.7921,-3.7978,-3.869,-3.8978,-3.9032,-3.9782,-4.007,-4.002,-3.9343,-3.9073,-3.9005,-3.8278,-3.755,-3.684,-3.6011,-3.4835,-3.3662,-3.3598,-3.2664,-3.1482,-3.1482,-3.1482,-3.1482,-3.1482,-3.1482,-3.1482,-3.1482,-3.1482,-3.1482,-3.1482,-3.1482,-3.1467,-3.1422,-3.0492,-2.9564,-2.952,-2.8487,-2.7625,-2.7625,-2.6428,-2.5453,-2.5398,-2.415,-2.3198,-2.3138,-2.3078,-2.3078,-2.3078,-2.3078,-2.3078,-2.3078,-2.3078,-2.3078,-2.3078,-2.3078,-2.3078,-2.3078,-2.3078,-2.3078,-2.3078,-2.2636,-2.2372,-2.2372,-2.187,-2.1161,-2.0286,-1.9513,-1.8665,-1.7791,-1.7024,-1.6514,-1.8464,-2.0433,-2.2496,-2.3224,0.0,0.0,0.0,0.0,0.0,0.0,0.0,0.0,0.0,0.0,0.0,0.0,0.0,0.0,0.0,0.0,0.0,0.0,0.0,0.0,0.0,0.0,0.0,0.0,0.0,0.0,0.0,0.0,0.0,0.0,0.0,-3.5504,-3.5504,-3.5504,-3.5797,-3.6368,-3.6814,-3.7338,-3.7822,-3.8092,-3.8469,-3.8875,-3.8728,-3.8941,-3.9343,-3.8616,-3.8328,-3.8244,-3.7499,-3.6738,-3.6028,-3.5723,-3.4752,-3.3582,-3.3582,-3.2664,-3.1482,-3.1482,-3.1482,-3.1482,-3.1482,-3.1482,-3.1377,-3.1016,-3.0896,-3.0986,-3.1362,-3.121,-3.0896,-3.0896,-2.9909,-2.8966,-2.8966,-2.8233,-2.7625,-2.7625,-2.7137,-2.6481,-2.5563,-2.4951,-2.4208,-2.3245,-2.3078,-2.3078,-2.3078,-2.3078,-2.3078,-2.3078,-2.3078,-2.3078,-2.3078,-2.3078,-2.3078,-2.3078,-2.3078,-2.3078,-2.3078,-2.2611,-2.2309,-2.2309,-2.1769,-2.1194,-2.0502,-2.0015,-1.931,-1.8363,-1.7701,-1.6992,-1.8149,-2.001,-2.2192,0.0,0.0,0.0,0.0,0.0,0.0,0.0,0.0,0.0,0.0,0.0,0.0,0.0,0.0,0.0,0.0,0.0,0.0,0.0,0.0,0.0,0.0,0.0,0.0,0.0,0.0,0.0,0.0,0.0,0.0,0.0,0.0,-3.4876,-3.4876,-3.4876,-3.4876,-3.4861,-3.5353,-3.6043,-3.6786,-3.6801,-3.7093,-3.7605,-3.7494,-3.7783,-3.8286,-3.7742,-3.7398,-3.7127,-3.662,-3.6079,-3.5622,-3.5622,-3.4752,-3.3582,-3.3582,-3.2664,-3.1482,-3.1482,-3.1482,-3.1482,-3.1482,-3.1317,-3.1106,-3.0642,-3.0357,-3.0313,-3.0791,-3.0717,-3.0447,-3.0253,-2.9549,-2.8861,-2.8652,-2.8053,-2.7625,-2.7625,-2.7408,-2.6864,-2.5618,-2.5231,-2.461,-2.3305,-2.3078,-2.3078,-2.3078,-2.3078,-2.3078,-2.3078,-2.3078,-2.3078,-2.3078,-2.3078,-2.3002,-2.2887,-2.2874,-2.2874,-2.2874,-2.2184,-2.1794,-2.1794,-2.1242,-2.0765,-2.0388,-1.9963,-1.925,-1.8352,-1.7926,-1.7313,-1.8894,-2.0027,0.0,0.0,0.0,0.0,0.0,0.0,0.0,0.0,0.0,0.0,0.0,0.0,0.0,0.0,0.0,0.0,0.0,0.0,0.0,0.0,0.0,0.0,0.0,0.0,0.0,0.0,0.0,0.0,0.0,0.0,0.0,0.0,0.0,0.0,-3.3499,-3.3499,-3.3499,-3.3499,-3.3484,-3.3829,-3.4505,-3.4603,-3.469,-3.4805,-3.6161,-3.6768,-3.6786,-3.6791,-3.6315,-3.5622,-3.5622,-3.5622,-3.5622,-3.5622,-3.4752,-3.3582,-3.3582,-3.2664,-3.1482,-3.1482,-3.1482,-3.1482,-3.1467,-3.1046,-3.0507,-3.0492,-3.0043,-2.9564,-2.9564,-3.0028,-3.0328,-2.9729,-2.9564,-2.9385,-2.8742,-2.8053,-2.7625,-2.7625,-2.6982,-2.6283,-2.5508,-2.4794,-2.4002,-2.3185,-2.3078,-2.3078,-2.3078,-2.3078,-2.3078,-2.3078,-2.3078,-2.3078,-2.3078,-2.3125,-2.2899,-2.2347,-2.2297,-2.2297,-2.2297,-2.1255,-2.0718,-2.0718,-2.01,-1.9798,-1.9798,-1.9097,-1.834,-1.7633,-1.7633,-1.7202,-1.9046,-2.0893,0.0,0.0,0.0,0.0,0.0,0.0,0.0,0.0,0.0,0.0,0.0,0.0,0.0,0.0,0.0,0.0,0.0,0.0,0.0,0.0,0.0,0.0,0.0,0.0,0.0,0.0,0.0,0.0,0.0,0.0,0.0,0.0,0.0,0.0,-3.3499,-3.3499,-3.3499,-3.3484,-3.3021,-3.3155,-3.3784,-3.3819,-3.4178,-3.4674,-3.4565,-3.5069,-3.6042,-3.5954,-3.5825,-3.5622,-3.5622,-3.5622,-3.5622,-3.5622,-3.4752,-3.3582,-3.3582,-3.2664,-3.1482,-3.1482,-3.1482,-3.1377,-3.0956,-3.0672,-3.0313,-2.9415,-2.9026,-2.8786,-2.8344,-2.8667,-2.9235,-2.952,-2.8861,-2.8248,-2.8532,-2.8053,-2.7625,-2.7625,-2.6982,-2.6283,-2.5508,-2.4794,-2.4002,-2.3185,-2.3078,-2.3078,-2.3078,-2.3078,-2.3078,-2.3078,-2.3078,-2.3078,-2.3078,-2.2774,-2.2485,-2.2322,-2.1581,-2.133,-2.1719,-2.1041,-2.0718,-2.0718,-2.01,-1.9798,-1.9798,-1.9579,-1.9371,-1.915,-1.8608,-1.795,-1.9837,0.0,0.0,0.0,0.0,0.0,0.0,0.0,0.0,0.0,0.0,0.0,0.0,0.0,0.0,0.0,0.0,0.0,0.0,0.0,0.0,0.0,0.0,0.0,0.0,0.0,0.0,0.0,0.0,0.0,0.0,0.0,0.0,0.0,0.0,-3.2721,-3.2721,-3.2721,-3.2721,-3.2706,-3.2317,-3.2332,-3.2721,-3.2721,-3.2989,-3.341,-3.3512,-3.4206,-3.5267,-3.5501,-3.5622,-3.5622,-3.5622,-3.5622,-3.5622,-3.5622,-3.4752,-3.3582,-3.3582,-3.2664,-3.1482,-3.1482,-3.1287,-3.1046,-3.0627,-3.0148,-2.9594,-2.8816,-2.8412,-2.8098,-2.773,-2.7874,-2.8293,-2.8697,-2.8368,-2.8008,-2.8158,-2.7874,-2.7509,-2.7203,-2.6826,-2.6176,-2.5119,-2.4567,-2.4002,-2.3185,-2.3078,-2.3078,-2.3078,-2.3078,-2.3078,-2.3078,-2.2937,-2.2811,-2.2811,-2.2297,-2.1895,-2.1669,-2.1041,-2.0769,-2.0815,-2.0501,-2.0326,-2.0326,-1.9987,-1.9798,-1.9798,-1.9798,-1.9643,-1.9371,-1.9202,-1.8715,0.0,0.0,0.0,0.0,0.0,0.0,0.0,0.0,0.0,0.0,0.0,0.0,0.0,0.0,0.0,0.0,0.0,0.0,0.0,0.0,0.0,0.0,0.0,0.0,0.0,0.0,0.0,0.0,0.0,0.0,0.0,0.0,0.0,0.0,-3.1482,-3.1482,-3.1482,-3.1482,-3.1482,0.0,-3.1482,-3.1482,-3.1482,-3.1482,-3.1482,-3.1582,-3.2971,-3.3937,-3.4592,-3.5316,-3.5622,-3.5622,-3.5622,-3.5622,-3.5622,-3.5622,-3.4752,-3.3582,-3.3582,-3.2664,-3.1467,-3.1407,-3.1016,-3.0477,-3.0357,-2.952,-2.8592,-2.8532,-2.8053,-2.7625,-2.7625,-2.7625,-2.7625,-2.7625,-2.8053,-2.8338,-2.7709,-2.7625,-2.7357,-2.6669,-2.6457,-2.596,-2.4509,-2.4234,-2.3943,-2.3185,-2.3078,-2.3078,-2.3078,-2.3078,-2.3053,-2.3002,-2.2611,-2.2297,-2.2234,-2.1732,-2.1204,-2.0756,-2.0668,-2.0351,-1.9823,-1.9798,-1.9798,-1.9798,-1.9798,-1.9798,-1.9798,-1.9798,-1.9475,-1.8821,-1.9475,-1.9423,0.0,0.0,0.0,0.0,0.0,0.0,0.0,0.0,0.0,0.0,0.0,0.0,0.0,0.0,0.0,0.0,0.0,0.0,0.0,0.0,0.0,0.0,0.0,0.0,0.0,0.0,0.0,0.0,0.0,0.0,0.0,0.0,0.0,-3.1482,-3.1482,-3.1482,-3.1482,-3.1482,-3.1482,0.0,-3.1482,-3.1482,-3.1482,-3.1482,-3.1482,-3.1582,-3.2971,-3.3684,-3.3887,-3.5115,-3.5622,-3.5622,-3.5622,-3.5622,-3.5622,-3.5622,-3.4752,-3.3582,-3.3582,-3.2664,-3.1377,-3.0911,-3.0627,-3.0313,-2.931,-2.8816,-2.8487,-2.7949,-2.7679,-2.7625,-2.7625,-2.7625,-2.7625,-2.7625,-2.7679,-2.7754,-2.7655,-2.7625,-2.7357,-2.6669,-2.6014,-2.5342,-2.4452,-2.3767,-2.3305,-2.3138,-2.3078,-2.3078,-2.3078,-2.3078,-2.2915,-2.2535,-2.2385,-2.2133,-2.1707,-2.1154,-2.0844,-2.0731,-2.0238,-1.9936,-1.9811,-1.9798,-1.9798,-1.9798,-1.9798,-1.9798,-1.9798,-1.9798,-1.9695,-1.9579,-1.9747,-1.9423,0.0,0.0,0.0,0.0,0.0,0.0,0.0,0.0,0.0,0.0,0.0,0.0,0.0,0.0,0.0,0.0,0.0,0.0,0.0,0.0,0.0,0.0,0.0,0.0,0.0,0.0,0.0,0.0,0.0,0.0,0.0,0.0,0.0,-3.1482,-3.1482,-3.1482,-3.1482,-3.1482,-3.1482,-3.1482,-3.1482,-3.1302,-3.1046,-3.1317,-3.1482,-3.1582,-3.2971,-3.3406,-3.3219,-3.4918,-3.5199,-3.459,-3.4945,-3.4878,-3.4556,-3.4556,-3.3727,-3.2574,-3.2574,-3.1685,-3.0537,-3.0178,-2.9849,-2.9475,-2.8801,-2.8368,-2.8038,-2.773,-2.7625,-2.7625,-2.7625,-2.7625,-2.7625,-2.7625,-2.7625,-2.7625,-2.7625,-2.7625,-2.7357,-2.6669,-2.5906,-2.5175,-2.4452,-2.3649,-2.3078,-2.3078,-2.2852,-2.2836,-2.304,-2.2673,-2.2334,-2.2309,-2.1845,-2.1405,-2.1117,-2.0577,-2.025,-2.025,-1.9962,-1.9798,-1.9798,-1.9798,-1.9798,-1.9798,-1.9798,-1.9798,-1.9798,-1.9798,-1.9798,-1.9798,-1.9798,-1.9423,0.0,0.0,0.0,0.0,0.0,0.0,0.0,0.0,0.0,0.0,0.0,0.0,0.0,0.0,0.0,0.0,0.0,0.0,0.0,0.0,0.0,0.0,0.0,0.0,0.0,0.0,0.0,0.0,0.0,0.0,0.0,0.0,-3.1195,-3.1195,-3.1195,-3.1195,-3.1195,-3.1195,-3.1195,-3.1195,-3.1195,-3.0896,-3.0357,-3.0941,-3.1195,-3.1237,-3.252,-3.2758,-3.2315,-3.414,-3.4164,-3.3125,-3.3772,-3.3638,-3.3074,-3.3074,-3.2344,-3.1325,-3.1325,-3.0576,-2.9564,-2.9445,-2.9041,-2.8577,-2.8457,-2.8023,-2.7625,-2.7625,-2.7625,-2.7625,-2.7625,-2.7625,-2.7625,-2.7625,-2.7625,-2.7625,-2.7625,-2.7625,-2.7357,-2.6496,-2.5618,-2.4838,-2.4221,-2.3543,-2.3078,-2.3078,-2.2749,-2.2623,-2.3015,-2.2246,-2.1769,-2.2133,-2.1267,-2.068,-2.0526,-2.0075,-1.9798,-1.9798,-1.9798,-1.9798,-1.9798,-1.9798,-1.9798,-1.9798,-1.9798,-1.9798,-1.9798,-1.9798,-1.9798,-1.9798,-1.9798,-1.9475,0.0,0.0,0.0,0.0,0.0,0.0,0.0,0.0,0.0,0.0,0.0,0.0,0.0,0.0,0.0,0.0,0.0,0.0,0.0,0.0,0.0,0.0,0.0,0.0,0.0,0.0,0.0,0.0,0.0,0.0,0.0,-2.9789,-2.9849,-2.9849,-2.9849,-2.9849,-2.9849,-2.9849,-2.9849,-2.9849,-2.9849,-2.9789,-2.9699,-2.9804,-2.9849,-2.9888,-3.0649,-3.0931,-3.0904,-3.1774,-3.1997,-3.1835,-3.1932,-3.1916,-3.1819,-3.1819,-3.139,-3.0713,-3.0713,-3.0247,-2.949,-2.8921,-2.8667,-2.8487,-2.7889,-2.7685,-2.7625,-2.7625,-2.7625,-2.7625,-2.7625,-2.7625,-2.7625,-2.7625,-2.7625,-2.7625,-2.7625,-2.7625,-2.7188,-2.5837,-2.4381,-2.3365,-2.3245,-2.3185,-2.3078,-2.3078,-2.3015,-2.299,-2.3065,-2.2585,-2.2046,-2.1644,-2.1041,-2.0517,-1.9962,-1.9849,-1.9798,-1.9798,-1.9798,-1.9798,-1.9798,-1.9798,-1.9798,-1.9798,-1.9798,-1.9798,-1.9798,-1.9798,-1.9798,-1.9798,-1.9798,-1.9747,0.0,0.0,0.0,0.0,0.0,0.0,0.0,0.0,0.0,0.0,0.0,0.0,0.0,0.0,0.0,0.0,0.0,0.0,0.0,0.0,0.0,0.0,0.0,0.0,0.0,0.0,0.0,0.0,0.0,0.0,-2.8389,-2.8349,-2.8297,-2.8297,-2.8706,-2.8958,-2.8958,-2.9387,-2.9579,-2.9579,-2.9205,-2.9026,-2.9026,-2.8637,-2.8876,-2.9633,-3.0283,-3.0545,-3.0559,-3.1278,-3.1304,-3.0868,-3.0937,-3.0701,-3.0364,-3.0364,-2.9959,-2.9443,-2.9443,-2.9027,-2.8412,-2.8113,-2.8023,-2.7964,-2.7715,-2.7625,-2.7625,-2.7625,-2.7625,-2.7625,-2.7625,-2.7625,-2.7625,-2.7625,-2.7625,-2.7625,-2.7625,-2.7625,-2.7137,-2.5673,-2.4509,-2.3649,-2.3198,-2.3078,-2.3078,-2.3078,-2.2874,-2.2673,-2.2673,-2.192,-2.1292,-2.1054,-2.0526,-2.0075,-1.9823,-1.9798,-1.9798,-1.9798,-1.9798,-1.9798,-1.9798,-1.9798,-1.9798,-1.9798,-1.9798,-1.9798,-1.9798,-1.9798,-1.9798,-1.9798,-1.9798,-1.9371,0.0,0.0,0.0,0.0,0.0,0.0,0.0,0.0,0.0,0.0,0.0,0.0,0.0,0.0,0.0,0.0,0.0,0.0,0.0,0.0,0.0,0.0,0.0,0.0,0.0,0.0,0.0,0.0,0.0,0.0,-2.6928,-2.6876,-2.6884,-2.7115,-2.764,-2.7989,-2.821,-2.8812,-2.9071,-2.9071,-2.8562,-2.8338,-2.8323,-2.7814,-2.8165,-2.9124,-2.9623,-2.9769,-2.9706,-3.0321,-3.0194,-2.9617,-2.972,-2.9438,-2.895,-2.895,-2.8638,-2.8271,-2.8271,-2.8008,-2.7625,-2.7625,-2.7625,-2.7625,-2.7625,-2.7625,-2.7625,-2.7625,-2.7625,-2.7625,-2.7625,-2.7625,-2.7625,-2.7625,-2.7625,-2.7625,-2.7625,-2.7458,-2.6916,-2.5673,-2.4794,-2.406,-2.3245,-2.3078,-2.3078,-2.3078,-2.2661,-2.2309,-2.2309,-2.1343,-2.0718,-2.0718,-2.015,-1.9798,-1.9798,-1.9798,-1.9798,-1.9798,-1.9798,-1.9798,-1.9798,-1.9798,-1.9798,-1.9798,-1.9798,-1.9798,-1.9798,-1.9798,-1.9798,-1.9798,-1.9798,-1.9202,0.0,0.0,0.0,0.0,0.0,0.0,0.0,0.0,0.0,0.0,0.0,0.0,0.0,0.0,0.0,0.0,0.0,0.0,0.0,0.0,0.0,0.0,0.0,0.0,0.0,0.0,0.0,0.0,0.0,0.0,-2.5508,-2.5481,-2.5826,-2.6543,-2.6597,-2.6928,-2.7614,-2.7679,-2.773,-2.773,-2.7685,-2.7619,-2.7619,-2.764,-2.7655,-2.773,-2.7715,-2.775,-2.7771,-2.7801,-2.7771,-2.776,-2.7755,-2.774,-2.771,-2.771,-2.766,-2.7675,-2.7675,-2.7625,-2.7625,-2.7625,-2.7625,-2.7625,-2.7625,-2.7625,-2.7625,-2.7625,-2.7625,-2.7625,-2.7625,-2.7625,-2.7625,-2.7625,-2.7625,-2.7625,-2.7625,-2.7034,-2.6336,-2.5563,-2.4794,-2.406,-2.3245,-2.3078,-2.3078,-2.3078,-2.2661,-2.2309,-2.2309,-2.1343,-2.0718,-2.0718,-2.015,-1.9798,-1.9798,-1.9798,-1.9798,-1.9798,-1.9798,-1.9798,-1.9798,-1.9798,-1.9798,-1.9798,-1.9798,-1.9798,-1.9798,-1.9798,-1.9798,-1.9798,-1.9798,-1.9747,0.0,0.0,0.0,0.0,0.0,0.0,0.0,0.0,0.0,0.0,0.0,0.0,0.0,0.0,0.0,0.0,0.0,0.0,0.0,0.0,0.0,0.0,0.0,0.0,0.0,0.0,0.0,0.0,0.0,0.0,-2.4681,-2.4208,-2.4034,-2.4323,-2.5273,-2.6375,-2.7575,-2.7625,-2.7625,-2.7625,-2.7625,-2.7625,-2.7625,-2.7625,-2.7625,-2.7625,-2.7625,-2.781,-2.814,-2.776,-2.781,-2.814,-2.776,-2.7625,-2.7625,-2.7625,-2.7625,-2.7625,-2.7625,-2.7625,-2.7625,-2.7625,-2.7625,-2.7625,-2.7625,-2.7625,-2.7625,-2.7625,-2.7625,-2.7625,-2.7625,-2.7625,-2.7625,-2.7625,-2.7625,-2.7625,-2.7625,-2.7034,-2.6169,-2.5035,-2.4243,-2.3485,-2.2715,-2.2309,-2.2196,-2.2548,-2.2133,-2.1656,-2.1305,-2.097,-2.0526,-2.015,-1.9924,-1.9798,-1.9798,-1.9798,-1.9798,-1.9798,-1.9798,-1.9798,-1.9798,-1.9798,-1.9798,-1.9798,-1.9798,-1.9798,-1.9798,-1.9798,-1.9798,-1.9798,-1.9798,-1.9527,0.0,0.0,0.0,0.0,0.0,0.0,0.0,0.0,0.0,0.0,0.0,0.0,0.0,0.0,0.0,0.0,0.0,0.0,0.0,0.0,0.0,0.0,0.0,0.0,0.0,0.0,0.0,0.0,0.0,0.0,-2.3314,-2.2865,-2.2883,-2.356,-2.4791,-2.616,-2.7575,-2.7625,-2.7625,-2.7625,-2.735,-2.7365,-2.761,-2.7385,-2.7415,-2.7625,-2.7625,-2.781,-2.8189,-2.776,-2.786,-2.814,-2.776,-2.7625,-2.7625,-2.7625,-2.7625,-2.7625,-2.7625,-2.7625,-2.7625,-2.7625,-2.7625,-2.7625,-2.7625,-2.7625,-2.7625,-2.7625,-2.7625,-2.7625,-2.7625,-2.7625,-2.7625,-2.7625,-2.7625,-2.7565,-2.729,-2.7041,-2.6414,-2.4783,-2.4082,-2.3371,-2.223,-2.1732,-2.1606,-2.1983,-2.1556,-2.1079,-2.0769,-2.0542,-2.0225,-1.9849,-1.9798,-1.9798,-1.9798,-1.9798,-1.9798,-1.9798,-1.9798,-1.9798,-1.9798,-1.9798,-1.9798,-1.9798,-1.9798,-1.9798,-1.9798,-1.9798,-1.9798,-1.9798,-1.9798,-1.9527,0.0,0.0,0.0,0.0,0.0,0.0,0.0,0.0,0.0,0.0,0.0,0.0,0.0,0.0,0.0,0.0,0.0,0.0,0.0,0.0,0.0,0.0,0.0,0.0,0.0,0.0,0.0,0.0,0.0,-2.1493,-2.1493,-2.1549,-2.2418,-2.4403,-2.5166,-2.6213,-2.75,-2.7565,-2.7565,-2.75,-2.6871,-2.6901,-2.755,-2.6856,-2.6916,-2.7595,-2.7595,-2.761,-2.7625,-2.7625,-2.7625,-2.7625,-2.7625,-2.7625,-2.7625,-2.7625,-2.7625,-2.7625,-2.7625,-2.7625,-2.7625,-2.7625,-2.7625,-2.7625,-2.7625,-2.7625,-2.7625,-2.7625,-2.7625,-2.7625,-2.7625,-2.7625,-2.7625,-2.7595,-2.761,-2.738,-2.6707,-2.7081,-2.6952,-2.4899,-2.451,-2.3838,-2.1865,-2.1511,-2.1499,-2.1455,-2.0991,-2.0693,-2.0693,-2.015,-1.9798,-1.9798,-1.9798,-1.9798,-1.9798,-1.9798,-1.9798,-1.9798,-1.9798,-1.9798,-1.9798,-1.9798,-1.9798,-1.9798,-1.9798,-1.9798,-1.9798,-1.9798,-1.9798,-1.9798,-1.9798,-1.9798,-1.1015,0.0,0.0,0.0,0.0,0.0,0.0,0.0,0.0,0.0,0.0,0.0,0.0,0.0,0.0,0.0,0.0,0.0,0.0,0.0,0.0,0.0,0.0,0.0,0.0,0.0,0.0,0.0,-2.1267,-2.1493,-2.1493,-2.1898,-2.2657,-2.3823,-2.4489,-2.5238,-2.6153,-2.6153,-2.6153,-2.6153,-2.5974,-2.5974,-2.6153,-2.5959,-2.6243,-2.6856,-2.6856,-2.7126,-2.7625,-2.7625,-2.7625,-2.7625,-2.7625,-2.7625,-2.7625,-2.7625,-2.7625,-2.7625,-2.7625,-2.7625,-2.7625,-2.7625,-2.7625,-2.7625,-2.7625,-2.7625,-2.7625,-2.7625,-2.7625,-2.7625,-2.7625,-2.7625,-2.7505,-2.6976,-2.723,-2.726,-2.6123,-2.6393,-2.6302,-2.4316,-2.3906,-2.3392,-2.1826,-2.1251,-2.0978,-2.0936,-2.0413,-2.0037,-2.0037,-1.9899,-1.9798,-1.9798,-1.9798,-1.9798,-1.9798,-1.9798,-1.9798,-1.9798,-1.9798,-1.9798,-1.9798,-1.9798,-1.9798,-1.9798,-1.9798,-1.9798,-1.9798,-1.9798,-1.9798,-1.9798,-1.9798,-1.9527,0.0,0.0,0.0,0.0,0.0,0.0,0.0,0.0,0.0,0.0,0.0,0.0,0.0,0.0,0.0,0.0,0.0,0.0,0.0,0.0,0.0,0.0,0.0,0.0,0.0,0.0,0.0,0.0,-2.0602,-2.079,-2.079,-2.1393,-2.2177,-2.3188,-2.3836,-2.4626,-2.56,-2.5615,-2.5615,-2.5615,-2.533,-2.5345,-2.56,-2.533,-2.5555,-2.6183,-2.6183,-2.6393,-2.6752,-2.6752,-2.7081,-2.7625,-2.7625,-2.7625,-2.7625,-2.7625,-2.7625,-2.7625,-2.7625,-2.7625,-2.7625,-2.7625,-2.7625,-2.7625,-2.7625,-2.743,-2.7156,-2.7156,-2.6961,-2.6752,-2.6752,-2.6752,-2.6662,-2.6273,-2.6482,-2.6467,-2.542,-2.5495,-2.5352,-2.3978,-2.3488,-2.286,-2.1488,-2.0781,-2.0373,-2.0303,-2.0024,-1.9798,-1.9798,-1.9798,-1.9798,-1.9798,-1.9798,-1.9798,-1.9798,-1.9798,-1.9798,-1.9798,-1.9798,-1.9798,-1.9798,-1.9798,-1.9798,-1.9798,-1.9798,-1.9798,-1.9798,-1.9798,-1.9798,-1.9798,-1.9798,-1.9579,0.0,-1.4155,0.0,0.0,0.0,0.0,0.0,-1.5638,0.0,0.0,0.0,0.0,0.0,0.0,0.0,0.0,0.0,0.0,0.0,0.0,0.0,0.0,0.0,0.0,0.0,0.0,-1.9648,-1.971,-1.9773,-1.9798,-1.9798,-2.0459,-2.1368,-2.2574,-2.3245,-2.4148,-2.5375,-2.539,-2.539,-2.5375,-2.4792,-2.4822,-2.5375,-2.4777,-2.4821,-2.5495,-2.5495,-2.554,-2.5615,-2.5615,-2.6303,-2.74,-2.74,-2.74,-2.74,-2.74,-2.74,-2.74,-2.74,-2.74,-2.74,-2.74,-2.74,-2.74,-2.74,-2.6946,-2.6482,-2.6482,-2.6063,-2.5615,-2.5615,-2.5615,-2.5585,-2.5525,-2.5555,-2.5405,-2.4627,-2.4522,-2.4416,-2.3699,-2.3183,-2.2422,-2.1122,-2.0396,-1.994,-1.9798,-1.9798,-1.9798,-1.9798,-1.9798,-1.9798,-1.9798,-1.9798,-1.9798,-1.9798,-1.9798,-1.9798,-1.9798,-1.9798,-1.9798,-1.9798,-1.9798,-1.9798,-1.9798,-1.9798,-1.9798,-1.9798,-1.9798,-1.9798,-1.9798,-1.9798,-1.9747,-1.3952,-1.4376,-1.4828,0.0,0.0,0.0,0.0,-1.3798,0.0,0.0,0.0,0.0,0.0,0.0,0.0,0.0,0.0,0.0,0.0,0.0,0.0,0.0,0.0,0.0,0.0,0.0,-1.8694,-1.9096,-1.9572,-1.9798,-1.9798,-2.0459,-2.1131,-2.1876,-2.253,-2.3257,-2.3984,-2.3984,-2.3984,-2.3984,-2.3864,-2.3864,-2.3984,-2.3849,-2.4178,-2.4776,-2.4776,-2.5121,-2.5615,-2.5615,-2.5749,-2.5989,-2.5989,-2.5989,-2.5989,-2.5989,-2.5989,-2.5989,-2.5989,-2.5989,-2.5989,-2.5989,-2.5989,-2.5989,-2.5989,-2.5899,-2.5809,-2.5809,-2.5704,-2.5615,-2.5615,-2.5615,-2.548,-2.4896,-2.5226,-2.527,-2.4059,-2.4238,-2.4268,-2.312,-2.3199,-2.3036,-2.1724,-2.1424,-2.0988,-1.994,-1.9798,-1.9798,-1.9798,-1.9798,-1.9798,-1.9798,-1.9798,-1.9798,-1.9798,-1.9798,-1.9798,-1.9798,-1.9798,-1.9798,-1.9798,-1.9798,-1.9798,-1.9798,-1.9798,-1.9798,-1.9798,-1.9798,-1.9798,-1.9798,-1.9798,-1.9475,0.0,0.0,-1.5766,-1.5346,0.0,0.0,0.0,0.0,0.0,0.0,0.0,0.0,0.0,0.0,0.0,0.0,0.0,0.0,0.0,0.0,0.0,0.0,0.0,0.0,0.0,0.0,-1.8588,-1.8593,-1.9392,-1.9735,-1.9409,-2.0868,-2.1609,-2.1245,-2.2161,-2.268,-2.2651,-2.2651,-2.2651,-2.2651,-2.2651,-2.2651,-2.2651,-2.2651,-2.3035,-2.3656,-2.3656,-2.4014,-2.4597,-2.4597,-2.4597,-2.4672,-2.5345,-2.5615,-2.5615,-2.5615,-2.5615,-2.5615,-2.5615,-2.5615,-2.5615,-2.5615,-2.5615,-2.5615,-2.5615,-2.5375,-2.5046,-2.4702,-2.4597,-2.4597,-2.4597,-2.4597,-2.4522,-2.4193,-2.4373,-2.4418,-2.3744,-2.3864,-2.3822,-2.2902,-2.292,-2.277,-2.1486,-2.0953,-2.0557,-1.9901,-1.9798,-1.9798,-1.9798,-1.9798,-1.9798,-1.9798,-1.9798,-1.9798,-1.9798,-1.9798,-1.9798,-1.9798,-1.9798,-1.9798,-1.9798,-1.9798,-1.9798,-1.9798,-1.9798,-1.9798,-1.9798,-1.9798,-1.9798,-1.9798,-1.9798,-1.9579,0.0,0.0,0.0,0.0,0.0,-1.6111,0.0,0.0,0.0,-1.6159,0.0,0.0,0.0,0.0,0.0,0.0,0.0,0.0,0.0,0.0,0.0,0.0,0.0,0.0,0.0,0.0,-1.8506,-1.8202,-1.9054,-1.9449,-1.9172,-2.1162,-2.1853,-2.082,-2.1918,-2.2253,-2.171,-2.1697,-2.1697,-2.1697,-2.1697,-2.1697,-2.1697,-2.1697,-2.1993,-2.2498,-2.2649,-2.2965,-2.3421,-2.3551,-2.3595,-2.3714,-2.4792,-2.5211,-2.5211,-2.5211,-2.5211,-2.5211,-2.5211,-2.5211,-2.5211,-2.5211,-2.5211,-2.5179,-2.5086,-2.4745,-2.4268,-2.3613,-2.3508,-2.3595,-2.3595,-2.3595,-2.3595,-2.3595,-2.3595,-2.3595,-2.3595,-2.3595,-2.3363,-2.2634,-2.2498,-2.2114,-2.0993,-2.0346,-1.9952,-1.9798,-1.9798,-1.9798,-1.9798,-1.9798,-1.9798,-1.9798,-1.9798,-1.9798,-1.9798,-1.9798,-1.9798,-1.9798,-1.9798,-1.9798,-1.9798,-1.9798,-1.9798,-1.9798,-1.9798,-1.9798,-1.9798,-1.9798,-1.9798,-1.9798,-1.9798,-1.9798,0.0,0.0,0.0,0.0,-1.6891,0.0,0.0,0.0,-1.5606,-1.4332,0.0,0.0,0.0,0.0,0.0,0.0,0.0,0.0,0.0,0.0,0.0,0.0,0.0,0.0,0.0,0.0,0.0,-1.8149,-1.812,-1.8518,-1.9646,-2.0529,-2.0951,-2.0813,-2.1448,-2.1805,-2.1697,-2.1697,-2.1697,-2.1697,-2.1697,-2.1697,-2.1697,-2.1697,-2.1744,-2.1852,-2.2452,-2.274,-2.283,-2.3377,-2.3595,-2.361,-2.3774,-2.3834,-2.3834,-2.3834,-2.3834,-2.3834,-2.3834,-2.3834,-2.3834,-2.3834,-2.3834,-2.3732,-2.3198,-2.3363,-2.3612,-2.2994,-2.3201,-2.3595,-2.3595,-2.3595,-2.3595,-2.3595,-2.3595,-2.3595,-2.3595,-2.3595,-2.3275,-2.2039,-2.1805,-2.1615,-2.0944,-2.0759,-2.0497,-1.9901,-1.9798,-1.9798,-1.9798,-1.9798,-1.9798,-1.9798,-1.9798,-1.9798,-1.9798,-1.9798,-1.9798,-1.9798,-1.9798,-1.9798,-1.9798,-1.9798,-1.9798,-1.9798,-1.9798,-1.9798,-1.9798,-1.9798,-1.9798,-1.9798,-1.9798,-1.9798,0.0,0.0,0.0,0.0,0.0,0.0,0.0,0.0,-1.5427,0.0,0.0,0.0,0.0,0.0,0.0,0.0,0.0,0.0,0.0,0.0,0.0,0.0,0.0,0.0,0.0,0.0,0.0,0.0,0.0,-1.8263,-1.925,-2.0301,-2.0659,-2.0241,-2.053,-2.0668,-2.0607,-2.0607,-2.0607,-2.0607,-2.0607,-2.0607,-2.0607,-2.0607,-2.0805,-2.121,-2.1465,-2.2035,-2.2694,-2.2965,-2.3275,-2.3595,-2.3595,-2.3595,-2.3595,-2.3595,-2.3595,-2.3595,-2.3595,-2.3595,-2.3595,-2.3595,-2.3377,-2.3009,-2.2785,-2.2634,-2.2455,-2.2193,-2.2285,-2.2606,-2.2965,-2.3054,-2.3054,-2.3054,-2.3334,-2.3406,-2.2651,-2.2801,-2.268,-2.1452,-2.1161,-2.0966,-2.0346,-2.0194,-2.0105,-1.985,-1.9798,-1.9798,-1.9798,-1.9798,-1.9798,-1.9798,-1.9798,-1.9798,-1.9798,-1.9798,-1.9798,-1.9798,-1.9798,-1.9798,-1.9798,-1.9798,-1.9798,-1.9798,-1.9798,-1.9798,-1.9798,-1.9798,-1.9798,-1.9798,-1.9798,-1.9798,-1.6635,0.0,0.0,0.0,0.0,0.0,0.0,0.0,0.0,0.0,0.0,0.0,0.0,0.0,0.0,0.0,0.0,0.0,0.0,0.0,0.0,0.0,0.0,0.0,0.0,0.0,0.0,0.0,0.0,0.0,-1.8583,-1.9729,-2.0063,-1.9357,-1.9608,-1.9612,-1.9359,-1.9359,-1.9359,-1.9359,-1.9522,-1.9585,-1.9597,-1.9736,-2.0055,-2.056,-2.0696,-2.1321,-2.2221,-2.2558,-2.2965,-2.3377,-2.3551,-2.3595,-2.3595,-2.3595,-2.3595,-2.3595,-2.3595,-2.3595,-2.3595,-2.3595,-2.3187,-2.2649,-2.2498,-2.21,-2.1663,-2.152,-2.1568,-2.1805,-2.23,-2.2543,-2.2694,-2.2694,-2.3143,-2.3319,-2.2225,-2.2483,-2.2498,-2.1091,-2.093,-2.0782,-1.994,-1.9798,-1.9798,-1.9798,-1.9798,-1.9798,-1.9798,-1.9798,-1.9798,-1.9798,-1.9798,-1.9798,-1.9798,-1.9798,-1.9798,-1.9798,-1.9798,-1.9798,-1.9798,-1.9798,-1.9798,-1.9798,-1.9798,-1.9798,-1.9798,-1.9798,-1.9723,-1.9597,-1.9736,-1.9723,0.0,0.0,0.0,-1.5969,0.0,0.0,0.0,0.0,-1.6321,0.0,0.0,0.0,0.0,0.0,0.0,0.0,0.0,0.0,0.0,0.0,0.0,0.0,0.0,0.0,0.0,0.0,0.0,0.0,0.0,0.0,-1.7799,-1.8605,-1.8731,-1.8262,-1.8821,-1.8865,-1.8254,-1.8254,-1.8254,-1.8267,-1.8794,-1.9008,-1.9021,-1.9572,-1.9798,-1.985,-2.0497,-2.0795,-2.0944,-2.2175,-2.2694,-2.2785,-2.3377,-2.3595,-2.3595,-2.3595,-2.3595,-2.3595,-2.3595,-2.3595,-2.3595,-2.3595,-2.3187,-2.2603,-2.1946,-2.1697,-2.1568,-2.0979,-2.1245,-2.1697,-2.1758,-2.2193,-2.2694,-2.2694,-2.3143,-2.3421,-2.2785,-2.3143,-2.3039,-2.1175,-2.1245,-2.128,-2.0042,-1.9798,-1.9798,-1.9798,-1.9798,-1.9798,-1.9798,-1.9798,-1.9798,-1.9798,-1.9798,-1.9798,-1.9798,-1.9798,-1.9798,-1.9798,-1.9798,-1.9798,-1.9798,-1.9798,-1.9798,-1.9798,-1.9798,-1.9798,-1.9798,-1.9798,-1.9547,-1.907,-1.9572,-1.9535,0.0,0.0,-1.7112,-1.5969,0.0,0.0,0.0,0.0,0.0,0.0,0.0,0.0,0.0,0.0,0.0,0.0,0.0,0.0,0.0,0.0,0.0,0.0,0.0,0.0,0.0,0.0,0.0,0.0,0.0,0.0,0.0,-1.8384,-1.8462,-1.8669,-1.8218,-1.8045,-1.8204,-1.8204,-1.8204,-1.8204,-1.8392,-1.848,-1.8493,-1.8668,-1.8744,-1.8744,-1.8986,-1.9296,-1.9728,-2.0523,-2.1366,-2.2221,-2.2812,-2.3236,-2.3595,-2.3595,-2.3595,-2.3595,-2.3595,-2.3595,-2.3595,-2.3595,-2.2891,-2.1993,-2.1758,-2.1135,-2.0421,-2.0194,-2.0283,-2.0657,-2.1459,-2.1852,-2.2146,-2.2589,-2.3143,-2.3216,-2.1738,-2.1913,-2.1899,-2.0434,-2.0283,-2.032,-1.985,-1.9798,-1.9798,-1.9798,-1.9798,-1.9798,-1.9798,-1.9798,-1.9798,-1.9798,-1.9798,-1.9798,-1.9798,-1.9798,-1.9798,-1.9798,-1.9798,-1.9798,-1.9798,-1.9798,-1.9798,-1.9798,-1.9798,-1.9798,-1.9798,-1.9459,-1.9196,-1.902,-1.8832,-1.8643,-1.6522,-1.6785,0.0,-1.5932,-1.5693,0.0,-1.5029,0.0,0.0,0.0,0.0,0.0,0.0,0.0,0.0,0.0,0.0,0.0,0.0,0.0,0.0,0.0,0.0,0.0,0.0,0.0,-1.4347,-1.6234,0.0,0.0,0.0,0.0,-1.7746,-1.8288,-1.7519,-1.725,-1.7601,-1.7601,-1.7601,-1.7601,-1.7815,-1.7915,-1.7915,-1.8116,-1.8204,-1.8204,-1.8204,-1.8414,-1.8826,-1.9595,-2.0398,-2.1269,-2.2046,-2.2577,-2.2981,-2.343,-2.3595,-2.3565,-2.334,-2.3415,-2.3551,-2.3334,-2.256,-2.1649,-2.1424,-2.062,-1.9798,-1.9798,-1.9798,-2.0042,-2.1099,-2.152,-2.1852,-2.2543,-2.3009,-2.2965,-2.1752,-2.1582,-2.1363,-2.0333,-2.0156,-2.0105,-1.985,-1.9798,-1.9798,-1.9798,-1.9798,-1.9798,-1.9798,-1.9798,-1.9798,-1.9798,-1.9798,-1.9798,-1.9798,-1.9798,-1.9798,-1.9798,-1.9798,-1.9798,-1.9798,-1.9798,-1.9798,-1.9798,-1.9623,-1.9522,-1.9522,-1.8995,-1.8631,-1.843,-1.8078,-1.7802]},{"header":{"parameterUnit":"m.s-1","parameterCategory":1,"la1":30.6,"la2":29.2853,"lo1":-89.7004,"lo2":-87.6739,"dy":0.0162,"dx":0.0183,"nx":112,"ny":82,"refTime":"2024-07-29T06:00:00:Z","depth":0,"parameterNumber":3,"parameterNumberName":"V-component_of_WINDS"},"data":[0.0,0.0,0.0,0.0,0.0,0.0,0.0,0.0,0.0,0.0,0.0,0.0,0.0,0.0,0.0,0.0,0.0,0.0,0.0,0.0,0.0,0.0,0.0,0.0,0.0,0.0,0.0,0.0,0.0,0.0,0.0,0.0,0.0,0.0,0.0,0.0,0.0,0.0,0.0,0.0,0.0,0.0,0.0,0.0,0.0,0.0,0.0,0.0,0.0,0.0,0.0,0.0,0.0,0.0,0.0,0.0,0.0,0.0,0.0,0.0,0.0,0.0,0.0,0.0,0.0,0.0,0.0,0.0,0.0,0.0,0.0,0.0,0.0,0.0,0.0,0.0,0.0,0.0,0.0,0.0,0.0,0.0,0.0,0.0,0.0,0.0,0.0,0.0,0.0,0.0,0.0,-1.9652,-2.1642,-2.2999,-2.3775,-2.2016,-1.9749,-1.7139,0.0,0.0,0.0,0.0,0.0,0.0,0.0,0.0,0.0,0.0,0.0,0.0,0.0,0.0,0.0,0.0,0.0,0.0,0.0,0.0,0.0,0.0,0.0,0.0,0.0,0.0,0.0,0.0,0.0,0.0,0.0,0.0,0.0,0.0,0.0,0.0,0.0,0.0,0.0,0.0,0.0,0.0,0.0,0.0,0.0,0.0,0.0,0.0,0.0,0.0,0.0,0.0,0.0,0.0,0.0,0.0,0.0,0.0,0.0,0.0,0.0,0.0,0.0,0.0,0.0,0.0,0.0,0.0,0.0,0.0,0.0,0.0,0.0,0.0,0.0,0.0,0.0,0.0,0.0,0.0,0.0,0.0,0.0,0.0,0.0,0.0,0.0,0.0,0.0,0.0,0.0,0.0,0.0,0.0,0.0,0.0,0.0,0.0,0.0,0.0,0.0,0.0,0.0,0.0,-1.6101,-2.1046,-2.2249,-2.3196,-2.4372,-2.2265,-2.0114,-1.826,0.0,0.0,0.0,0.0,0.0,0.0,0.0,0.0,0.0,0.0,0.0,0.0,0.0,0.0,0.0,0.0,0.0,0.0,0.0,0.0,0.0,0.0,0.0,0.0,0.0,0.0,0.0,0.0,0.0,0.0,0.0,0.0,0.0,0.0,0.0,0.0,0.0,0.0,0.0,0.0,0.0,0.0,0.0,0.0,0.0,0.0,0.0,0.0,0.0,0.0,0.0,0.0,0.0,0.0,0.0,0.0,0.0,0.0,0.0,0.0,0.0,0.0,0.0,0.0,0.0,0.0,0.0,0.0,0.0,0.0,0.0,0.0,0.0,0.0,0.0,0.0,0.0,0.0,0.0,0.0,0.0,0.0,0.0,0.0,0.0,0.0,0.0,0.0,0.0,0.0,0.0,0.0,0.0,0.0,0.0,0.0,0.0,0.0,0.0,0.0,0.0,0.0,0.0,-1.5611,-1.8145,-2.1425,-2.262,-2.3408,-2.3999,-2.2116,-2.0117,-1.8364,-1.4822,0.0,0.0,0.0,0.0,0.0,0.0,0.0,0.0,0.0,0.0,0.0,0.0,0.0,0.0,0.0,0.0,0.0,0.0,0.0,0.0,0.0,0.0,0.0,0.0,0.0,0.0,0.0,0.0,0.0,0.0,0.0,0.0,0.0,0.0,0.0,0.0,0.0,0.0,0.0,0.0,0.0,0.0,0.0,0.0,0.0,0.0,0.0,0.0,0.0,0.0,0.0,0.0,0.0,0.0,0.0,0.0,0.0,0.0,0.0,0.0,0.0,0.0,0.0,0.0,0.0,0.0,0.0,0.0,0.0,0.0,0.0,0.0,0.0,0.0,0.0,0.0,0.0,0.0,0.0,0.0,0.0,0.0,0.0,0.0,0.0,0.0,0.0,0.0,0.0,0.0,0.0,0.0,0.0,0.0,0.0,0.0,0.0,0.0,0.0,0.0,0.0,0.0,-1.8055,-1.9986,-2.1522,-2.2831,-2.3595,-2.3595,-2.1786,-1.988,-1.8201,-1.4345,0.0,0.0,0.0,0.0,0.0,0.0,0.0,0.0,0.0,0.0,0.0,0.0,0.0,0.0,0.0,0.0,0.0,0.0,0.0,0.0,0.0,0.0,0.0,0.0,0.0,0.0,0.0,0.0,0.0,0.0,0.0,0.0,0.0,0.0,0.0,0.0,0.0,0.0,0.0,0.0,0.0,0.0,0.0,0.0,0.0,0.0,0.0,0.0,0.0,0.0,0.0,0.0,0.0,0.0,0.0,0.0,0.0,0.0,0.0,0.0,0.0,0.0,0.0,0.0,0.0,0.0,0.0,0.0,0.0,0.0,0.0,0.0,0.0,0.0,0.0,0.0,0.0,0.0,0.0,0.0,0.0,0.0,0.0,0.0,0.0,0.0,0.0,0.0,0.0,0.0,0.0,0.0,0.0,0.0,0.0,0.0,0.0,0.0,0.0,0.0,0.0,0.0,-1.7963,-2.0478,-2.1558,-2.2831,-2.3595,-2.3595,-2.1237,-1.9301,-1.8179,-1.3812,0.0,0.0,0.0,0.0,0.0,0.0,0.0,0.0,0.0,0.0,0.0,0.0,0.0,0.0,0.0,0.0,0.0,0.0,0.0,0.0,0.0,0.0,0.0,0.0,0.0,0.0,0.0,0.0,0.0,0.0,0.0,0.0,0.0,0.0,0.0,0.0,0.0,0.0,0.0,0.0,0.0,0.0,0.0,0.0,0.0,0.0,0.0,0.0,0.0,0.0,0.0,0.0,0.0,0.0,0.0,0.0,0.0,0.0,0.0,0.0,0.0,0.0,0.0,0.0,0.0,0.0,0.0,0.0,0.0,0.0,0.0,0.0,0.0,0.0,0.0,0.0,0.0,0.0,0.0,0.0,0.0,0.0,0.0,0.0,0.0,0.0,0.0,0.0,0.0,0.0,0.0,0.0,0.0,0.0,0.0,0.0,0.0,0.0,0.0,0.0,0.0,0.0,-1.7566,-1.9894,0.0,-2.3084,-2.3445,-2.3056,-2.1739,-1.9871,-1.7382,0.0,0.0,0.0,0.0,0.0,0.0,0.0,0.0,0.0,0.0,0.0,0.0,0.0,0.0,0.0,0.0,0.0,0.0,0.0,0.0,0.0,0.0,0.0,0.0,0.0,0.0,0.0,0.0,0.0,0.0,0.0,0.0,0.0,0.0,0.0,0.0,0.0,0.0,0.0,0.0,0.0,0.0,0.0,0.0,0.0,0.0,0.0,0.0,0.0,0.0,0.0,0.0,0.0,0.0,0.0,0.0,0.0,0.0,0.0,0.0,0.0,0.0,0.0,0.0,0.0,0.0,0.0,0.0,0.0,0.0,0.0,0.0,0.0,0.0,0.0,0.0,0.0,0.0,0.0,0.0,0.0,0.0,0.0,0.0,0.0,0.0,0.0,0.0,0.0,0.0,0.0,0.0,0.0,0.0,0.0,0.0,0.0,0.0,0.0,0.0,0.0,0.0,-1.5043,-1.7504,-1.9823,0.0,-2.3113,-2.3355,-2.2727,-2.168,-1.9824,-1.6891,0.0,0.0,0.0,0.0,0.0,0.0,0.0,0.0,0.0,0.0,0.0,0.0,0.0,0.0,0.0,0.0,0.0,0.0,0.0,0.0,0.0,0.0,0.0,0.0,0.0,0.0,0.0,0.0,0.0,0.0,0.0,0.0,0.0,0.0,0.0,0.0,0.0,0.0,0.0,0.0,0.0,0.0,0.0,0.0,0.0,0.0,0.0,0.0,0.0,0.0,0.0,0.0,0.0,0.0,0.0,0.0,0.0,0.0,0.0,0.0,0.0,0.0,0.0,0.0,0.0,0.0,0.0,0.0,0.0,0.0,0.0,0.0,0.0,0.0,0.0,0.0,0.0,0.0,0.0,0.0,0.0,0.0,0.0,0.0,0.0,0.0,0.0,0.0,0.0,0.0,0.0,0.0,0.0,0.0,0.0,0.0,0.0,0.0,0.0,0.0,0.0,0.0,-1.4536,-1.7906,-2.0526,-2.1599,-2.2848,-2.334,-2.2727,-2.0842,-1.8852,0.0,0.0,0.0,0.0,0.0,0.0,0.0,0.0,0.0,0.0,0.0,0.0,0.0,0.0,0.0,0.0,0.0,0.0,0.0,0.0,0.0,0.0,0.0,0.0,0.0,0.0,0.0,0.0,0.0,0.0,0.0,0.0,0.0,0.0,0.0,0.0,0.0,0.0,0.0,0.0,0.0,0.0,0.0,0.0,0.0,0.0,0.0,0.0,0.0,0.0,0.0,0.0,0.0,0.0,0.0,0.0,0.0,0.0,0.0,0.0,0.0,0.0,0.0,0.0,0.0,0.0,0.0,0.0,0.0,0.0,0.0,0.0,0.0,0.0,0.0,0.0,0.0,0.0,0.0,0.0,0.0,0.0,0.0,0.0,0.0,0.0,0.0,0.0,0.0,0.0,0.0,0.0,0.0,0.0,0.0,0.0,0.0,0.0,0.0,0.0,0.0,0.0,0.0,0.0,-1.866,-2.1109,-2.2285,-2.2748,-2.2682,-2.2039,-2.1021,-1.9166,-1.6248,0.0,0.0,0.0,0.0,0.0,0.0,0.0,0.0,0.0,0.0,0.0,0.0,0.0,0.0,0.0,0.0,0.0,0.0,0.0,0.0,0.0,0.0,0.0,0.0,0.0,0.0,0.0,0.0,0.0,0.0,0.0,0.0,0.0,0.0,0.0,0.0,0.0,0.0,0.0,0.0,0.0,0.0,0.0,0.0,0.0,0.0,0.0,0.0,0.0,0.0,0.0,0.0,0.0,0.0,0.0,0.0,0.0,0.0,0.0,0.0,0.0,0.0,0.0,0.0,0.0,0.0,0.0,0.0,0.0,0.0,0.0,0.0,0.0,0.0,0.0,0.0,0.0,0.0,0.0,0.0,0.0,0.0,0.0,0.0,0.0,0.0,0.0,0.0,0.0,0.0,0.0,0.0,0.0,0.0,0.0,0.0,0.0,0.0,0.0,0.0,0.0,0.0,-1.5966,-1.8999,-2.1374,-2.2566,-2.2724,-2.2413,-2.1754,-2.1096,-1.9405,-1.6353,0.0,0.0,0.0,0.0,0.0,0.0,0.0,0.0,0.0,0.0,0.0,0.0,0.0,0.0,0.0,0.0,0.0,0.0,0.0,0.0,0.0,0.0,0.0,0.0,0.0,0.0,0.0,0.0,0.0,0.0,0.0,0.0,0.0,0.0,0.0,0.0,0.0,0.0,0.0,0.0,0.0,0.0,0.0,0.0,0.0,0.0,0.0,0.0,0.0,0.0,0.0,0.0,0.0,0.0,0.0,0.0,0.0,0.0,0.0,0.0,0.0,0.0,0.0,0.0,0.0,0.0,0.0,0.0,0.0,0.0,0.0,0.0,0.0,0.0,0.0,0.0,0.0,0.0,0.0,0.0,0.0,0.0,0.0,0.0,0.0,0.0,0.0,0.0,0.0,0.0,0.0,0.0,0.0,0.0,0.0,0.0,0.0,0.0,0.0,0.0,0.0,0.0,-1.6116,-1.9095,-2.1415,-2.2566,-2.2622,-2.2338,-2.1739,-2.1036,-1.9504,-1.6965,0.0,0.0,0.0,0.0,0.0,0.0,0.0,0.0,0.0,0.0,0.0,0.0,0.0,0.0,0.0,0.0,0.0,0.0,0.0,0.0,0.0,0.0,0.0,0.0,0.0,0.0,0.0,0.0,0.0,0.0,0.0,0.0,0.0,0.0,0.0,0.0,0.0,0.0,0.0,0.0,0.0,0.0,0.0,0.0,0.0,0.0,0.0,0.0,0.0,0.0,0.0,0.0,0.0,0.0,0.0,0.0,0.0,0.0,0.0,0.0,-1.7375,0.0,0.0,0.0,0.0,0.0,0.0,0.0,0.0,0.0,0.0,0.0,0.0,0.0,0.0,0.0,0.0,0.0,0.0,0.0,0.0,0.0,0.0,0.0,0.0,0.0,0.0,0.0,0.0,0.0,0.0,0.0,0.0,0.0,0.0,0.0,0.0,0.0,0.0,0.0,0.0,0.0,-1.7124,-1.9812,-2.1813,-2.2607,-2.2218,-2.1844,-2.171,-2.0587,-1.9226,-1.7578,0.0,0.0,0.0,0.0,0.0,0.0,0.0,0.0,0.0,0.0,0.0,0.0,0.0,0.0,0.0,0.0,0.0,0.0,0.0,0.0,0.0,0.0,0.0,0.0,0.0,0.0,0.0,0.0,0.0,0.0,0.0,0.0,0.0,0.0,0.0,0.0,0.0,0.0,0.0,0.0,0.0,0.0,0.0,0.0,0.0,0.0,0.0,0.0,0.0,0.0,0.0,0.0,0.0,0.0,0.0,0.0,0.0,0.0,0.0,0.0,0.0,-1.8932,0.0,0.0,0.0,0.0,0.0,0.0,0.0,0.0,0.0,0.0,0.0,0.0,0.0,0.0,0.0,0.0,0.0,0.0,0.0,0.0,0.0,0.0,0.0,0.0,0.0,0.0,0.0,0.0,0.0,0.0,0.0,0.0,0.0,0.0,0.0,0.0,0.0,0.0,0.0,0.0,-1.8295,-2.0438,-2.2054,-2.3011,-2.2263,-2.1695,-2.1695,-2.0468,-1.9256,-1.822,-1.7266,0.0,0.0,0.0,0.0,0.0,0.0,0.0,0.0,0.0,0.0,0.0,0.0,0.0,0.0,0.0,0.0,0.0,0.0,0.0,0.0,0.0,0.0,0.0,0.0,0.0,0.0,0.0,0.0,0.0,0.0,0.0,0.0,0.0,0.0,0.0,0.0,0.0,0.0,0.0,0.0,0.0,0.0,0.0,0.0,0.0,0.0,0.0,0.0,0.0,0.0,0.0,0.0,0.0,-2.318,-2.3591,-2.3703,-2.4698,-2.5186,-2.5272,-2.2962,-2.1945,-2.1782,0.0,0.0,0.0,0.0,0.0,0.0,0.0,0.0,0.0,0.0,0.0,0.0,0.0,0.0,0.0,0.0,0.0,0.0,0.0,0.0,0.0,0.0,0.0,0.0,0.0,-1.9384,-1.9196,0.0,0.0,0.0,0.0,0.0,0.0,0.0,0.0,0.0,0.0,0.0,0.0,-1.948,-2.1036,-2.2308,-2.3475,-2.2458,-2.1695,-2.1695,-2.0468,-1.945,-1.8912,-1.8268,-1.7416,0.0,0.0,0.0,0.0,0.0,0.0,0.0,0.0,0.0,0.0,0.0,0.0,0.0,0.0,0.0,0.0,0.0,0.0,0.0,0.0,0.0,0.0,0.0,0.0,0.0,0.0,0.0,0.0,0.0,0.0,0.0,0.0,-1.1217,-1.1727,0.0,0.0,0.0,0.0,0.0,0.0,0.0,0.0,0.0,0.0,0.0,0.0,0.0,0.0,-1.9667,-2.167,-2.282,-2.2967,-2.4554,-2.5509,-2.6041,-2.6184,-2.6773,-2.7645,-2.7281,0.0,-2.3602,-2.2811,0.0,0.0,0.0,0.0,0.0,0.0,0.0,0.0,0.0,0.0,0.0,0.0,0.0,0.0,0.0,0.0,0.0,0.0,0.0,0.0,0.0,0.0,-2.0752,-2.0467,-2.0815,-2.0991,0.0,-1.8711,-1.7247,-1.5515,-1.4886,0.0,0.0,0.0,0.0,0.0,0.0,0.0,-2.0378,-2.1739,-2.2817,-2.3535,-2.2458,-2.1695,-2.1695,-2.0468,-1.9645,-1.9555,-1.8942,-1.8493,-1.8328,-1.6593,0.0,0.0,0.0,0.0,0.0,0.0,0.0,0.0,0.0,0.0,0.0,0.0,0.0,0.0,0.0,0.0,0.0,0.0,0.0,0.0,0.0,0.0,0.0,0.0,0.0,0.0,0.0,0.0,0.0,-1.0703,-1.242,-1.2578,-1.3184,-1.334,0.0,0.0,0.0,0.0,0.0,0.0,0.0,0.0,0.0,-1.8779,-2.0272,-2.1422,-2.2224,-2.4075,-2.4919,-2.5015,-2.5753,-2.6278,-2.6485,-2.7105,-2.7663,-2.8139,-2.8799,-2.8185,-2.6653,-2.5146,-2.359,-2.2046,0.0,0.0,0.0,0.0,-2.03,-2.0602,-2.1242,-2.1619,0.0,0.0,0.0,0.0,0.0,0.0,0.0,0.0,0.0,0.0,0.0,0.0,0.0,-2.1568,-2.202,-2.2259,-2.1707,-2.1326,-2.0435,0.0,-1.7909,-1.767,-1.6142,0.0,0.0,0.0,0.0,0.0,-2.159,-2.2323,-2.2921,-2.3535,-2.2458,-2.1695,-2.1695,-2.0468,-1.969,-1.969,-1.9405,-1.9256,-1.9256,-1.8074,-1.6623,0.0,0.0,0.0,0.0,0.0,0.0,0.0,0.0,0.0,0.0,0.0,0.0,0.0,0.0,0.0,0.0,0.0,0.0,0.0,0.0,0.0,0.0,0.0,0.0,0.0,0.0,0.0,0.0,-1.209,-1.3486,-1.3379,-1.4404,-1.4873,0.0,0.0,0.0,0.0,0.0,0.0,-1.8154,-1.9004,-1.9805,-2.0557,-2.2088,-2.3287,-2.3876,-2.505,-2.5641,-2.5641,-2.5641,-2.5808,-2.613,-2.7197,-2.7844,-2.8176,-2.9287,-2.9553,-2.9001,-2.7042,-2.5686,-2.472,-2.359,-2.2899,-2.2585,-2.3,-2.315,-2.3276,-2.4117,-2.4406,-2.4205,-2.2949,0.0,-2.1794,-2.0012,0.0,0.0,0.0,0.0,-2.0338,-2.1443,-2.1933,-2.2234,-2.2648,-2.2937,-2.2965,-2.2611,-2.2904,-2.2622,0.0,-2.0716,-2.0762,-1.8854,0.0,0.0,0.0,0.0,-2.103,-2.2529,-2.2817,-2.3086,-2.355,-2.2607,-2.1874,-2.171,-2.0617,-1.9869,-1.969,-1.969,-1.969,-1.969,-1.9211,-1.8104,-1.6338,0.0,0.0,0.0,0.0,0.0,0.0,0.0,0.0,0.0,0.0,0.0,0.0,0.0,0.0,0.0,0.0,0.0,0.0,0.0,0.0,0.0,0.0,0.0,0.0,0.0,0.0,0.0,0.0,0.0,-1.4736,-1.6543,0.0,0.0,0.0,0.0,-1.7812,-1.8643,-1.9502,-2.0361,-2.124,-2.1924,-2.2373,-2.2812,-2.3144,-2.3183,-2.3202,-2.3299,-2.3299,-2.3299,-2.38,-2.4957,-2.6058,-2.7128,-2.8176,-2.9287,-2.9779,-2.9654,-2.8473,-2.7645,-2.7005,-2.5875,-2.541,-2.5398,-2.5423,-2.5423,-2.5435,-2.5498,-2.5511,-2.5498,-2.5423,-2.4707,-2.3753,-2.3088,-2.2146,0.0,0.0,-2.2865,-2.3188,-2.4318,-2.4243,-2.3879,-2.3904,-2.3514,-2.3065,-2.304,-2.3088,-2.2968,0.0,-2.2929,-2.3158,-2.2527,0.0,-2.2263,-2.1635,-2.2099,-2.2604,-2.2709,-2.3191,-2.3565,-2.3595,-2.3011,-2.2368,-2.1739,-2.1051,-2.0378,-1.9735,-1.969,-1.969,-1.969,-1.966,-1.9001,-1.7623,-1.6338,0.0,0.0,0.0,0.0,0.0,0.0,0.0,0.0,0.0,0.0,0.0,0.0,0.0,0.0,0.0,0.0,0.0,0.0,0.0,0.0,0.0,0.0,0.0,0.0,0.0,0.0,0.0,0.0,-1.6816,-1.8262,0.0,0.0,-1.8662,-1.9189,-1.9619,-2.0469,-2.1211,-2.1787,-2.2373,-2.2891,-2.332,-2.3477,-2.3691,-2.3955,-2.3965,-2.3828,-2.3555,-2.3555,-2.3575,-2.38,-2.5641,-2.6719,-2.7209,-2.904,-2.9792,-2.9767,-2.9352,-2.885,-2.8298,-2.7896,-2.7519,-2.7205,-2.7205,-2.7205,-2.7205,-2.7205,-2.6979,-2.6553,-2.5837,-2.5109,-2.4494,-2.428,-2.3941,-2.3715,-2.4104,-2.4217,-2.4318,-2.472,-2.4669,-2.4443,-2.4079,-2.3841,-2.359,-2.3153,-2.3078,-2.3352,-2.4218,-2.4243,-2.4042,-2.3956,-2.3924,-2.3699,-2.3026,-2.3116,-2.3266,-2.3266,-2.346,-2.3595,-2.3595,-2.3041,-2.2413,-2.1754,-2.1096,-2.0423,-1.9735,-1.969,-1.969,-1.969,-1.969,-1.9076,-1.7712,-1.6816,-1.5081,0.0,0.0,0.0,0.0,0.0,0.0,0.0,0.0,0.0,0.0,0.0,0.0,0.0,0.0,0.0,0.0,0.0,0.0,0.0,0.0,0.0,0.0,0.0,0.0,0.0,0.0,-1.7803,-1.8379,-1.9707,-2.0352,-1.9775,-2.0371,-2.0908,-2.1201,-2.1894,-2.2432,-2.2715,-2.3125,-2.3496,-2.3779,-2.3926,-2.4141,-2.4414,-2.4414,-2.4277,-2.4004,-2.4004,-2.3769,-2.3359,-2.5296,-2.6296,-2.6565,-2.845,-2.9443,-2.9792,-2.9792,-2.9566,-2.9214,-2.9214,-2.9001,-2.8674,-2.8674,-2.8674,-2.8649,-2.8448,-2.8021,-2.7406,-2.6477,-2.5925,-2.5624,-2.5435,-2.5372,-2.5372,-2.5372,-2.5372,-2.5372,-2.5372,-2.5222,-2.4946,-2.4406,-2.413,-2.3841,-2.3263,-2.3078,-2.3471,-2.4781,-2.4902,-2.4868,-2.5216,-2.5285,-2.4986,-2.4088,-2.3939,-2.3864,-2.3625,-2.3595,-2.3595,-2.3595,-2.3236,-2.2637,-2.1769,-2.1291,-2.0662,-1.975,-1.969,-1.969,-1.969,-1.9465,-1.8942,-1.8041,-1.695,-1.5615,-1.3998,0.0,0.0,0.0,0.0,0.0,0.0,0.0,0.0,0.0,0.0,0.0,0.0,0.0,0.0,0.0,0.0,0.0,0.0,0.0,0.0,0.0,0.0,0.0,-1.6753,-1.8281,-1.9355,-1.9385,-2.0889,-2.1592,-2.0732,-2.1787,-2.2529,-2.2529,-2.292,-2.3154,-2.3154,-2.3574,-2.3818,-2.3828,-2.4228,-2.4443,-2.4453,-2.4453,-2.4453,-2.4434,-2.4434,-2.4209,-2.3879,-2.4907,-2.5755,-2.6565,-2.7602,-2.8767,-2.9792,-2.9792,-2.9792,-2.9792,-2.9792,-2.9792,-2.9792,-2.9792,-2.9792,-2.9704,-2.9126,-2.8574,-2.8034,-2.7469,-2.7281,-2.718,-2.6697,-2.6533,-2.6533,-2.6533,-2.6533,-2.6533,-2.6533,-2.605,-2.5485,-2.4971,-2.4431,-2.3866,-2.3288,-2.3078,-2.3365,-2.4118,-2.4908,-2.564,-2.6461,-2.6602,-2.6153,-2.4836,-2.4612,0.0,-2.3714,-2.361,-2.3595,-2.3595,-2.3595,-2.3086,-2.1829,-2.171,-2.1126,-1.9794,-1.969,-1.969,-1.969,-1.9076,-1.8732,-1.8702,-1.6818,-1.6026,-1.6405,0.0,0.0,0.0,0.0,0.0,0.0,0.0,0.0,0.0,0.0,0.0,0.0,0.0,0.0,0.0,0.0,0.0,0.0,0.0,0.0,0.0,0.0,-1.9053,-1.8654,-1.9805,-2.0928,-2.1553,-2.2314,-2.2705,-2.2451,-2.2754,-2.2969,-2.2969,-2.3369,-2.3613,-2.3613,-2.4014,-2.4385,-2.4707,-2.4824,-2.5049,-2.5371,-2.5371,-2.5205,-2.4893,-2.4893,-2.4502,-2.3879,-2.4907,-2.5755,-2.6565,-2.7602,-2.8767,-2.9792,-2.9792,-2.9792,-2.9792,-2.9792,-2.9792,-2.9792,-2.9792,-2.9792,-2.9704,-2.9126,-2.8825,-2.8549,-2.7595,-2.7281,-2.718,-2.6697,-2.6533,-2.6533,-2.6533,-2.6533,-2.6533,-2.6533,-2.6408,-2.6088,-2.5523,-2.4983,-2.4443,-2.3879,-2.3427,-2.3365,-2.4118,-2.4908,-2.5617,-2.6385,-2.6589,-2.6467,-2.6108,-2.5241,0.0,-2.4373,-2.3909,-2.3595,-2.3595,-2.3595,-2.3266,-2.2473,-2.1964,-2.1335,-2.0483,-1.9959,-1.969,-1.969,-1.951,-1.9196,-1.8717,-1.7236,-1.6454,0.0,0.0,0.0,0.0,0.0,0.0,0.0,0.0,0.0,0.0,0.0,0.0,0.0,0.0,0.0,0.0,0.0,0.0,0.0,0.0,0.0,0.0,-1.9528,-2.0891,-2.0693,-2.1289,-2.2021,-2.2695,-2.2988,-2.3135,-2.3135,-2.3135,-2.3213,-2.3398,-2.3652,-2.3867,-2.4043,-2.4453,-2.4805,-2.5059,-2.5254,-2.5478,-2.5742,-2.5742,-2.5605,-2.5352,-2.5352,-2.499,-2.4408,-2.5276,-2.6055,0.0,-2.7696,-2.8767,-2.9792,-2.9792,-2.9792,0.0,0.0,0.0,0.0,0.0,-2.9792,-2.9741,-2.9402,-2.9289,-2.9139,-2.826,-2.7971,-2.7821,-2.7042,-2.6804,-2.6753,-2.6596,-2.6533,-2.6533,-2.6533,-2.6533,-2.6382,-2.5737,-2.5197,-2.4669,-2.4117,-2.354,-2.3365,-2.4118,-2.4908,0.0,-2.6336,-2.6777,-2.6901,-2.6632,-2.5704,-2.4941,-2.4627,-2.4029,-2.3595,-2.3595,-2.3595,-2.3355,-2.2727,-2.2323,0.0,0.0,0.0,-1.9869,-1.9286,-1.9271,0.0,0.0,0.0,0.0,0.0,0.0,0.0,0.0,-1.9088,-1.8956,0.0,0.0,0.0,0.0,0.0,0.0,0.0,0.0,0.0,0.0,0.0,0.0,0.0,0.0,0.0,0.0,-2.0889,-2.21,-2.2519,-2.2578,-2.2725,-2.3096,-2.3135,-2.3135,-2.3135,-2.3184,-2.3379,-2.376,-2.3877,-2.4092,-2.4473,0.0,0.0,0.0,0.0,-2.5742,-2.5742,-2.5742,-2.5742,-2.5742,-2.5742,-2.5508,-2.5153,-2.5747,-2.6338,-2.6912,-2.7638,-2.8578,-2.9624,-2.9624,-2.9624,-2.9624,-2.9792,-2.9792,-2.9792,-2.9792,-2.9792,-2.9792,-2.9792,0.0,0.0,-2.9114,-2.8888,-2.8637,-2.7595,-2.7243,-2.708,-2.6603,-2.6533,-2.6533,-2.6533,-2.6533,-2.6395,-2.5812,-2.5297,-2.4757,-2.4217,-2.364,-2.3441,-2.4131,-2.4908,-2.5618,-2.6336,-2.7086,-2.743,-2.6782,-2.6138,-2.548,-2.4776,-2.4148,-2.3684,-2.361,0.0,0.0,-2.2873,-2.2753,-2.2173,-2.1006,-2.0857,-2.0288,-1.9091,-1.9046,-1.9239,-1.9644,-2.0335,-2.1386,-2.2734,-2.3539,-2.4147,-2.4574,-2.1803,-2.16,0.0,0.0,0.0,0.0,0.0,0.0,0.0,0.0,0.0,0.0,0.0,0.0,0.0,0.0,0.0,-2.0635,-2.1719,-2.2539,-2.2959,-2.3018,-2.3047,-2.3125,-2.3135,-2.3135,-2.3135,-2.3457,-2.3701,-2.3779,-2.4434,-2.4853,-2.4941,-2.5371,0.0,-2.5605,-2.5693,-2.5742,-2.5742,-2.5742,-2.5742,-2.5742,0.0,0.0,-2.5059,-2.5253,-2.5402,-2.5752,-2.6834,-2.7742,-2.8426,-2.8426,-2.8426,-2.8518,-2.9443,-2.9792,-2.9792,-2.9792,-2.9792,-2.9792,-2.9792,-2.9792,-2.9691,-2.9114,-2.8624,-2.8147,-2.7482,-2.6967,0.0,-2.6559,-2.6533,-2.6533,-2.6533,-2.6533,-2.6496,-2.6314,-2.585,-2.531,-2.477,-2.4217,-2.3936,-2.421,-2.4908,-2.5618,-2.6336,-2.7086,-2.758,-2.7445,-2.6826,-2.6153,-2.5495,-2.4837,-2.4223,-2.3655,-2.3595,-2.355,-2.343,-2.2966,-2.2604,-2.2308,-2.1799,-2.1395,-2.1126,-2.1126,-2.115,-2.1265,-2.1778,-2.2362,-2.3034,-2.362,-2.4413,-2.5372,-2.4171,-2.3849,0.0,0.0,0.0,0.0,0.0,0.0,0.0,0.0,0.0,0.0,0.0,-1.6929,0.0,0.0,-2.0615,-2.1699,-2.2412,-2.29,-2.3105,-2.3135,-2.3135,-2.3135,-2.3135,-2.3135,-2.3135,-2.3535,-2.3877,-2.4092,-2.4707,-2.5166,-2.5391,-2.5615,-2.5742,-2.5742,-2.5742,-2.5742,-2.5742,-2.5742,-2.5742,-2.5742,-2.5742,-2.5615,-2.5391,-2.5714,-2.6003,-2.6072,-2.6812,-2.7307,-2.7543,-2.7383,-2.7279,-2.7452,-2.853,-2.9275,-2.9792,-2.9792,-2.9792,-2.9792,-2.9792,-2.9792,-2.9741,-2.9453,-2.9176,-2.8787,-2.7946,-2.7507,-2.7168,-2.6615,-2.6533,-2.6533,-2.6533,-2.6533,-2.6533,-2.6533,-2.6013,-2.5448,-2.4933,-2.4393,-2.4185,-2.4731,-2.5119,-2.5728,-2.6878,-2.7357,-2.7625,-2.7625,-2.7006,-2.6363,-2.5689,-2.5031,-2.4313,-2.367,-2.3595,-2.3595,-2.3595,-2.3041,-2.2724,-2.2724,-2.2054,-2.1695,-2.1695,-2.1695,-2.1798,-2.2017,-2.2852,-2.3526,-2.3935,-2.4845,-2.5581,-2.6133,-2.5761,-2.5592,0.0,0.0,0.0,0.0,0.0,0.0,0.0,0.0,-1.3104,-1.476,-1.6119,-1.7672,-1.9716,-2.0668,-2.1472,-2.2415,-2.292,-2.3135,-2.3135,-2.3135,-2.3135,-2.3135,-2.3135,-2.3135,-2.3135,-2.3613,-2.4053,-2.4394,-2.4902,-2.5361,-2.5723,-2.5742,-2.5742,-2.5742,-2.5742,-2.5742,-2.5742,-2.5742,-2.5742,-2.5742,-2.5742,-2.5742,-2.5723,-2.6273,-2.6362,-2.6238,-2.653,-2.662,-2.6683,-2.6546,-2.6483,-2.6637,-2.7683,-2.8767,-2.9792,-2.9792,-2.9792,-2.9792,-2.9792,-2.9792,-2.9792,-2.9792,-2.9716,-2.9428,-2.8411,-2.8034,-2.7733,-2.6741,-2.6533,-2.6533,-2.6533,-2.6533,-2.6533,-2.6533,-2.6101,-2.5586,-2.4958,-2.4469,-2.4361,-2.5043,-2.5287,-2.5837,-2.7137,-2.7524,-2.7625,-2.7625,-2.7126,-2.6542,-2.5884,-2.5226,-2.4552,-2.3879,-2.3684,-2.3595,-2.3595,-2.3131,-2.2862,-2.2862,-2.2353,-2.2069,-2.2069,-2.2069,-2.2199,-2.2562,-2.3749,-2.4555,-2.4879,-2.61,-2.6691,-2.6691,-2.6691,-2.6691,-1.1323,-1.0874,-1.058,-1.126,-1.1168,-1.1403,0.0,0.0,-1.523,-1.6184,-1.7288,-1.8574,-2.0287,-2.0698,-2.1262,-2.2805,-2.3105,-2.3135,-2.3135,-2.3135,-2.3135,-2.3135,-2.3135,-2.3135,-2.3135,-2.3867,-2.4365,-2.4414,-2.5195,-2.5684,-2.5742,-2.5742,-2.5742,-2.5742,-2.5742,-2.5742,-2.5742,-2.5742,-2.5742,-2.5742,-2.5742,-2.5742,-2.5732,-2.5781,-2.5415,-2.47,-2.4933,-2.5031,-2.5115,-2.608,-2.6483,-2.6637,-2.7683,-2.8767,-2.9792,-2.9792,-2.9792,-2.9792,-2.9792,-2.9792,-2.9792,-2.9792,-2.9453,-2.8913,-2.8298,-2.7758,-2.7256,-2.6697,-2.6533,-2.6533,-2.6533,-2.6533,-2.6533,-2.6533,-2.6483,-2.6088,-2.5046,-2.477,-2.4659,-2.4445,-2.4951,-2.5673,-2.6496,-2.7152,-2.7625,-2.7625,-2.7565,-2.723,-2.6557,-2.5899,-2.5241,-2.4537,-2.3969,-2.3595,-2.3595,-2.3535,-2.349,-2.349,-2.343,-2.3385,-2.3385,-2.3385,-2.3428,-2.3456,-2.4516,-2.5093,-2.5185,-2.6195,-2.6691,-2.6691,-2.6691,-2.6691,-1.1974,0.0,0.0,0.0,-1.2621,-1.3053,-1.4041,-1.4672,-1.549,-1.6662,-1.8006,-1.9351,-2.0748,-2.1604,-2.2292,0.0,-2.3135,-2.3135,-2.3135,-2.3135,-2.3135,-2.3135,-2.3135,-2.3135,-2.3135,-2.3691,-2.415,-2.4394,-2.499,-2.5459,-2.5723,-2.5742,-2.5742,-2.5742,-2.5742,-2.5742,-2.5742,-2.5742,-2.5742,-2.5742,-2.5742,-2.5742,-2.5742,-2.5742,-2.5254,-2.4394,-2.4556,-2.4273,-2.3887,-2.4307,-2.4563,-2.4723,-2.6461,-2.7464,-2.8051,-2.93,-2.9792,-2.9792,-2.9792,-2.9792,-2.9792,-2.9792,-2.9628,-2.9264,-2.8373,-2.7946,-2.7582,-2.6703,-2.6533,-2.6533,-2.6533,-2.6533,-2.6533,-2.6533,-2.6533,-2.6163,-2.5059,-2.482,-2.4672,-2.4341,-2.4908,-2.5618,-2.6336,-2.7086,-2.7625,-2.7625,-2.7625,-2.7335,-2.6677,-2.6348,-2.5779,-2.4686,-2.4014,-2.3595,-2.3595,-2.3595,-2.3595,-2.3595,-2.3595,-2.3595,-2.3595,-2.3595,-2.3595,-2.3595,-2.4348,-2.491,-2.5221,-2.5944,-2.6436,-2.6691,-2.6691,-2.6691,-1.1998,0.0,0.0,-1.2898,-1.3607,-1.4349,-1.4429,-1.5103,-1.6063,-1.7076,-1.8419,-1.9701,-2.0864,-2.1864,0.0,-2.2872,-2.3066,-2.3135,-2.3135,-2.3135,-2.3135,-2.3135,-2.3135,-2.3135,-2.3135,-2.3535,-2.3965,-2.4385,-2.4814,-2.5264,-2.5713,-2.5742,-2.5742,-2.5742,-2.5742,-2.5742,-2.5742,-2.5742,-2.5742,-2.5742,-2.5742,-2.5742,-2.5732,-2.5605,-2.5205,-2.458,-2.4346,-2.3896,-2.331,-2.3184,-2.3309,-2.38,-2.5724,-2.6719,-2.7209,-2.9118,-2.9792,-2.9792,-2.9792,-2.9792,-2.9792,-2.9792,-2.9792,-2.9578,-2.8448,-2.8109,-2.7871,-2.6766,-2.6533,-2.6533,-2.6533,-2.6533,-2.6533,-2.6533,-2.6533,-2.6163,-2.5059,-2.482,-2.4608,-2.4059,-2.4724,-2.5563,-2.6122,-2.6982,-2.7625,-2.7625,-2.7625,-2.7395,-2.6916,-2.6542,-2.5884,-2.4701,-2.4014,-2.3595,-2.3595,-2.3595,-2.3595,-2.3595,-2.3595,-2.3595,-2.3595,-2.3595,-2.3595,-2.3595,-2.4116,-2.4657,-2.5221,-2.5726,-2.6227,-2.6691,-2.6691,-2.681,0.0,0.0,-1.2869,-1.312,-1.4075,-1.501,-1.5291,-1.6501,-1.7662,-1.7669,-1.8312,-1.9226,-2.0464,-2.0734,-2.1185,-2.2349,-2.2871,-2.3135,-2.3135,-2.3135,-2.3135,-2.3135,-2.3135,-2.3135,0.0,-2.3535,-2.3965,-2.4385,-2.4814,-2.5264,-2.5713,-2.5742,-2.5742,-2.5742,-2.5742,-2.5742,-2.5742,-2.5742,-2.5742,-2.5742,-2.5742,-2.5742,-2.5723,-2.5283,-2.5068,-2.5,-2.417,-2.3799,-2.374,-2.331,-2.3714,-2.4872,-2.6058,-2.7128,-2.8176,-2.9365,-2.9792,-2.9792,-2.9792,-2.9792,-2.9792,-2.9792,-2.9792,-2.9578,-2.8448,-2.8109,-2.7871,-2.6766,-2.6533,-2.6533,-2.6533,-2.6533,-2.6533,-2.6533,-2.6533,-2.6163,-2.5059,-2.482,-2.4494,-2.3351,-2.4381,-2.5398,-2.5453,-2.6654,-2.7625,-2.7625,-2.7625,-2.761,-2.7595,-2.6422,-2.5375,-2.4657,-2.4014,-2.3595,-2.3595,-2.3595,-2.3595,-2.3595,-2.3595,-2.3595,-2.3595,-2.3595,-2.3595,-2.3595,-2.4116,-2.4657,-2.5221,-2.5726,-2.6227,-2.6691,-2.6691,-2.708,0.0,0.0,-1.3507,-1.4202,-1.4816,-1.5599,-1.6622,-1.6685,-1.6786,-1.8107,-1.8402,-1.8696,-1.964,-2.0458,-2.1244,-2.1967,-2.2451,-2.2822,-2.3096,-2.3135,-2.3135,-2.3135,-2.3135,0.0,0.0,0.0,0.0,-2.3965,-2.4394,-2.4824,-2.5273,-2.5576,-2.5742,-2.5742,-2.5742,-2.5742,-2.5742,-2.5742,-2.5742,-2.5742,-2.5742,-2.5742,-2.5732,-2.5586,-2.5195,-2.4619,-2.4336,-2.3877,-2.335,-2.3203,-2.3299,-2.38,-2.4967,-2.6047,-2.7209,-2.8279,-2.9118,-2.9792,-2.9792,-2.9792,-2.9792,-2.9792,-2.9792,-2.9578,-2.8448,-2.8109,-2.7871,-2.6766,-2.6533,-2.6533,-2.6533,-2.6533,-2.6533,-2.6533,-2.6533,-2.6319,-2.5498,-2.5335,-2.5008,-2.3916,-2.4919,-2.5811,-2.5467,-2.664,-2.7625,-2.7625,-2.7625,-2.7625,-2.7625,-2.6797,-2.6019,-2.536,-2.4672,-2.4103,-2.364,-2.3595,-2.3595,-2.3595,-2.3595,-2.3595,-2.3595,-2.3595,-2.3595,-2.3595,-2.3752,-2.4307,-2.5221,-2.5373,-2.5908,-2.6691,-2.6691,-2.7097,0.0,-1.35,-1.4142,-1.4923,-1.5337,-1.5758,-1.6665,-1.6865,-1.718,-1.8233,-1.86,-1.9,-1.9485,-2.0068,-2.0781,-2.1533,-2.2012,-2.2539,-2.3271,-2.3242,-2.3252,-2.3555,-2.3467,0.0,0.0,0.0,0.0,-2.3994,-2.4414,-2.4844,-2.5283,-2.5586,-2.5742,-2.5742,-2.5742,-2.5742,-2.5742,-2.5742,-2.5742,-2.5742,-2.5742,-2.5742,-2.5732,-2.5566,-2.5185,-2.4629,-2.4326,-2.3877,-2.3359,-2.3203,-2.3135,-2.3222,-2.4372,-2.5462,-2.6637,-2.7683,-2.8846,-2.9792,-2.9792,-2.9792,-2.9792,-2.9792,-2.9792,-2.9578,-2.8448,-2.8109,-2.7871,-2.6766,-2.6533,-2.6533,-2.6533,-2.6533,-2.6533,-2.6533,-2.6533,-2.6302,-2.5724,-2.5598,-2.5272,-2.4205,-2.521,-2.6059,-2.5508,-2.664,-2.7625,-2.7625,-2.7625,-2.7625,-2.7625,-2.6991,-2.6422,-2.6004,-2.5375,-2.4702,-2.4029,-2.3969,-2.3969,-2.3969,-2.3969,-2.3969,-2.3969,-2.3969,-2.3849,-2.3595,-2.3595,-2.4032,-2.4894,-2.5105,-2.5524,-2.6175,-2.6808,-2.7382,-1.3521,-1.42,-1.4784,-1.5369,-1.5625,-1.5752,-1.5643,-1.7146,-1.8513,-1.7953,-1.8804,-1.9691,0.0,0.0,-1.9639,-2.0928,-2.1553,-2.2334,-2.3613,-2.3437,-2.3486,0.0,0.0,0.0,0.0,0.0,0.0,-2.4453,0.0,-2.5254,-2.5684,-2.5723,-2.5742,-2.5742,-2.5742,-2.5742,-2.5742,-2.5742,-2.5742,-2.5742,-2.5742,-2.5742,-2.5723,-2.5273,-2.5059,-2.499,-2.415,-2.3779,-2.3721,-2.331,-2.3135,-2.3222,-2.4296,-2.5378,-2.6554,-2.7602,-2.8767,-2.9702,-2.9792,-2.9792,-2.9792,-2.9792,-2.9792,-2.9591,-2.8486,-2.8134,-2.7883,-2.6804,-2.6546,-2.6533,-2.6533,-2.6533,-2.6533,-2.6533,-2.6533,-2.6314,-2.5762,-2.5636,-2.5322,-2.4255,-2.515,-2.596,-2.555,-2.6602,-2.7575,-2.7575,-2.7625,-2.7625,-2.7625,-2.7021,-2.6632,-2.6587,-2.6033,-2.539,-2.4686,-2.4627,-2.4627,-2.4627,-2.4627,-2.4627,-2.4627,-2.4597,-2.4313,-2.367,-2.3625,-2.3879,-2.4389,-2.491,-2.5182,-2.5237,-2.6959,-2.7908,-1.5584,-1.6074,-1.6577,-1.6999,-1.6425,-1.6209,-1.7606,-1.714,-1.6938,-1.8597,-1.7714,-1.6738,-1.7019,0.0,0.0,-1.9629,-2.0967,0.0,-2.3613,-2.3691,0.0,0.0,0.0,-2.4297,-2.4404,-2.4717,0.0,0.0,-2.5,-2.5117,-2.5234,-2.5557,-2.5742,-2.5742,-2.5742,-2.5742,-2.5742,-2.5742,-2.5742,-2.5742,-2.5742,-2.5742,-2.5723,-2.5273,-2.4893,-2.4551,-2.4023,-2.3603,-2.3301,-2.3184,-2.3135,-2.3135,-2.3377,-2.4211,-2.5378,-2.6461,-2.7614,-2.8676,-2.9534,-2.9792,-2.9792,-2.9792,-2.9792,-2.9654,-2.8938,-2.8436,-2.7959,-2.7268,-2.6779,-2.6533,-2.6533,-2.6533,-2.6533,-2.6533,-2.6533,-2.6483,-2.6264,-2.6239,-2.5912,-2.482,-2.4702,-2.5084,-2.6042,-2.6549,-2.6982,-2.7524,-2.7625,-2.7625,-2.7625,-2.7475,-2.7126,-2.6632,-2.6437,-2.6078,-2.542,-2.536,-2.536,-2.536,-2.536,-2.536,-2.536,-2.4896,-2.4507,-2.4373,-2.3864,-2.3879,-2.4389,-2.4552,-2.4831,-2.5237,-2.6627,-2.7367,-1.6016,-1.6202,-1.6615,-1.6807,-1.6195,-1.5821,-1.6401,-1.6164,-1.596,-1.6563,-1.6056,0.0,0.0,0.0,0.0,0.0,0.0,0.0,-2.3301,-2.3672,-2.4014,0.0,-2.4697,0.0,-2.498,-2.5215,-2.5361,0.0,-2.5361,-2.5361,-2.5361,-2.5596,-2.5742,-2.5742,-2.5742,-2.5742,-2.5742,-2.5742,-2.5742,-2.5742,-2.5742,-2.5635,-2.543,-2.498,-2.4541,-2.4121,0.0,-2.3359,-2.3135,-2.3135,-2.3135,-2.3135,-2.3135,-2.38,-2.4957,-2.6058,-2.7209,-2.8255,-2.9365,-2.9792,-2.9792,-2.9792,-2.9792,-2.9679,-2.9101,-2.8549,-2.7996,-2.7444,-2.6892,-2.6533,-2.6533,-2.6533,-2.6533,-2.6533,-2.6533,-2.6533,-2.6533,-2.6533,-2.6261,-2.5435,-2.5011,-2.5119,-2.6283,-2.6774,-2.7137,-2.7524,-2.7625,-2.7625,-2.7625,-2.7625,-2.7475,-2.7066,-2.7021,-2.6752,-2.6093,-2.6033,-2.6033,-2.6033,-2.6033,-2.6033,-2.6033,-2.542,-2.4881,-2.4582,-2.3954,-2.3767,-2.4032,-2.4282,-2.4708,-2.5385,-2.6857,-2.7653,-1.5931,-1.5999,-1.6015,-1.6015,-1.5671,-1.5044,-1.4061,-1.4702,-1.5154,-1.376,0.0,0.0,-1.5088,0.0,-1.6543,-1.8271,0.0,-2.1191,-2.2978,-2.3603,-2.417,-2.4971,-2.5117,-2.5312,-2.5703,-2.5742,-2.5742,-2.5742,-2.5742,-2.5742,-2.5742,-2.5742,-2.5742,-2.5742,-2.5742,-2.5742,-2.5742,-2.5742,-2.5742,-2.5742,-2.5674,-2.5449,-2.5049,-2.456,-2.4141,-2.3769,0.0,0.0,-2.3135,-2.3135,-2.3135,-2.3135,-2.3135,-2.3714,-2.4713,-2.588,-2.6953,-2.8016,-2.9197,-2.9702,-2.9792,-2.9792,-2.9792,-2.9691,-2.9202,-2.8599,-2.8009,-2.7532,-2.6942,-2.6533,-2.6533,-2.6533,-2.6533,-2.6533,-2.6533,-2.6533,-2.6533,-2.6352,-2.6139,-2.5816,-2.54,-2.5342,-2.6229,-2.6878,-2.7357,-2.7575,-2.7625,-2.7625,-2.7625,-2.7625,-2.7625,-2.7625,-2.7625,-2.7335,-2.6767,-2.6722,-2.6722,-2.6722,-2.6722,-2.6722,-2.6722,-2.6093,-2.548,-2.4896,-2.4133,-2.3729,-2.3729,-2.4204,-2.4741,-2.5388,-2.7235,-2.8111,-1.8643,-1.8087,-1.7412,-1.7412,-1.6246,-1.5048,-1.4974,-1.4705,0.0,0.0,0.0,-1.373,-1.3389,-1.4531,0.0,-1.7832,0.0,0.0,0.0,0.0,-2.4502,0.0,0.0,0.0,0.0,0.0,0.0,0.0,0.0,0.0,-2.5742,-2.5742,-2.5742,-2.5742,-2.5742,-2.5742,-2.5742,-2.5742,-2.5742,-2.5732,-2.5361,-2.5146,-2.5039,-2.4258,-2.3857,-2.3769,0.0,0.0,-2.3135,-2.3135,-2.3135,-2.3135,-2.3135,-2.3222,-2.3551,-2.4713,-2.5797,-2.6964,-2.8016,-2.9028,-2.9792,-2.9792,-2.9792,-2.9779,-2.9679,-2.8925,-2.8084,-2.7996,-2.7231,-2.6533,-2.6533,-2.6533,-2.6533,-2.6533,-2.6533,-2.6533,-2.6533,-2.5749,-2.5046,-2.5026,-2.42,-2.393,-2.5342,-2.5728,-2.6215,-2.7408,-2.7625,-2.7625,-2.7625,-2.7625,-2.7625,-2.7625,-2.7625,-2.7565,-2.746,-2.7445,-2.7445,-2.7445,-2.7445,-2.7445,-2.7445,-2.6767,-2.6363,-2.6258,-2.5061,-2.4448,-2.4448,-2.4392,-2.4451,-2.4632,-2.6564,-2.719,-1.7326,-1.7086,-1.6669,-1.6669,-1.5727,-1.4674,-1.4294,0.0,0.0,0.0,0.0,-1.3125,-1.292,0.0,0.0,0.0,0.0,0.0,0.0,0.0,0.0,0.0,0.0,0.0,0.0,0.0,0.0,0.0,0.0,0.0,-2.5742,-2.5742,-2.5742,-2.5742,-2.5742,-2.5742,-2.5742,-2.5742,-2.5742,-2.5732,-2.5283,-2.4951,-2.4707,-2.4082,-2.3662,-2.3437,-2.3232,0.0,-2.3135,-2.3135,-2.3135,-2.3135,-2.3135,-2.3135,-2.3309,-2.5052,-2.6058,-2.673,-2.845,-2.9365,-2.9792,-2.9792,-2.9792,-2.9792,-2.9792,-2.9001,-2.8109,-2.8109,-2.7306,-2.6533,-2.6533,-2.6533,-2.6533,-2.6533,-2.6533,-2.6533,-2.6533,-2.5598,-2.482,-2.482,-2.4213,-2.4105,-2.5231,-2.5728,-2.6322,-2.7458,-2.7625,-2.7625,-2.7625,-2.7625,-2.7625,-2.7625,-2.7625,-2.7625,-2.7625,-2.7625,-2.7625,-2.7625,-2.7625,-2.7625,-2.7625,-2.6946,-2.6587,-2.6587,-2.5925,-2.5421,-2.4998,-2.5269,-2.5528,-2.5837,-2.6766,-2.7243,-1.6209,-1.5971,-1.5812,-1.6021,-1.5251,-1.4203,-1.3369,-1.3081,0.0,0.0,0.0,-1.2881,-1.2881,0.0,0.0,0.0,0.0,0.0,0.0,0.0,0.0,0.0,0.0,0.0,0.0,0.0,0.0,0.0,0.0,0.0,-2.5742,-2.5742,-2.5742,-2.5742,-2.5742,-2.5742,-2.5742,-2.5644,-2.5596,-2.5586,-2.5049,-2.4619,-2.4268,-2.3848,-2.3467,-2.3135,-2.3135,0.0,0.0,-2.3135,-2.3135,-2.3135,-2.3135,-2.3135,-2.3299,-2.5147,-2.6058,-2.673,-2.8462,-2.9378,-2.9792,-2.9792,-2.9792,-2.9792,-2.9792,-2.9001,-2.8109,-2.8109,-2.7306,-2.6533,-2.6533,-2.6533,-2.6533,-2.6533,-2.6533,-2.6533,-2.6533,-2.5686,-2.4958,-2.4845,-2.4487,-2.4495,-2.5258,-2.5892,-2.6549,-2.7458,-2.7625,-2.7625,-2.7625,-2.7625,-2.7625,-2.7625,-2.7625,-2.7625,-2.7625,-2.7625,-2.7625,-2.7625,-2.7625,-2.7625,-2.7625,-2.7081,-2.6797,-2.6797,-2.675,-2.6359,-2.5674,-2.6379,-2.6837,-2.7142,-2.7405,-2.7822,-1.8234,-1.7331,-1.6035,-1.6832,-1.5623,-1.3899,-1.3121,0.0,0.0,0.0,-1.2363,-1.2881,-1.2881,-1.3262,0.0,0.0,0.0,0.0,0.0,0.0,0.0,0.0,0.0,0.0,0.0,0.0,0.0,0.0,0.0,0.0,0.0,-2.5742,-2.5742,-2.5742,-2.5742,-2.5742,-2.5742,-2.5332,-2.5127,-2.5117,-2.4297,-2.3887,-2.3838,-2.3398,-2.3174,-2.3135,0.0,0.0,0.0,-2.3135,-2.3135,-2.3135,-2.3135,-2.3135,-2.3135,-2.3299,-2.4723,-2.6565,-2.673,-2.8131,-2.9792,-2.9792,-2.9792,-2.9792,-2.9792,-2.9001,-2.8109,-2.8109,-2.7306,-2.6533,-2.6533,-2.6533,-2.6533,-2.6533,-2.6533,-2.6533,-2.6533,-2.5963,-2.5385,-2.4908,-2.4394,-2.4339,-2.5215,-2.5453,-2.6,-2.7408,-2.7625,-2.7625,-2.7625,-2.7625,-2.7625,-2.7625,-2.7625,-2.7625,-2.7625,-2.7625,-2.7625,-2.7625,-2.7625,-2.7625,-2.7625,-2.7565,-2.7535,-2.7535,-2.744,-2.7118,-2.6504,-2.7544,-2.7784,-2.7297,-2.8478,-2.9041,-1.7047,-1.7494,-1.769,-1.8092,-1.6869,-1.5418,-1.463,0.0,0.0,-1.2553,-1.2725,-1.2881,-1.2881,-1.3018,-1.3437,0.0,-1.5029,-1.6152,0.0,0.0,0.0,0.0,0.0,0.0,0.0,0.0,0.0,0.0,0.0,0.0,0.0,-2.5596,-2.5615,-2.5342,-2.5332,-2.5205,-2.4941,-2.4766,-2.4678,-2.4668,-2.4072,-2.3789,-2.3769,-2.334,-2.3135,-2.3135,0.0,0.0,0.0,-2.3135,-2.3135,-2.3135,-2.3135,-2.3135,-2.3222,-2.3887,-2.4713,-2.563,-2.7035,-2.8028,-2.8797,-2.9135,-2.9277,-2.934,-2.9691,-2.9001,-2.8109,-2.8109,-2.7306,-2.6533,-2.6533,-2.6533,-2.6533,-2.6533,-2.6533,-2.6533,-2.6533,-2.5762,-2.5071,-2.4858,-2.4092,-2.3859,-2.516,-2.5398,-2.5892,-2.7408,-2.7625,-2.7625,-2.7625,-2.7625,-2.7625,-2.7625,-2.7625,-2.7625,-2.7625,-2.7625,-2.7625,-2.7625,-2.7625,-2.7625,-2.7625,-2.7625,-2.7625,-2.7625,-2.7913,-2.7922,-2.764,-2.8443,-2.8642,-2.8345,-2.8853,-2.908,-1.6685,-1.7645,-1.8518,-1.8757,-1.7696,-1.6279,0.0,0.0,-1.3293,-1.2986,-1.2881,-1.2881,-1.2881,-1.2881,-1.3018,-1.3437,-1.3965,-1.498,-1.6846,0.0,0.0,0.0,0.0,0.0,0.0,0.0,0.0,0.0,0.0,0.0,0.0,-2.5176,-2.5205,-2.4883,-2.4873,-2.4727,-2.4424,-2.4287,-2.4228,-2.4228,-2.3799,-2.3594,-2.3584,-2.3281,-2.3135,-2.3135,0.0,0.0,0.0,-2.3135,-2.3135,-2.3135,-2.3135,-2.3135,-2.3222,-2.3963,-2.4542,-2.5031,-2.6942,-2.7844,-2.8195,-2.8895,-2.9063,-2.9001,-2.9415,-2.875,-2.7858,-2.7858,-2.718,-2.6533,-2.6533,-2.6533,-2.6533,-2.6533,-2.6533,-2.6533,-2.6533,-2.5724,-2.5008,-2.4845,-2.4042,-2.3795,-2.5147,-2.5398,-2.5892,-2.7408,-2.7625,-2.7625,-2.7625,-2.7625,-2.7625,-2.7625,-2.7625,-2.7625,-2.7625,-2.7625,-2.7625,-2.7625,-2.7625,-2.7625,-2.7625,-2.7625,-2.7625,-2.7625,-2.8189,-2.8358,-2.8119,-2.9043,-2.941,-2.9126,-2.9505,-2.9634,-1.7886,-1.7989,-1.7813,-1.8754,-1.7493,-1.5757,0.0,-1.3906,-1.3293,-1.2986,-1.2881,-1.2881,-1.2881,-1.2881,-1.3018,-1.3437,-1.4219,-1.5537,0.0,0.0,0.0,0.0,0.0,0.0,0.0,0.0,0.0,0.0,0.0,0.0,0.0,-2.4424,-2.4424,-2.4424,-2.4424,-2.4424,-2.4414,-2.4004,-2.3799,-2.3789,-2.335,-2.3144,-2.3144,-2.3135,-2.3135,0.0,0.0,0.0,0.0,-2.3135,-2.3135,-2.3135,-2.3135,-2.3135,-2.3135,-2.3135,-2.379,-2.4957,-2.6141,-2.7209,-2.8267,-2.9443,-2.9402,-2.8925,-2.8938,-2.816,-2.7293,-2.7293,-2.6892,-2.6533,-2.6533,-2.6533,-2.6533,-2.6533,-2.6533,-2.6533,-2.6533,-2.6,-2.5435,-2.4921,-2.4368,-2.4269,-2.5229,-2.5398,-2.5892,-2.7408,-2.7625,-2.7625,-2.7625,-2.7625,-2.7625,-2.7625,-2.7625,-2.7625,-2.7625,-2.7625,-2.7625,-2.7625,-2.7625,-2.7625,-2.7625,-2.7625,-2.7625,-2.7625,-2.8189,-2.8189,-2.761,-2.9419,-2.9978,-2.9435,-3.0625,-3.1173,-1.6075,-1.6869,-1.7537,-1.7849,-1.6955,-1.5817,-1.493,-1.4071,-1.3337,-1.2968,-1.2881,-1.2881,-1.2881,-1.2881,-1.3452,-1.5143,-1.5875,0.0,0.0,0.0,0.0,0.0,0.0,0.0,0.0,0.0,0.0,0.0,0.0,0.0,0.0,-2.3984,-2.3984,-2.3984,-2.3984,-2.3848,-2.3545,-2.3408,-2.335,-2.335,-2.3203,-2.3135,-2.3135,-2.3135,0.0,0.0,0.0,0.0,0.0,-2.3135,-2.3135,-2.3135,-2.3135,-2.3135,-2.3135,-2.3135,-2.3299,-2.38,-2.4957,-2.6047,-2.7094,-2.7466,-2.7901,-2.8235,-2.7469,-2.7256,-2.7205,-2.6829,-2.6659,-2.6533,-2.6533,-2.6533,-2.6533,-2.6533,-2.6533,-2.6533,-2.6533,-2.5724,-2.5021,-2.4858,-2.4054,-2.3808,-2.5147,-2.5398,-2.5892,-2.7408,-2.7625,-2.7625,-2.7625,-2.7625,-2.7625,-2.7625,-2.7625,-2.7625,-2.7625,-2.7625,-2.7625,-2.7625,-2.7625,-2.7625,-2.7625,-2.7625,-2.7625,-2.7625,-2.781,-2.7993,-2.8238,-2.9225,-3.0038,-3.0658,-3.1015,-3.119,0.0,-1.6084,-1.6885,-1.6885,-1.6348,-1.5596,-1.4736,-1.4004,-1.3389,-1.2969,-1.2881,-1.2881,-1.2881,-1.2881,-1.3431,-1.5086,0.0,0.0,0.0,0.0,0.0,0.0,0.0,0.0,0.0,0.0,0.0,0.0,0.0,0.0,0.0,0.0,-2.3545,-2.3545,-2.3545,-2.3408,-2.3135,-2.3135,-2.3135,-2.3135,-2.3135,-2.3135,-2.3135,-2.3135,0.0,0.0,0.0,0.0,0.0,-2.3135,-2.3135,-2.3135,-2.3135,-2.3135,-2.3135,-2.3135,-2.3135,-2.3299,-2.4372,-2.5427,-2.6253,-2.6675,-2.7285,-2.7632,-2.6728,-2.6703,-2.6904,-2.6553,-2.6533,-2.6533,-2.6533,-2.6533,-2.6533,-2.6533,-2.6533,-2.6471,-2.6189,-2.5435,-2.4757,-2.4556,-2.3999,-2.393,-2.5175,-2.5618,-2.6215,-2.7408,-2.7625,-2.7625,-2.7625,-2.7625,-2.7625,-2.7625,-2.7625,-2.7625,-2.7625,-2.7625,-2.7625,-2.7625,-2.7625,-2.7625,-2.7625,-2.7625,-2.7625,-2.7625,-2.7625,-2.776,-2.814,-2.8996,-3.0021,-3.119,-3.119,-3.119,0.0,-1.5478,-1.586,-1.589,-1.5527,-1.5019,-1.4175,-1.374,0.0,-1.2959,-1.2881,-1.29,-1.2959,-1.2939,-1.3203,-1.4052,0.0,0.0,0.0,0.0,0.0,0.0,0.0,0.0,0.0,0.0,0.0,0.0,0.0,0.0,0.0,0.0,-2.3135,-2.3135,-2.3135,-2.3135,-2.3135,-2.3135,-2.3135,-2.3135,-2.3135,-2.3135,-2.3135,-2.3135,0.0,0.0,0.0,0.0,0.0,-2.3135,-2.3135,-2.3135,-2.3135,-2.3135,-2.3135,-2.3135,-2.3135,-2.3212,-2.4255,-2.5035,-2.5779,-2.6905,-2.7299,-2.713,-2.6615,-2.6533,-2.6533,-2.6533,-2.6533,-2.6533,-2.6533,-2.6533,-2.6533,-2.6533,-2.6496,-2.6251,-2.5711,-2.5159,-2.4607,-2.4104,-2.418,-2.4509,-2.5287,-2.6014,-2.6774,-2.7509,-2.7625,-2.7625,-2.7625,-2.7625,-2.7625,-2.7625,-2.7625,-2.7625,-2.7625,-2.7625,-2.7625,-2.7625,-2.7625,-2.7625,-2.7625,-2.7625,-2.7625,-2.7625,-2.7625,-2.761,-2.771,-2.8857,-3.0021,-3.119,-3.114,-3.114,-1.2725,0.0,-1.3213,-1.3545,-1.3555,-1.3418,0.0,-1.3096,-1.2998,0.0,0.0,-1.3076,-1.3721,-1.3574,-1.4398,0.0,0.0,0.0,0.0,0.0,0.0,0.0,0.0,0.0,0.0,0.0,0.0,0.0,0.0,0.0,0.0,0.0,-2.3135,-2.3135,-2.3135,-2.3135,-2.3135,-2.3135,-2.3135,-2.3135,-2.3135,-2.3135,-2.3135,-2.3135,0.0,0.0,0.0,0.0,-2.3135,-2.3135,-2.3135,-2.3135,-2.3135,-2.3135,-2.3135,-2.3135,-2.3135,-2.3086,-2.3011,-2.4116,-2.5746,-2.693,-2.7051,-2.6628,-2.6571,-2.6533,-2.6533,-2.6533,-2.6533,-2.6533,-2.6533,-2.6533,-2.6533,-2.6533,-2.6126,-2.5762,-2.5624,-2.4858,-2.4155,-2.4017,-2.418,-2.4509,-2.5287,-2.6014,-2.6774,-2.7509,-2.7625,-2.7625,-2.7625,-2.7625,-2.7625,-2.7625,-2.7625,-2.7625,-2.7625,-2.7625,-2.7625,-2.7625,-2.7625,-2.7625,-2.7625,-2.7625,-2.7625,-2.7625,-2.7625,-2.8027,-2.8996,-2.9271,-3.0021,-3.119,-3.0615,-3.0666,-1.1504,-1.2207,-1.292,-1.335,-1.3457,-1.3457,-1.3457,0.0,0.0,0.0,0.0,0.0,-1.373,0.0,0.0,0.0,0.0,0.0,0.0,0.0,0.0,0.0,0.0,0.0,0.0,0.0,0.0,0.0,0.0,0.0,0.0,0.0,-2.3135,-2.3135,-2.3135,-2.3135,-2.3135,-2.3135,-2.3135,-2.3135,-2.3135,-2.3135,-2.3135,-2.3135,-2.3135,0.0,0.0,0.0,-2.3135,-2.3135,-2.3135,-2.3135,-2.3135,-2.3135,-2.3135,-2.3135,-2.3018,-2.2899,-2.3088,-2.4239,-2.5773,-2.6646,-2.6703,-2.6533,-2.6533,-2.6533,-2.6533,-2.6533,-2.6533,-2.6533,-2.6533,-2.6533,-2.6533,-2.6533,-2.6013,-2.5523,-2.5297,-2.4582,-2.3916,-2.3653,-2.4269,-2.4951,-2.5342,-2.6269,-2.7137,-2.7524,-2.7625,-2.7625,-2.7625,-2.7625,-2.7625,-2.7625,-2.7625,-2.7625,-2.7625,-2.7625,-2.7625,-2.7625,-2.7625,-2.7625,-2.7625,-2.7625,-2.7625,-2.7625,-2.7625,-2.8174,-2.9406,-2.907,-2.9695,-3.1173,-3.0091,-3.0159,-1.0957,-1.2334,-1.3643,-1.3747,-1.3893,-1.397,-1.3902,0.0,0.0,0.0,0.0,0.0,0.0,0.0,0.0,0.0,0.0,0.0,0.0,0.0,0.0,0.0,0.0,0.0,0.0,0.0,0.0,0.0,0.0,0.0,0.0,0.0,0.0,-2.3387,-2.356,-2.3637,-2.3637,-2.3299,-2.3135,-2.3135,-2.3135,-2.3135,-2.3135,-2.3135,-2.3135,0.0,0.0,0.0,-2.3135,-2.3135,-2.3135,-2.3135,-2.3135,-2.3096,-2.3047,-2.3047,-2.2783,-2.2571,-2.3629,-2.4692,-2.566,-2.6313,-2.6533,-2.6533,-2.6533,-2.6533,-2.6533,-2.6533,-2.6533,-2.6533,-2.6533,-2.6533,-2.6533,-2.6533,-2.5963,-2.536,-2.4921,-2.4318,-2.3715,-2.3226,-2.4323,-2.5398,-2.5398,-2.664,-2.7625,-2.7625,-2.7625,-2.7625,-2.7625,-2.7625,-2.7625,-2.7625,-2.7625,-2.7625,-2.7625,-2.7625,-2.7625,-2.7625,-2.7625,-2.7625,-2.7625,-2.7625,-2.7625,-2.7625,-2.7625,-2.8174,-2.9406,-2.8754,-2.9433,-3.1157,-2.9786,-2.982,-1.1709,-1.2959,-1.3737,-1.2735,-1.3066,-1.3516,-1.3154,0.0,0.0,0.0,0.0,0.0,0.0,0.0,0.0,0.0,0.0,0.0,0.0,0.0,0.0,0.0,0.0,0.0,0.0,0.0,0.0,0.0,0.0,0.0,0.0,0.0,0.0,-2.4542,-2.5473,-2.5975,-2.5975,-2.4059,-2.3135,-2.3135,-2.3135,-2.3135,-2.3135,-2.3135,-2.3135,0.0,0.0,-2.3135,-2.3135,-2.3135,-2.3135,-2.3135,-2.3135,-2.292,-2.2607,-2.2607,-2.2344,-2.2162,-2.3638,-2.458,-2.5254,-2.6188,-2.6533,-2.6533,-2.6533,-2.6533,-2.6533,-2.6533,-2.6533,-2.6533,-2.6533,-2.6533,-2.6533,-2.6533,-2.5686,-2.4921,-2.4845,-2.4004,-2.3238,-2.309,-2.4323,-2.5398,-2.5398,-2.664,-2.7625,-2.7625,-2.7625,-2.7625,-2.7625,-2.7625,-2.7625,-2.7625,-2.7625,-2.7625,-2.7625,-2.7625,-2.7625,-2.7625,-2.7625,-2.7625,-2.7625,-2.7625,-2.7625,-2.7625,-2.7625,-2.8174,-2.9406,-2.9294,-2.9923,-3.1173,-3.0328,-3.0057,-1.1016,-1.2119,-1.2968,-1.2666,-1.3926,-1.5137,-1.4697,0.0,0.0,0.0,0.0,0.0,0.0,0.0,0.0,0.0,0.0,0.0,0.0,0.0,0.0,0.0,0.0,0.0,0.0,0.0,0.0,0.0,0.0,0.0,0.0,0.0,0.0,0.0,-2.6224,-2.6483,-2.6483,-2.5473,-2.4638,-2.4049,-2.4049,-2.3714,-2.3135,-2.3135,-2.3135,-2.3135,0.0,-2.3135,-2.3135,-2.3135,-2.3135,-2.3115,-2.2891,-2.2685,-2.2451,-2.1992,-2.2403,-2.3239,-2.3665,-2.4679,-2.5873,-2.6383,-2.6533,-2.6533,-2.6533,-2.6533,-2.6533,-2.6533,-2.6533,-2.6533,-2.6533,-2.6533,-2.6445,-2.6063,-2.5385,-2.4745,-2.4443,-2.3728,-2.3078,-2.3078,-2.4047,-2.4951,-2.5342,-2.6269,-2.7137,-2.7524,-2.7625,-2.7625,-2.7625,-2.7625,-2.7625,-2.7625,-2.7625,-2.7625,-2.7625,-2.7625,-2.7625,-2.7625,-2.7625,-2.7625,-2.7625,-2.7625,-2.7625,-2.7625,-2.7625,-2.7859,-2.8383,-2.8653,-2.9069,-2.9594,-2.9522,-2.9499,-1.0567,-1.1465,-1.248,-1.292,0.0,-1.5996,-1.6105,0.0,0.0,0.0,0.0,0.0,0.0,0.0,0.0,0.0,0.0,0.0,0.0,0.0,0.0,0.0,0.0,0.0,0.0,0.0,0.0,0.0,0.0,0.0,0.0,0.0,0.0,0.0,-2.7139,-2.7302,-2.7302,-2.7302,-2.6554,-2.521,-2.521,-2.4713,-2.3897,-2.3637,-2.3464,-2.3464,-2.3222,-2.3135,-2.3135,-2.3027,-2.2988,-2.2949,-2.2529,-2.2305,-2.2119,-2.1357,-2.2283,-2.3955,-2.3649,-2.4838,-2.6533,-2.6533,-2.6533,-2.6533,-2.6533,-2.6533,-2.6533,-2.6533,-2.6533,-2.6533,-2.6533,-2.6533,-2.6352,-2.59,-2.5297,-2.4707,-2.4293,-2.3627,-2.3078,-2.3078,-2.3884,-2.4738,-2.5287,-2.6162,-2.693,-2.7509,-2.7625,-2.7625,-2.7625,-2.7625,-2.7625,-2.7625,-2.7625,-2.7625,-2.7625,-2.7625,-2.7625,-2.7625,-2.7625,-2.7625,-2.7625,-2.7475,-2.7385,-2.7385,-2.7186,-2.7167,-2.7255,-2.7791,-2.8117,-2.8196,-2.8757,-2.889,-1.1292,-1.2139,-1.2939,-1.3359,0.0,0.0,-1.5772,-1.5723,0.0,0.0,0.0,0.0,0.0,0.0,0.0,0.0,0.0,0.0,0.0,0.0,0.0,0.0,0.0,0.0,0.0,0.0,0.0,0.0,0.0,0.0,0.0,0.0,0.0,0.0,0.0,-2.9546,-2.9546,-2.9546,-2.8462,-2.6389,-2.6389,-2.6307,-2.6224,-2.5126,-2.4713,-2.4628,-2.3551,-2.3135,-2.3105,-2.2715,-2.2559,-2.2519,-2.21,-2.168,-2.1269,-2.0791,-2.1873,-2.357,-2.3526,-2.4838,-2.6533,-2.6533,-2.6533,-2.6533,-2.6533,-2.6533,-2.6533,-2.6533,-2.6533,-2.6533,-2.6533,-2.6533,-2.6521,-2.6483,-2.5586,-2.4808,-2.477,-2.3904,-2.3078,-2.3078,-2.4323,-2.5342,-2.5398,-2.6587,-2.7524,-2.7575,-2.7625,-2.7625,-2.7625,-2.7625,-2.7625,-2.7625,-2.7625,-2.7625,-2.7625,-2.7625,-2.7625,-2.7625,-2.7625,-2.7625,-2.7625,-2.6976,-2.6662,-2.6662,-2.6063,-2.6016,-2.6557,-2.7105,-2.7672,-2.8196,-2.8757,-2.8602,-1.0714,-1.1797,-1.2988,-1.3408,0.0,0.0,0.0,0.0,0.0,0.0,0.0,0.0,0.0,0.0,0.0,0.0,0.0,0.0,0.0,0.0,0.0,0.0,0.0,0.0,0.0,0.0,0.0,0.0,0.0,0.0,0.0,0.0,0.0,0.0,0.0,-2.9792,-2.9792,-2.9792,-2.9378,-2.8542,-2.7867,-2.7128,-2.6483,-2.6058,-2.5462,-2.4766,-2.4083,-2.3398,-2.2715,-2.2295,-2.2129,-2.208,-2.165,-2.1211,-2.0801,-2.0625,-2.1821,-2.3514,-2.3514,-2.4838,-2.6533,-2.6533,-2.6533,-2.6533,-2.6533,-2.6533,-2.6445,-2.6025,-2.5925,-2.6,-2.6433,-2.6189,-2.5925,-2.5925,-2.5096,-2.4305,-2.4305,-2.369,-2.3078,-2.3078,-2.359,-2.4266,-2.5231,-2.5837,-2.6534,-2.7458,-2.7625,-2.7625,-2.7625,-2.7625,-2.7625,-2.7625,-2.7625,-2.7625,-2.7625,-2.7625,-2.7625,-2.7625,-2.7625,-2.7625,-2.7625,-2.6946,-2.6587,-2.6587,-2.5944,-2.5483,-2.5318,-2.6321,-2.6456,-2.5863,-2.7652,-2.7864,-1.0478,-1.1553,-1.2812,0.0,0.0,0.0,0.0,0.0,0.0,0.0,0.0,0.0,0.0,0.0,0.0,0.0,0.0,0.0,0.0,0.0,0.0,0.0,0.0,0.0,0.0,0.0,0.0,0.0,0.0,0.0,0.0,0.0,0.0,0.0,0.0,-2.9264,-2.9264,-2.9264,-2.9264,-2.9252,-2.85,-2.7782,-2.722,-2.6737,-2.6094,-2.5245,-2.4349,-2.3495,-2.2665,-2.2011,-2.1592,-2.1435,-2.1143,-2.083,-2.0566,-2.0566,-2.1821,-2.3514,-2.3514,-2.4838,-2.6533,-2.6533,-2.6533,-2.6533,-2.6533,-2.6395,-2.6101,-2.5711,-2.5473,-2.5435,-2.5837,-2.5774,-2.5548,-2.5385,-2.4795,-2.4217,-2.4042,-2.354,-2.3078,-2.3078,-2.3305,-2.3872,-2.5175,-2.5563,-2.6162,-2.7408,-2.7625,-2.7625,-2.7625,-2.7625,-2.7625,-2.7625,-2.7625,-2.7625,-2.7625,-2.7625,-2.7535,-2.7275,-2.726,-2.726,-2.726,-2.6437,-2.5974,-2.5974,-2.5315,-2.4747,-2.4298,-2.5323,-2.543,-2.4688,-2.6451,-2.6787,-1.0908,-1.1562,0.0,0.0,0.0,0.0,0.0,0.0,0.0,0.0,0.0,0.0,0.0,0.0,0.0,0.0,0.0,0.0,0.0,0.0,0.0,0.0,0.0,0.0,0.0,0.0,0.0,0.0,0.0,0.0,0.0,0.0,0.0,0.0,0.0,0.0,-2.8109,-2.8109,-2.8109,-2.8109,-2.8097,-2.8386,-2.8825,-2.7279,-2.6498,-2.6347,-2.4277,-2.3311,-2.321,-2.178,-2.0967,-2.0566,-2.0566,-2.0566,-2.0566,-2.0566,-2.1821,-2.3514,-2.3514,-2.4838,-2.6533,-2.6533,-2.6533,-2.6533,-2.6521,-2.605,-2.5598,-2.5586,-2.5209,-2.4808,-2.4808,-2.5197,-2.5448,-2.4946,-2.4808,-2.4657,-2.4117,-2.354,-2.3078,-2.3078,-2.3767,-2.4509,-2.5287,-2.6014,-2.6774,-2.7509,-2.7625,-2.7625,-2.7625,-2.7625,-2.7625,-2.7625,-2.7625,-2.7625,-2.7625,-2.756,-2.729,-2.6632,-2.6572,-2.6572,-2.6572,-2.533,-2.4582,-2.4582,-2.3954,-2.3595,-2.3595,-2.4116,-2.4672,-2.5182,-2.5182,-2.5503,-1.0996,-1.2554,0.0,0.0,0.0,0.0,0.0,0.0,0.0,0.0,0.0,0.0,0.0,0.0,0.0,0.0,0.0,0.0,0.0,0.0,0.0,0.0,0.0,0.0,0.0,0.0,0.0,0.0,0.0,0.0,0.0,0.0,0.0,0.0,0.0,0.0,-2.8109,-2.8109,-2.8109,-2.8097,-2.7708,-2.7821,-2.8348,-2.7878,-2.7186,-2.6486,-2.546,-2.4215,-2.2741,-2.139,-2.0684,-2.0566,-2.0566,-2.0566,-2.0566,-2.0566,-2.1821,-2.3514,-2.3514,-2.4838,-2.6533,-2.6533,-2.6533,-2.6445,-2.5975,-2.5737,-2.5435,-2.4682,-2.4356,-2.4155,-2.3679,-2.4054,-2.4531,-2.477,-2.4217,-2.3703,-2.3941,-2.354,-2.3078,-2.3078,-2.3767,-2.4509,-2.5287,-2.6014,-2.6774,-2.7509,-2.7625,-2.7625,-2.7625,-2.7625,-2.7625,-2.7625,-2.7625,-2.7625,-2.7625,-2.7141,-2.6797,-2.6602,-2.5719,-2.542,-2.5884,-2.5076,-2.4582,-2.4582,-2.3954,-2.3595,-2.3595,-2.3752,-2.3921,-2.4074,-2.4471,-2.4934,-1.2037,0.0,0.0,0.0,0.0,0.0,0.0,0.0,0.0,0.0,0.0,0.0,0.0,0.0,0.0,0.0,0.0,0.0,0.0,0.0,0.0,0.0,0.0,0.0,0.0,0.0,0.0,0.0,0.0,0.0,0.0,0.0,0.0,0.0,0.0,-2.7457,-2.7457,-2.7457,-2.7457,-2.7444,-2.7118,-2.713,-2.7457,-2.7457,-2.7073,-2.6457,-2.5368,-2.3951,-2.236,-2.1121,-2.0566,-2.0566,-2.0566,-2.0566,-2.0566,-2.0566,-2.1821,-2.3514,-2.3514,-2.4838,-2.6533,-2.6533,-2.637,-2.605,-2.5699,-2.5297,-2.4833,-2.418,-2.3841,-2.3577,-2.3165,-2.3389,-2.374,-2.4079,-2.3803,-2.3502,-2.3627,-2.3389,-2.3185,-2.3543,-2.3943,-2.4624,-2.5673,-2.6229,-2.6774,-2.7509,-2.7625,-2.7625,-2.7625,-2.7625,-2.7625,-2.7625,-2.7335,-2.7186,-2.7186,-2.6572,-2.6093,-2.5824,-2.5076,-2.4642,-2.4807,-2.4433,-2.4223,-2.4223,-2.3819,-2.3595,-2.3595,-2.3595,-2.3724,-2.3921,-2.4032,-2.4389,0.0,0.0,0.0,0.0,0.0,0.0,0.0,0.0,0.0,0.0,0.0,0.0,0.0,0.0,0.0,0.0,0.0,0.0,0.0,0.0,0.0,0.0,0.0,0.0,0.0,0.0,0.0,0.0,0.0,0.0,0.0,0.0,0.0,0.0,-2.6533,-2.6533,-2.6533,-2.6533,-2.6533,0.0,-2.6533,-2.6533,-2.6533,-2.6533,-2.6533,-2.6383,-2.4397,-2.2999,-2.2038,-2.1011,-2.0566,-2.0566,-2.0566,-2.0566,-2.0566,-2.0566,-2.1821,-2.3514,-2.3514,-2.4838,-2.6521,-2.6471,-2.6025,-2.5573,-2.5473,-2.477,-2.3991,-2.3941,-2.354,-2.3078,-2.3078,-2.3078,-2.3078,-2.3078,-2.354,-2.3778,-2.3251,-2.3078,-2.3365,-2.4118,-2.435,-2.4851,-2.6283,-2.6563,-2.6826,-2.7509,-2.7625,-2.7625,-2.7625,-2.7625,-2.7595,-2.7535,-2.6946,-2.6572,-2.6497,-2.5899,-2.527,-2.4627,-2.4522,-2.4253,-2.3625,-2.3595,-2.3595,-2.3595,-2.3595,-2.3595,-2.3595,-2.3595,-2.3837,-2.4307,-2.3837,-2.3879,0.0,0.0,0.0,0.0,0.0,0.0,0.0,0.0,0.0,0.0,0.0,0.0,0.0,0.0,0.0,0.0,0.0,0.0,0.0,0.0,0.0,0.0,0.0,0.0,0.0,0.0,0.0,0.0,0.0,0.0,0.0,0.0,0.0,-2.6533,-2.6533,-2.6533,-2.6533,-2.6533,-2.6533,0.0,-2.6533,-2.6533,-2.6533,-2.6533,-2.6533,-2.6383,-2.4397,-2.3368,-2.3073,-2.1308,-2.0566,-2.0566,-2.0566,-2.0566,-2.0566,-2.0566,-2.1821,-2.3514,-2.3514,-2.4838,-2.6445,-2.5937,-2.5699,-2.5435,-2.4594,-2.418,-2.3904,-2.3452,-2.3226,-2.3078,-2.3078,-2.3078,-2.3078,-2.3078,-2.3226,-2.3288,-2.3103,-2.3078,-2.3365,-2.4118,-2.4794,-2.5453,-2.6336,-2.6982,-2.7408,-2.7575,-2.7625,-2.7625,-2.7625,-2.7625,-2.743,-2.6856,-2.6677,-2.6378,-2.5869,-2.5211,-2.4731,-2.4597,-2.4118,-2.3759,-2.361,-2.3595,-2.3595,-2.3595,-2.3595,-2.3595,-2.3595,-2.3595,-2.3681,-2.3752,-2.3638,-2.3879,0.0,0.0,0.0,0.0,0.0,0.0,0.0,0.0,0.0,0.0,0.0,0.0,0.0,0.0,0.0,0.0,0.0,0.0,0.0,0.0,0.0,0.0,0.0,0.0,0.0,0.0,0.0,0.0,0.0,0.0,0.0,0.0,0.0,-2.6533,-2.6533,-2.6533,-2.6533,-2.6533,-2.6533,-2.6533,-2.6533,-2.6382,-2.605,-2.6395,-2.6533,-2.6383,-2.4397,-2.3391,-2.3045,-2.1293,-2.0322,-1.9971,-2.0176,-2.0137,-1.9951,-1.9951,-2.1177,-2.2809,-2.2809,-2.4093,-2.5624,-2.5322,-2.5046,-2.4732,-2.4167,-2.3803,-2.3527,-2.3165,-2.3078,-2.3078,-2.3078,-2.3078,-2.3078,-2.3078,-2.3078,-2.3078,-2.3078,-2.3078,-2.3365,-2.4118,-2.4908,-2.5618,-2.6336,-2.7086,-2.7625,-2.7625,-2.7355,-2.7215,-2.758,-2.7021,-2.6617,-2.6587,-2.6033,-2.551,-2.5166,-2.4522,-2.4133,-2.4133,-2.3789,-2.3595,-2.3595,-2.3595,-2.3595,-2.3595,-2.3595,-2.3595,-2.3595,-2.3595,-2.3595,-2.3595,-2.3595,-2.3879,0.0,0.0,0.0,0.0,0.0,0.0,0.0,0.0,0.0,0.0,0.0,0.0,0.0,0.0,0.0,0.0,0.0,0.0,0.0,0.0,0.0,0.0,0.0,0.0,0.0,0.0,0.0,0.0,0.0,0.0,0.0,0.0,-2.6176,-2.6176,-2.6176,-2.6176,-2.6176,-2.6176,-2.6176,-2.6176,-2.6176,-2.5925,-2.5473,-2.5963,-2.6176,-2.6095,-2.4284,-2.3259,-2.2838,-2.1437,-2.0426,-1.9805,-2.0092,-2.0012,-1.9775,-1.9775,-2.0804,-2.2241,-2.2241,-2.3356,-2.4808,-2.4707,-2.4368,-2.3979,-2.3879,-2.3514,-2.3078,-2.3078,-2.3078,-2.3078,-2.3078,-2.3078,-2.3078,-2.3078,-2.3078,-2.3078,-2.3078,-2.3078,-2.3365,-2.4279,-2.5175,-2.5946,-2.6549,-2.7203,-2.7625,-2.7625,-2.7111,-2.6961,-2.755,-2.6512,-2.5944,-2.6378,-2.5345,-2.4537,-2.4462,-2.3924,-2.3595,-2.3595,-2.3595,-2.3595,-2.3595,-2.3595,-2.3595,-2.3595,-2.3595,-2.3595,-2.3595,-2.3595,-2.3595,-2.3595,-2.3595,-2.3837,0.0,0.0,0.0,0.0,0.0,0.0,0.0,0.0,0.0,0.0,0.0,0.0,0.0,0.0,0.0,0.0,0.0,0.0,0.0,0.0,0.0,0.0,0.0,0.0,0.0,0.0,0.0,0.0,0.0,0.0,0.0,-2.4996,-2.5046,-2.5046,-2.5046,-2.5046,-2.5046,-2.5046,-2.5046,-2.5046,-2.5046,-2.4996,-2.4921,-2.5008,-2.5046,-2.4968,-2.3838,-2.3309,-2.3182,-2.2146,-2.1684,-2.1574,-2.164,-2.1629,-2.1563,-2.1563,-2.2184,-2.3144,-2.3144,-2.3845,-2.4745,-2.4268,-2.4054,-2.3904,-2.3401,-2.3128,-2.3078,-2.3078,-2.3078,-2.3078,-2.3078,-2.3078,-2.3078,-2.3078,-2.3078,-2.3078,-2.3078,-2.3078,-2.3531,-2.4951,-2.6375,-2.7357,-2.7458,-2.7509,-2.7625,-2.7625,-2.755,-2.752,-2.761,-2.6916,-2.6273,-2.5794,-2.5076,-2.4343,-2.3789,-2.3655,-2.3595,-2.3595,-2.3595,-2.3595,-2.3595,-2.3595,-2.3595,-2.3595,-2.3595,-2.3595,-2.3595,-2.3595,-2.3595,-2.3595,-2.3595,-2.3638,0.0,0.0,0.0,0.0,0.0,0.0,0.0,0.0,0.0,0.0,0.0,0.0,0.0,0.0,0.0,0.0,0.0,0.0,0.0,0.0,0.0,0.0,0.0,0.0,0.0,0.0,0.0,0.0,0.0,0.0,-2.5006,-2.5638,-2.6043,-2.6043,-2.5621,-2.5395,-2.5395,-2.4988,-2.482,-2.482,-2.4506,-2.4356,-2.4356,-2.4029,-2.423,-2.4755,-2.3767,-2.2913,-2.2203,-2.2003,-2.1314,-2.0528,-2.1262,-2.1397,-2.1163,-2.1163,-2.1766,-2.2491,-2.2491,-2.3089,-2.3841,-2.359,-2.3514,-2.3464,-2.3153,-2.3078,-2.3078,-2.3078,-2.3078,-2.3078,-2.3078,-2.3078,-2.3078,-2.3078,-2.3078,-2.3078,-2.3078,-2.3078,-2.359,-2.5119,-2.6283,-2.7086,-2.7524,-2.7625,-2.7625,-2.7625,-2.726,-2.7021,-2.7021,-2.6123,-2.5375,-2.5091,-2.4462,-2.3924,-2.3625,-2.3595,-2.3595,-2.3595,-2.3595,-2.3595,-2.3595,-2.3595,-2.3595,-2.3595,-2.3595,-2.3595,-2.3595,-2.3595,-2.3595,-2.3595,-2.3595,-2.3921,0.0,0.0,0.0,0.0,0.0,0.0,0.0,0.0,0.0,0.0,0.0,0.0,0.0,0.0,0.0,0.0,0.0,0.0,0.0,0.0,0.0,0.0,0.0,0.0,0.0,0.0,0.0,0.0,0.0,0.0,-2.5221,-2.6068,-2.6534,-2.6299,-2.5775,-2.5424,-2.5179,-2.4608,-2.4393,-2.4393,-2.3966,-2.3778,-2.3766,-2.3339,-2.3528,-2.433,-2.3563,-2.274,-2.1881,-2.2131,-2.1438,-2.0355,-2.1297,-2.1486,-2.1227,-2.1227,-2.1678,-2.2187,-2.2187,-2.258,-2.3078,-2.3078,-2.3078,-2.3078,-2.3078,-2.3078,-2.3078,-2.3078,-2.3078,-2.3078,-2.3078,-2.3078,-2.3078,-2.3078,-2.3078,-2.3078,-2.3078,-2.3245,-2.3813,-2.5119,-2.6014,-2.6721,-2.7458,-2.7625,-2.7625,-2.7625,-2.7006,-2.6587,-2.6587,-2.5435,-2.4582,-2.4582,-2.4014,-2.3595,-2.3595,-2.3595,-2.3595,-2.3595,-2.3595,-2.3595,-2.3595,-2.3595,-2.3595,-2.3595,-2.3595,-2.3595,-2.3595,-2.3595,-2.3595,-2.3595,-2.3595,-2.4032,0.0,0.0,0.0,0.0,0.0,0.0,0.0,0.0,0.0,0.0,0.0,0.0,0.0,0.0,0.0,0.0,0.0,0.0,0.0,0.0,0.0,0.0,0.0,0.0,0.0,0.0,0.0,0.0,0.0,0.0,-2.5397,-2.5481,-2.5159,-2.4429,-2.4371,-2.4034,-2.3273,-2.3226,-2.3165,-2.3165,-2.3128,-2.3175,-2.3175,-2.309,-2.3103,-2.3165,-2.3153,-2.308,-2.2994,-2.3019,-2.2994,-2.2884,-2.2982,-2.2969,-2.2944,-2.2944,-2.3005,-2.3017,-2.3017,-2.3078,-2.3078,-2.3078,-2.3078,-2.3078,-2.3078,-2.3078,-2.3078,-2.3078,-2.3078,-2.3078,-2.3078,-2.3078,-2.3078,-2.3078,-2.3078,-2.3078,-2.3078,-2.3708,-2.4452,-2.5231,-2.6014,-2.6721,-2.7458,-2.7625,-2.7625,-2.7625,-2.7006,-2.6587,-2.6587,-2.5435,-2.4582,-2.4582,-2.4014,-2.3595,-2.3595,-2.3595,-2.3595,-2.3595,-2.3595,-2.3595,-2.3595,-2.3595,-2.3595,-2.3595,-2.3595,-2.3595,-2.3595,-2.3595,-2.3595,-2.3595,-2.3595,-2.3638,0.0,0.0,0.0,0.0,0.0,0.0,0.0,0.0,0.0,0.0,0.0,0.0,0.0,0.0,0.0,0.0,0.0,0.0,0.0,0.0,0.0,0.0,0.0,0.0,0.0,0.0,0.0,0.0,0.0,0.0,-2.6122,-2.6534,-2.6692,-2.6428,-2.5494,-2.4381,-2.3138,-2.3078,-2.3078,-2.3078,-2.3078,-2.3078,-2.3078,-2.3078,-2.3078,-2.3078,-2.3078,-2.2823,-2.2384,-2.2884,-2.2823,-2.2384,-2.2884,-2.3078,-2.3078,-2.3078,-2.3078,-2.3078,-2.3078,-2.3078,-2.3078,-2.3078,-2.3078,-2.3078,-2.3078,-2.3078,-2.3078,-2.3078,-2.3078,-2.3078,-2.3078,-2.3078,-2.3078,-2.3078,-2.3078,-2.3078,-2.3078,-2.3708,-2.4403,-2.471,-2.5325,-2.6083,-2.6832,-2.6587,-2.6452,-2.6871,-2.6378,-2.5809,-2.539,-2.4881,-2.4462,-2.4014,-2.3744,-2.3595,-2.3595,-2.3595,-2.3595,-2.3595,-2.3595,-2.3595,-2.3595,-2.3595,-2.3595,-2.3595,-2.3595,-2.3595,-2.3595,-2.3595,-2.3595,-2.3595,-2.3595,-2.3794,0.0,0.0,0.0,0.0,0.0,0.0,0.0,0.0,0.0,0.0,0.0,0.0,0.0,0.0,0.0,0.0,0.0,0.0,0.0,0.0,0.0,0.0,0.0,0.0,0.0,0.0,0.0,0.0,0.0,0.0,-2.6236,-2.6653,-2.6792,-2.6513,-2.5338,-2.4182,-2.3138,-2.3078,-2.3078,-2.3078,-2.2949,-2.2962,-2.3065,-2.2877,-2.2902,-2.3078,-2.3078,-2.2823,-2.2322,-2.2884,-2.2763,-2.2384,-2.2884,-2.3078,-2.3078,-2.3078,-2.3078,-2.3078,-2.3078,-2.3078,-2.3078,-2.3078,-2.3078,-2.3078,-2.3078,-2.3078,-2.3078,-2.3078,-2.3078,-2.3078,-2.3078,-2.3078,-2.3078,-2.3078,-2.3078,-2.3027,-2.2899,-2.3403,-2.3992,-2.4354,-2.4829,-2.5394,-2.6143,-2.5899,-2.5749,-2.6198,-2.5689,-2.5121,-2.4642,-2.4373,-2.4103,-2.3655,-2.3595,-2.3595,-2.3595,-2.3595,-2.3595,-2.3595,-2.3595,-2.3595,-2.3595,-2.3595,-2.3595,-2.3595,-2.3595,-2.3595,-2.3595,-2.3595,-2.3595,-2.3595,-2.3595,-2.3794,0.0,0.0,0.0,0.0,0.0,0.0,0.0,0.0,0.0,0.0,0.0,0.0,0.0,0.0,0.0,0.0,0.0,0.0,0.0,0.0,0.0,0.0,0.0,0.0,0.0,0.0,0.0,0.0,0.0,-2.5615,-2.5615,-2.5568,-2.5228,-2.4403,-2.3674,-2.3192,-2.3075,-2.3027,-2.3027,-2.3075,-2.2548,-2.2573,-2.3015,-2.2535,-2.2585,-2.3053,-2.3053,-2.3065,-2.3078,-2.3078,-2.3078,-2.3078,-2.3078,-2.3078,-2.3078,-2.3078,-2.3078,-2.3078,-2.3078,-2.3078,-2.3078,-2.3078,-2.3078,-2.3078,-2.3078,-2.3078,-2.3078,-2.3078,-2.3078,-2.3078,-2.3078,-2.3078,-2.3078,-2.3053,-2.3065,-2.2975,-2.241,-2.2723,-2.3326,-2.415,-2.4297,-2.4577,-2.5375,-2.5523,-2.5508,-2.557,-2.5016,-2.4552,-2.4552,-2.4014,-2.3595,-2.3595,-2.3595,-2.3595,-2.3595,-2.3595,-2.3595,-2.3595,-2.3595,-2.3595,-2.3595,-2.3595,-2.3595,-2.3595,-2.3595,-2.3595,-2.3595,-2.3595,-2.3595,-2.3595,-2.3595,-2.3595,-0.9745,0.0,0.0,0.0,0.0,0.0,0.0,0.0,0.0,0.0,0.0,0.0,0.0,0.0,0.0,0.0,0.0,0.0,0.0,0.0,0.0,0.0,0.0,0.0,0.0,0.0,0.0,0.0,-2.5345,-2.5615,-2.5615,-2.5191,-2.4618,-2.3823,-2.3138,-2.2525,-2.1945,-2.1945,-2.1945,-2.1945,-2.1794,-2.1794,-2.1945,-2.1782,-2.202,-2.2535,-2.2535,-2.2761,-2.3078,-2.3078,-2.3078,-2.3078,-2.3078,-2.3078,-2.3078,-2.3078,-2.3078,-2.3078,-2.3078,-2.3078,-2.3078,-2.3078,-2.3078,-2.3078,-2.3078,-2.3078,-2.3078,-2.3078,-2.3078,-2.3078,-2.3078,-2.3078,-2.2977,-2.2636,-2.2849,-2.2874,-2.192,-2.2146,-2.2464,-2.2379,-2.239,-2.2787,-2.4028,-2.381,-2.3816,-2.473,-2.4328,-2.3879,-2.3879,-2.3714,-2.3595,-2.3595,-2.3595,-2.3595,-2.3595,-2.3595,-2.3595,-2.3595,-2.3595,-2.3595,-2.3595,-2.3595,-2.3595,-2.3595,-2.3595,-2.3595,-2.3595,-2.3595,-2.3595,-2.3595,-2.3595,-2.3794,0.0,0.0,0.0,0.0,0.0,0.0,0.0,0.0,0.0,0.0,0.0,0.0,0.0,0.0,0.0,0.0,0.0,0.0,0.0,0.0,0.0,0.0,0.0,0.0,0.0,0.0,0.0,0.0,-2.4552,-2.4777,-2.4777,-2.418,-2.3678,-2.3188,-2.2521,-2.1979,-2.1481,-2.1493,-2.1493,-2.1493,-2.1255,-2.1267,-2.1481,-2.1255,-2.1443,-2.197,-2.197,-2.2146,-2.2447,-2.2447,-2.2723,-2.3078,-2.3078,-2.3078,-2.3078,-2.3078,-2.3078,-2.3078,-2.3078,-2.3078,-2.3078,-2.3078,-2.3078,-2.3078,-2.3078,-2.2915,-2.2786,-2.2786,-2.2623,-2.2447,-2.2447,-2.2447,-2.2372,-2.2046,-2.2221,-2.2209,-2.133,-2.1393,-2.1652,-2.159,-2.1807,-2.2269,-2.3145,-2.3182,-2.3334,-2.4089,-2.3864,-2.3595,-2.3595,-2.3595,-2.3595,-2.3595,-2.3595,-2.3595,-2.3595,-2.3595,-2.3595,-2.3595,-2.3595,-2.3595,-2.3595,-2.3595,-2.3595,-2.3595,-2.3595,-2.3595,-2.3595,-2.3595,-2.3595,-2.3595,-2.3595,-2.3752,0.0,-1.3258,0.0,0.0,0.0,0.0,0.0,-1.3775,0.0,0.0,0.0,0.0,0.0,0.0,0.0,0.0,0.0,0.0,0.0,0.0,0.0,0.0,0.0,0.0,0.0,0.0,-2.3415,-2.349,-2.3565,-2.3595,-2.3595,-2.3024,-2.2615,-2.2476,-2.1867,-2.1458,-2.1292,-2.1305,-2.1305,-2.1292,-2.0803,-2.0828,-2.1292,-2.079,-2.092,-2.1393,-2.1393,-2.143,-2.1493,-2.1493,-2.2071,-2.289,-2.289,-2.289,-2.289,-2.289,-2.289,-2.289,-2.289,-2.289,-2.289,-2.289,-2.289,-2.289,-2.289,-2.2611,-2.2221,-2.2221,-2.187,-2.1493,-2.1493,-2.1493,-2.1468,-2.1418,-2.1443,-2.1317,-2.0756,-2.0668,-2.0853,-2.1433,-2.1904,-2.2324,-2.2552,-2.3054,-2.345,-2.3595,-2.3595,-2.3595,-2.3595,-2.3595,-2.3595,-2.3595,-2.3595,-2.3595,-2.3595,-2.3595,-2.3595,-2.3595,-2.3595,-2.3595,-2.3595,-2.3595,-2.3595,-2.3595,-2.3595,-2.3595,-2.3595,-2.3595,-2.3595,-2.3595,-2.3595,-2.3638,-1.4897,-1.4952,-1.4893,0.0,0.0,0.0,0.0,-1.3209,0.0,0.0,0.0,0.0,0.0,0.0,0.0,0.0,0.0,0.0,0.0,0.0,0.0,0.0,0.0,0.0,0.0,0.0,-2.2278,-2.2858,-2.3325,-2.3595,-2.3595,-2.3024,-2.2463,-2.1876,-2.1287,-2.0667,-2.0125,-2.0125,-2.0125,-2.0125,-2.0024,-2.0024,-2.0125,-2.0012,-2.0288,-2.0882,-2.0882,-2.1079,-2.1493,-2.1493,-2.1606,-2.1807,-2.1807,-2.1807,-2.1807,-2.1807,-2.1807,-2.1807,-2.1807,-2.1807,-2.1807,-2.1807,-2.1807,-2.1807,-2.1807,-2.1732,-2.1656,-2.1656,-2.1568,-2.1493,-2.1493,-2.1493,-2.138,-2.0983,-2.1167,-2.1204,-2.0188,-2.0338,-2.0726,-2.0908,-2.0615,-2.0651,-2.1724,-2.1993,-2.2409,-2.345,-2.3595,-2.3595,-2.3595,-2.3595,-2.3595,-2.3595,-2.3595,-2.3595,-2.3595,-2.3595,-2.3595,-2.3595,-2.3595,-2.3595,-2.3595,-2.3595,-2.3595,-2.3595,-2.3595,-2.3595,-2.3595,-2.3595,-2.3595,-2.3595,-2.3595,-2.3837,0.0,0.0,-1.6542,-1.5753,0.0,0.0,0.0,0.0,0.0,0.0,0.0,0.0,0.0,0.0,0.0,0.0,0.0,0.0,0.0,0.0,0.0,0.0,0.0,0.0,0.0,0.0,-2.1573,-2.2158,-2.2505,-2.2802,-2.3131,-2.2281,-2.1894,-2.2193,-2.1307,-2.0782,-2.0756,-2.0756,-2.0756,-2.0756,-2.0756,-2.0756,-2.0756,-2.0756,-2.074,-2.0746,-2.0746,-2.0692,-2.0639,-2.0639,-2.0639,-2.0702,-2.1267,-2.1493,-2.1493,-2.1493,-2.1493,-2.1493,-2.1493,-2.1493,-2.1493,-2.1493,-2.1493,-2.1493,-2.1493,-2.1292,-2.1016,-2.0727,-2.0639,-2.0639,-2.0639,-2.0639,-2.0577,-2.03,-2.0451,-2.0489,-1.9924,-2.0024,-2.0346,-2.0712,-2.0547,-2.0683,-2.196,-2.2469,-2.2831,-2.3508,-2.3595,-2.3595,-2.3595,-2.3595,-2.3595,-2.3595,-2.3595,-2.3595,-2.3595,-2.3595,-2.3595,-2.3595,-2.3595,-2.3595,-2.3595,-2.3595,-2.3595,-2.3595,-2.3595,-2.3595,-2.3595,-2.3595,-2.3595,-2.3595,-2.3595,-2.3752,0.0,0.0,0.0,0.0,0.0,-1.7582,0.0,0.0,0.0,-1.6733,0.0,0.0,0.0,0.0,0.0,0.0,0.0,0.0,0.0,0.0,0.0,0.0,0.0,0.0,0.0,0.0,-2.0553,-2.1312,-2.1162,-2.1411,-2.2152,-2.1347,-2.1288,-2.2326,-2.1445,-2.121,-2.171,-2.1697,-2.1697,-2.1697,-2.1697,-2.1697,-2.1697,-2.1697,-2.1424,-2.0979,-2.0845,-2.0497,-2.0003,-1.985,-1.9798,-1.9899,-2.0803,-2.1154,-2.1154,-2.1154,-2.1154,-2.1154,-2.1154,-2.1154,-2.1154,-2.1154,-2.1154,-2.1222,-2.1331,-2.0949,-2.0454,-2.0079,-1.9901,-1.9798,-1.9798,-1.9798,-1.9798,-1.9798,-1.9798,-1.9798,-1.9798,-1.9798,-2.0042,-2.0832,-2.0979,-2.1355,-2.2512,-2.3098,-2.3465,-2.3595,-2.3595,-2.3595,-2.3595,-2.3595,-2.3595,-2.3595,-2.3595,-2.3595,-2.3595,-2.3595,-2.3595,-2.3595,-2.3595,-2.3595,-2.3595,-2.3595,-2.3595,-2.3595,-2.3595,-2.3595,-2.3595,-2.3595,-2.3595,-2.3595,-2.3595,-2.3595,0.0,0.0,0.0,0.0,-1.9864,0.0,0.0,0.0,-1.7408,-1.5848,0.0,0.0,0.0,0.0,0.0,0.0,0.0,0.0,0.0,0.0,0.0,0.0,0.0,0.0,0.0,0.0,0.0,-1.998,-1.9262,-1.926,-2.0344,-2.0709,-2.0951,-2.1087,-2.1448,-2.1615,-2.1697,-2.1697,-2.1697,-2.1697,-2.1697,-2.1697,-2.1697,-2.1697,-2.1649,-2.1568,-2.1028,-2.0746,-2.0646,-2.0055,-1.9798,-1.9811,-1.9949,-1.9999,-1.9999,-1.9999,-1.9999,-1.9999,-1.9999,-1.9999,-1.9999,-1.9999,-1.9999,-2.009,-2.0705,-2.0399,-1.9989,-2.0523,-2.0258,-1.9798,-1.9798,-1.9798,-1.9798,-1.9798,-1.9798,-1.9798,-1.9798,-1.9798,-2.0144,-2.1376,-2.1615,-2.1805,-2.2558,-2.2754,-2.2965,-2.3508,-2.3595,-2.3595,-2.3595,-2.3595,-2.3595,-2.3595,-2.3595,-2.3595,-2.3595,-2.3595,-2.3595,-2.3595,-2.3595,-2.3595,-2.3595,-2.3595,-2.3595,-2.3595,-2.3595,-2.3595,-2.3595,-2.3595,-2.3595,-2.3595,-2.3595,-2.3595,0.0,0.0,0.0,0.0,0.0,0.0,0.0,0.0,-1.7903,0.0,0.0,0.0,0.0,0.0,0.0,0.0,0.0,0.0,0.0,0.0,0.0,0.0,0.0,0.0,0.0,0.0,0.0,0.0,0.0,-1.7947,-1.9419,-1.969,-2.0302,-2.1423,-2.1634,-2.2067,-2.2786,-2.2786,-2.2786,-2.2786,-2.2786,-2.2786,-2.2786,-2.2786,-2.2606,-2.2253,-2.2035,-2.1465,-2.0795,-2.0497,-2.0144,-1.9798,-1.9798,-1.9798,-1.9798,-1.9798,-1.9798,-1.9798,-1.9798,-1.9798,-1.9798,-1.9798,-2.0055,-2.0446,-2.0696,-2.0832,-2.0939,-2.1245,-2.1148,-2.0805,-2.0497,-2.0396,-2.0396,-2.0396,-2.0105,-1.9991,-2.0756,-2.062,-2.0782,-2.2021,-2.23,-2.2483,-2.3098,-2.3231,-2.3334,-2.3551,-2.3595,-2.3595,-2.3595,-2.3595,-2.3595,-2.3595,-2.3595,-2.3595,-2.3595,-2.3595,-2.3595,-2.3595,-2.3595,-2.3595,-2.3595,-2.3595,-2.3595,-2.3595,-2.3595,-2.3595,-2.3595,-2.3595,-2.3595,-2.3595,-2.3595,-2.3595,-1.9824,0.0,0.0,0.0,0.0,0.0,0.0,0.0,0.0,0.0,0.0,0.0,0.0,0.0,0.0,0.0,0.0,0.0,0.0,0.0,0.0,0.0,0.0,0.0,0.0,0.0,0.0,0.0,0.0,0.0,-1.8262,-1.8478,-1.9374,-2.131,-2.1398,-2.1974,-2.3071,-2.3071,-2.3071,-2.3071,-2.3266,-2.334,-2.3355,-2.352,-2.3377,-2.2934,-2.2785,-2.2175,-2.1272,-2.0944,-2.0497,-2.0055,-1.985,-1.9798,-1.9798,-1.9798,-1.9798,-1.9798,-1.9798,-1.9798,-1.9798,-1.9798,-2.0245,-2.0845,-2.0979,-2.1342,-2.1758,-2.1899,-2.1852,-2.1615,-2.1161,-2.093,-2.0795,-2.0795,-2.0295,-2.0093,-2.1183,-2.0966,-2.0979,-2.242,-2.2543,-2.268,-2.345,-2.3595,-2.3595,-2.3595,-2.3595,-2.3595,-2.3595,-2.3595,-2.3595,-2.3595,-2.3595,-2.3595,-2.3595,-2.3595,-2.3595,-2.3595,-2.3595,-2.3595,-2.3595,-2.3595,-2.3595,-2.3595,-2.3595,-2.3595,-2.3595,-2.3595,-2.3505,-2.3355,-2.352,-2.3505,0.0,0.0,0.0,-1.9031,0.0,0.0,0.0,0.0,-1.945,0.0,0.0,0.0,0.0,0.0,0.0,0.0,0.0,0.0,0.0,0.0,0.0,0.0,0.0,0.0,0.0,0.0,0.0,0.0,0.0,0.0,-1.6453,-1.7048,-1.8167,-1.9929,-2.045,-2.1044,-2.1754,-2.1754,-2.1754,-2.1769,-2.2398,-2.2753,-2.2768,-2.3325,-2.3595,-2.3551,-2.2965,-2.2694,-2.2558,-2.1321,-2.0795,-2.0696,-2.0055,-1.9798,-1.9798,-1.9798,-1.9798,-1.9798,-1.9798,-1.9798,-1.9798,-1.9798,-2.0245,-2.0894,-2.1472,-2.1697,-2.1852,-2.2498,-2.2193,-2.1697,-2.1663,-2.1245,-2.0795,-2.0795,-2.0295,-2.0003,-2.0696,-2.0295,-2.0383,-2.2314,-2.2193,-2.2132,-2.3363,-2.3595,-2.3595,-2.3595,-2.3595,-2.3595,-2.3595,-2.3595,-2.3595,-2.3595,-2.3595,-2.3595,-2.3595,-2.3595,-2.3595,-2.3595,-2.3595,-2.3595,-2.3595,-2.3595,-2.3595,-2.3595,-2.3595,-2.3595,-2.3595,-2.3595,-2.3295,-2.2727,-2.3325,-2.3281,0.0,0.0,-2.0393,-1.9031,0.0,0.0,0.0,0.0,0.0,0.0,0.0,0.0,0.0,0.0,0.0,0.0,0.0,0.0,0.0,0.0,0.0,0.0,0.0,0.0,0.0,0.0,0.0,0.0,0.0,0.0,0.0,-1.7143,-1.8302,-1.9332,-2.0233,-2.1035,-2.1695,-2.1695,-2.1695,-2.1695,-2.1919,-2.2024,-2.2039,-2.2248,-2.2338,-2.2338,-2.2132,-2.181,-2.1341,-2.0523,-2.0187,-2.0096,-1.9483,-1.9497,-1.9798,-1.9798,-1.9798,-1.9798,-1.9798,-1.9798,-1.9798,-1.9798,-2.0521,-2.1424,-2.1663,-2.2271,-2.298,-2.3231,-2.3128,-2.2741,-2.1932,-2.1568,-2.1293,-2.0881,-2.0295,-2.0181,-2.1738,-2.1534,-2.152,-2.2995,-2.3128,-2.3069,-2.3551,-2.3595,-2.3595,-2.3595,-2.3595,-2.3595,-2.3595,-2.3595,-2.3595,-2.3595,-2.3595,-2.3595,-2.3595,-2.3595,-2.3595,-2.3595,-2.3595,-2.3595,-2.3595,-2.3595,-2.3595,-2.3595,-2.3595,-2.3595,-2.3595,-2.3191,-2.2877,-2.2667,-2.2443,-2.2218,-1.969,-2.0004,0.0,-1.8986,-1.8702,0.0,-1.7832,0.0,0.0,0.0,0.0,0.0,0.0,0.0,0.0,0.0,0.0,0.0,0.0,0.0,0.0,0.0,0.0,0.0,0.0,0.0,-1.2253,-1.3682,0.0,0.0,0.0,0.0,-1.8377,-1.9021,-1.9888,-2.0557,-2.0976,-2.0976,-2.0976,-2.0976,-2.1231,-2.135,-2.135,-2.159,-2.1695,-2.1695,-2.1695,-2.1465,-2.1,-2.0203,-1.9871,-1.9748,-1.8996,-1.8945,-1.9284,-1.966,-1.9798,-1.9773,-1.9585,-1.9648,-1.985,-2.0105,-2.0855,-2.1744,-2.1993,-2.2801,-2.3595,-2.3595,-2.3595,-2.3363,-2.2331,-2.1899,-2.1568,-2.093,-2.0446,-2.0497,-2.1752,-2.1866,-2.2025,-2.3084,-2.329,-2.3334,-2.3551,-2.3595,-2.3595,-2.3595,-2.3595,-2.3595,-2.3595,-2.3595,-2.3595,-2.3595,-2.3595,-2.3595,-2.3595,-2.3595,-2.3595,-2.3595,-2.3595,-2.3595,-2.3595,-2.3595,-2.3595,-2.3595,-2.3385,-2.3266,-2.3266,-2.2637,-2.2203,-2.1964,-2.1545,-2.1216]}]]